<?xml version="1.0" encoding="UTF-8" standalone="no" ?>
<gpx xmlns="http://www.topografix.com/GPX/1/1" xmlns:xsi="http://www.w3.org/2001/XMLSchema-instance" xsi:schemaLocation="http://www.topografix.com/GPX/1/1 http://www.topografix.com/GPX/1/1/gpx.xsd" version="1.1" creator="VisuGPX - https://www.visugpx.com">
  <metadata>
    <name>Champagnat Cyclisme sur route</name>
  </metadata>
  <trk>
    <name><![CDATA[Champagnat Cyclisme sur route_1]]></name>
    <trkseg>
      <trkpt lat="46.48274" lon="5.3684">
        <ele>265.8</ele>
        <time>2022-08-09T11:18:47Z</time>
      </trkpt>
      <trkpt lat="46.48266" lon="5.36828">
        <ele>264.8</ele>
        <time>2022-08-09T11:18:48Z</time>
      </trkpt>
      <trkpt lat="46.48256" lon="5.36817">
        <ele>264.4</ele>
        <time>2022-08-09T11:18:49Z</time>
      </trkpt>
      <trkpt lat="46.48246" lon="5.36808">
        <ele>263.2</ele>
        <time>2022-08-09T11:18:50Z</time>
      </trkpt>
      <trkpt lat="46.48235" lon="5.36799">
        <ele>262.8</ele>
        <time>2022-08-09T11:18:51Z</time>
      </trkpt>
      <trkpt lat="46.48225" lon="5.3679">
        <ele>261.8</ele>
        <time>2022-08-09T11:18:52Z</time>
      </trkpt>
      <trkpt lat="46.48214" lon="5.36782">
        <ele>261.4</ele>
        <time>2022-08-09T11:18:53Z</time>
      </trkpt>
      <trkpt lat="46.48204" lon="5.36773">
        <ele>260.4</ele>
        <time>2022-08-09T11:18:54Z</time>
      </trkpt>
      <trkpt lat="46.48183" lon="5.36756">
        <ele>259</ele>
        <time>2022-08-09T11:18:56Z</time>
      </trkpt>
      <trkpt lat="46.48152" lon="5.36732">
        <ele>257.4</ele>
        <time>2022-08-09T11:18:59Z</time>
      </trkpt>
      <trkpt lat="46.48142" lon="5.36724">
        <ele>257</ele>
        <time>2022-08-09T11:19:00Z</time>
      </trkpt>
      <trkpt lat="46.48133" lon="5.36716">
        <ele>256</ele>
        <time>2022-08-09T11:19:01Z</time>
      </trkpt>
      <trkpt lat="46.48113" lon="5.36697">
        <ele>254.4</ele>
        <time>2022-08-09T11:19:04Z</time>
      </trkpt>
      <trkpt lat="46.48112" lon="5.36682">
        <ele>252.8</ele>
        <time>2022-08-09T11:19:06Z</time>
      </trkpt>
      <trkpt lat="46.4812" lon="5.36668">
        <ele>251.4</ele>
        <time>2022-08-09T11:19:08Z</time>
      </trkpt>
      <trkpt lat="46.48126" lon="5.36661">
        <ele>250.6</ele>
        <time>2022-08-09T11:19:09Z</time>
      </trkpt>
      <trkpt lat="46.48133" lon="5.36655">
        <ele>250.2</ele>
        <time>2022-08-09T11:19:10Z</time>
      </trkpt>
      <trkpt lat="46.48145" lon="5.36642">
        <ele>249.8</ele>
        <time>2022-08-09T11:19:12Z</time>
      </trkpt>
      <trkpt lat="46.4815" lon="5.36635">
        <ele>249.6</ele>
        <time>2022-08-09T11:19:13Z</time>
      </trkpt>
      <trkpt lat="46.4816" lon="5.36621">
        <ele>249.2</ele>
        <time>2022-08-09T11:19:15Z</time>
      </trkpt>
      <trkpt lat="46.48175" lon="5.36611">
        <ele>248.8</ele>
        <time>2022-08-09T11:19:17Z</time>
      </trkpt>
      <trkpt lat="46.48183" lon="5.36607">
        <ele>248.6</ele>
        <time>2022-08-09T11:19:18Z</time>
      </trkpt>
      <trkpt lat="46.48191" lon="5.36604">
        <ele>248.6</ele>
        <time>2022-08-09T11:19:19Z</time>
      </trkpt>
      <trkpt lat="46.482" lon="5.366">
        <ele>248.4</ele>
        <time>2022-08-09T11:19:20Z</time>
      </trkpt>
      <trkpt lat="46.48207" lon="5.36597">
        <ele>248.4</ele>
        <time>2022-08-09T11:19:21Z</time>
      </trkpt>
      <trkpt lat="46.48214" lon="5.36593">
        <ele>248.4</ele>
        <time>2022-08-09T11:19:22Z</time>
      </trkpt>
      <trkpt lat="46.48219" lon="5.36586">
        <ele>248.2</ele>
        <time>2022-08-09T11:19:23Z</time>
      </trkpt>
      <trkpt lat="46.48223" lon="5.36577">
        <ele>248.2</ele>
        <time>2022-08-09T11:19:24Z</time>
      </trkpt>
      <trkpt lat="46.48226" lon="5.36566">
        <ele>248</ele>
        <time>2022-08-09T11:19:25Z</time>
      </trkpt>
      <trkpt lat="46.48231" lon="5.36557">
        <ele>248</ele>
        <time>2022-08-09T11:19:26Z</time>
      </trkpt>
      <trkpt lat="46.48242" lon="5.36543">
        <ele>247.8</ele>
        <time>2022-08-09T11:19:28Z</time>
      </trkpt>
      <trkpt lat="46.48267" lon="5.36517">
        <ele>247</ele>
        <time>2022-08-09T11:19:32Z</time>
      </trkpt>
      <trkpt lat="46.48293" lon="5.36488">
        <ele>246.4</ele>
        <time>2022-08-09T11:19:36Z</time>
      </trkpt>
      <trkpt lat="46.48306" lon="5.36473">
        <ele>246</ele>
        <time>2022-08-09T11:19:38Z</time>
      </trkpt>
      <trkpt lat="46.48347" lon="5.36429">
        <ele>245</ele>
        <time>2022-08-09T11:19:44Z</time>
      </trkpt>
      <trkpt lat="46.48354" lon="5.36422">
        <ele>245</ele>
        <time>2022-08-09T11:19:45Z</time>
      </trkpt>
      <trkpt lat="46.48374" lon="5.36399">
        <ele>243.6</ele>
        <time>2022-08-09T11:19:48Z</time>
      </trkpt>
      <trkpt lat="46.48408" lon="5.36366">
        <ele>242.6</ele>
        <time>2022-08-09T11:19:53Z</time>
      </trkpt>
      <trkpt lat="46.48415" lon="5.36361">
        <ele>242.6</ele>
        <time>2022-08-09T11:19:54Z</time>
      </trkpt>
      <trkpt lat="46.48437" lon="5.3635">
        <ele>242.2</ele>
        <time>2022-08-09T11:19:57Z</time>
      </trkpt>
      <trkpt lat="46.48475" lon="5.36343">
        <ele>241.6</ele>
        <time>2022-08-09T11:20:02Z</time>
      </trkpt>
      <trkpt lat="46.4849" lon="5.36341">
        <ele>241.6</ele>
        <time>2022-08-09T11:20:04Z</time>
      </trkpt>
      <trkpt lat="46.4854" lon="5.36333">
        <ele>241.4</ele>
        <time>2022-08-09T11:20:11Z</time>
      </trkpt>
      <trkpt lat="46.48599" lon="5.36323">
        <ele>240.8</ele>
        <time>2022-08-09T11:20:19Z</time>
      </trkpt>
      <trkpt lat="46.48607" lon="5.36322">
        <ele>240.6</ele>
        <time>2022-08-09T11:20:20Z</time>
      </trkpt>
      <trkpt lat="46.48614" lon="5.36318">
        <ele>240.4</ele>
        <time>2022-08-09T11:20:21Z</time>
      </trkpt>
      <trkpt lat="46.48627" lon="5.36305">
        <ele>240</ele>
        <time>2022-08-09T11:20:23Z</time>
      </trkpt>
      <trkpt lat="46.48635" lon="5.36284">
        <ele>239.6</ele>
        <time>2022-08-09T11:20:25Z</time>
      </trkpt>
      <trkpt lat="46.4864" lon="5.36245">
        <ele>238.4</ele>
        <time>2022-08-09T11:20:28Z</time>
      </trkpt>
      <trkpt lat="46.48642" lon="5.36219">
        <ele>237.6</ele>
        <time>2022-08-09T11:20:30Z</time>
      </trkpt>
      <trkpt lat="46.48643" lon="5.36206">
        <ele>237.2</ele>
        <time>2022-08-09T11:20:31Z</time>
      </trkpt>
      <trkpt lat="46.48647" lon="5.36155">
        <ele>235.8</ele>
        <time>2022-08-09T11:20:35Z</time>
      </trkpt>
      <trkpt lat="46.4865" lon="5.3613">
        <ele>235.4</ele>
        <time>2022-08-09T11:20:37Z</time>
      </trkpt>
      <trkpt lat="46.48658" lon="5.36095">
        <ele>234.6</ele>
        <time>2022-08-09T11:20:40Z</time>
      </trkpt>
      <trkpt lat="46.48665" lon="5.36062">
        <ele>234.2</ele>
        <time>2022-08-09T11:20:43Z</time>
      </trkpt>
      <trkpt lat="46.48667" lon="5.36052">
        <ele>234</ele>
        <time>2022-08-09T11:20:44Z</time>
      </trkpt>
      <trkpt lat="46.48675" lon="5.36014">
        <ele>234</ele>
        <time>2022-08-09T11:20:48Z</time>
      </trkpt>
      <trkpt lat="46.48676" lon="5.36005">
        <ele>234.2</ele>
        <time>2022-08-09T11:20:49Z</time>
      </trkpt>
      <trkpt lat="46.48678" lon="5.35997">
        <ele>234.2</ele>
        <time>2022-08-09T11:20:50Z</time>
      </trkpt>
      <trkpt lat="46.48683" lon="5.35962">
        <ele>235</ele>
        <time>2022-08-09T11:20:54Z</time>
      </trkpt>
      <trkpt lat="46.48688" lon="5.35923">
        <ele>235.4</ele>
        <time>2022-08-09T11:20:58Z</time>
      </trkpt>
      <trkpt lat="46.48693" lon="5.35904">
        <ele>235.6</ele>
        <time>2022-08-09T11:21:00Z</time>
      </trkpt>
      <trkpt lat="46.48711" lon="5.35855">
        <ele>235.4</ele>
        <time>2022-08-09T11:21:05Z</time>
      </trkpt>
      <trkpt lat="46.48741" lon="5.35787">
        <ele>233.8</ele>
        <time>2022-08-09T11:21:12Z</time>
      </trkpt>
      <trkpt lat="46.48746" lon="5.35776">
        <ele>233.8</ele>
        <time>2022-08-09T11:21:13Z</time>
      </trkpt>
      <trkpt lat="46.48753" lon="5.35757">
        <ele>233.6</ele>
        <time>2022-08-09T11:21:15Z</time>
      </trkpt>
      <trkpt lat="46.48778" lon="5.35703">
        <ele>233.2</ele>
        <time>2022-08-09T11:21:21Z</time>
      </trkpt>
      <trkpt lat="46.488" lon="5.35654">
        <ele>233.2</ele>
        <time>2022-08-09T11:21:27Z</time>
      </trkpt>
      <trkpt lat="46.48803" lon="5.35646">
        <ele>233.2</ele>
        <time>2022-08-09T11:21:28Z</time>
      </trkpt>
      <trkpt lat="46.48826" lon="5.35598">
        <ele>233.2</ele>
        <time>2022-08-09T11:21:34Z</time>
      </trkpt>
      <trkpt lat="46.48855" lon="5.3553">
        <ele>233.2</ele>
        <time>2022-08-09T11:21:43Z</time>
      </trkpt>
      <trkpt lat="46.48858" lon="5.35522">
        <ele>233.2</ele>
        <time>2022-08-09T11:21:44Z</time>
      </trkpt>
      <trkpt lat="46.48889" lon="5.35452">
        <ele>233.2</ele>
        <time>2022-08-09T11:21:53Z</time>
      </trkpt>
      <trkpt lat="46.48896" lon="5.35436">
        <ele>233.2</ele>
        <time>2022-08-09T11:21:55Z</time>
      </trkpt>
      <trkpt lat="46.48922" lon="5.35377">
        <ele>233</ele>
        <time>2022-08-09T11:22:02Z</time>
      </trkpt>
      <trkpt lat="46.48938" lon="5.35341">
        <ele>232.6</ele>
        <time>2022-08-09T11:22:06Z</time>
      </trkpt>
      <trkpt lat="46.48951" lon="5.35311">
        <ele>232.4</ele>
        <time>2022-08-09T11:22:10Z</time>
      </trkpt>
      <trkpt lat="46.48972" lon="5.35262">
        <ele>232.2</ele>
        <time>2022-08-09T11:22:16Z</time>
      </trkpt>
      <trkpt lat="46.48975" lon="5.35256">
        <ele>232.2</ele>
        <time>2022-08-09T11:22:17Z</time>
      </trkpt>
      <trkpt lat="46.48997" lon="5.35203">
        <ele>232.6</ele>
        <time>2022-08-09T11:22:24Z</time>
      </trkpt>
      <trkpt lat="46.49013" lon="5.35168">
        <ele>233.6</ele>
        <time>2022-08-09T11:22:29Z</time>
      </trkpt>
      <trkpt lat="46.49023" lon="5.35146">
        <ele>233.6</ele>
        <time>2022-08-09T11:22:32Z</time>
      </trkpt>
      <trkpt lat="46.49027" lon="5.35136">
        <ele>233.6</ele>
        <time>2022-08-09T11:22:33Z</time>
      </trkpt>
      <trkpt lat="46.49029" lon="5.35129">
        <ele>233.8</ele>
        <time>2022-08-09T11:22:34Z</time>
      </trkpt>
      <trkpt lat="46.49046" lon="5.35068">
        <ele>233.6</ele>
        <time>2022-08-09T11:22:41Z</time>
      </trkpt>
      <trkpt lat="46.49061" lon="5.34989">
        <ele>233</ele>
        <time>2022-08-09T11:22:49Z</time>
      </trkpt>
      <trkpt lat="46.49063" lon="5.34978">
        <ele>232.8</ele>
        <time>2022-08-09T11:22:50Z</time>
      </trkpt>
      <trkpt lat="46.49067" lon="5.34956">
        <ele>232.6</ele>
        <time>2022-08-09T11:22:52Z</time>
      </trkpt>
      <trkpt lat="46.49078" lon="5.34899">
        <ele>232</ele>
        <time>2022-08-09T11:22:57Z</time>
      </trkpt>
      <trkpt lat="46.4908" lon="5.34888">
        <ele>231.6</ele>
        <time>2022-08-09T11:22:58Z</time>
      </trkpt>
      <trkpt lat="46.49095" lon="5.34805">
        <ele>230.6</ele>
        <time>2022-08-09T11:23:05Z</time>
      </trkpt>
      <trkpt lat="46.491" lon="5.34781">
        <ele>230</ele>
        <time>2022-08-09T11:23:07Z</time>
      </trkpt>
      <trkpt lat="46.49106" lon="5.34746">
        <ele>229.4</ele>
        <time>2022-08-09T11:23:10Z</time>
      </trkpt>
      <trkpt lat="46.49123" lon="5.34663">
        <ele>228.6</ele>
        <time>2022-08-09T11:23:17Z</time>
      </trkpt>
      <trkpt lat="46.49125" lon="5.34652">
        <ele>228.4</ele>
        <time>2022-08-09T11:23:18Z</time>
      </trkpt>
      <trkpt lat="46.49133" lon="5.34612">
        <ele>228.2</ele>
        <time>2022-08-09T11:23:22Z</time>
      </trkpt>
      <trkpt lat="46.49143" lon="5.34556">
        <ele>229</ele>
        <time>2022-08-09T11:23:28Z</time>
      </trkpt>
      <trkpt lat="46.49156" lon="5.34493">
        <ele>228.8</ele>
        <time>2022-08-09T11:23:34Z</time>
      </trkpt>
      <trkpt lat="46.49173" lon="5.34409">
        <ele>228</ele>
        <time>2022-08-09T11:23:42Z</time>
      </trkpt>
      <trkpt lat="46.49181" lon="5.34365">
        <ele>228.2</ele>
        <time>2022-08-09T11:23:47Z</time>
      </trkpt>
      <trkpt lat="46.4919" lon="5.34316">
        <ele>229.4</ele>
        <time>2022-08-09T11:23:53Z</time>
      </trkpt>
      <trkpt lat="46.49192" lon="5.34307">
        <ele>229.4</ele>
        <time>2022-08-09T11:23:54Z</time>
      </trkpt>
      <trkpt lat="46.49201" lon="5.34259">
        <ele>229.4</ele>
        <time>2022-08-09T11:23:59Z</time>
      </trkpt>
      <trkpt lat="46.49213" lon="5.34198">
        <ele>228.2</ele>
        <time>2022-08-09T11:24:05Z</time>
      </trkpt>
      <trkpt lat="46.49218" lon="5.34167">
        <ele>228</ele>
        <time>2022-08-09T11:24:08Z</time>
      </trkpt>
      <trkpt lat="46.49229" lon="5.34112">
        <ele>228.2</ele>
        <time>2022-08-09T11:24:14Z</time>
      </trkpt>
      <trkpt lat="46.49236" lon="5.34074">
        <ele>229</ele>
        <time>2022-08-09T11:24:19Z</time>
      </trkpt>
      <trkpt lat="46.49241" lon="5.34051">
        <ele>229.8</ele>
        <time>2022-08-09T11:24:22Z</time>
      </trkpt>
      <trkpt lat="46.49248" lon="5.34018">
        <ele>230.6</ele>
        <time>2022-08-09T11:24:26Z</time>
      </trkpt>
      <trkpt lat="46.49255" lon="5.33983">
        <ele>230.8</ele>
        <time>2022-08-09T11:24:30Z</time>
      </trkpt>
      <trkpt lat="46.4926" lon="5.33955">
        <ele>230.8</ele>
        <time>2022-08-09T11:24:33Z</time>
      </trkpt>
      <trkpt lat="46.49265" lon="5.33928">
        <ele>230.8</ele>
        <time>2022-08-09T11:24:36Z</time>
      </trkpt>
      <trkpt lat="46.49271" lon="5.33891">
        <ele>230.8</ele>
        <time>2022-08-09T11:24:40Z</time>
      </trkpt>
      <trkpt lat="46.49287" lon="5.33812">
        <ele>231.2</ele>
        <time>2022-08-09T11:24:49Z</time>
      </trkpt>
      <trkpt lat="46.49301" lon="5.33736">
        <ele>231</ele>
        <time>2022-08-09T11:24:57Z</time>
      </trkpt>
      <trkpt lat="46.49302" lon="5.33726">
        <ele>231</ele>
        <time>2022-08-09T11:24:58Z</time>
      </trkpt>
      <trkpt lat="46.49304" lon="5.3364">
        <ele>230.6</ele>
        <time>2022-08-09T11:25:06Z</time>
      </trkpt>
      <trkpt lat="46.49305" lon="5.33627">
        <ele>230.6</ele>
        <time>2022-08-09T11:25:07Z</time>
      </trkpt>
      <trkpt lat="46.49311" lon="5.33588">
        <ele>230</ele>
        <time>2022-08-09T11:25:11Z</time>
      </trkpt>
      <trkpt lat="46.49317" lon="5.33559">
        <ele>230</ele>
        <time>2022-08-09T11:25:14Z</time>
      </trkpt>
      <trkpt lat="46.49318" lon="5.33539">
        <ele>229.8</ele>
        <time>2022-08-09T11:25:16Z</time>
      </trkpt>
      <trkpt lat="46.49314" lon="5.33483">
        <ele>230</ele>
        <time>2022-08-09T11:25:22Z</time>
      </trkpt>
      <trkpt lat="46.49303" lon="5.33416">
        <ele>229.8</ele>
        <time>2022-08-09T11:25:29Z</time>
      </trkpt>
      <trkpt lat="46.49299" lon="5.33398">
        <ele>229.6</ele>
        <time>2022-08-09T11:25:31Z</time>
      </trkpt>
      <trkpt lat="46.49283" lon="5.33326">
        <ele>229</ele>
        <time>2022-08-09T11:25:38Z</time>
      </trkpt>
      <trkpt lat="46.49275" lon="5.33275">
        <ele>228.8</ele>
        <time>2022-08-09T11:25:43Z</time>
      </trkpt>
      <trkpt lat="46.49273" lon="5.33265">
        <ele>228.6</ele>
        <time>2022-08-09T11:25:44Z</time>
      </trkpt>
      <trkpt lat="46.4927" lon="5.33255">
        <ele>228.4</ele>
        <time>2022-08-09T11:25:45Z</time>
      </trkpt>
      <trkpt lat="46.49262" lon="5.33225">
        <ele>228</ele>
        <time>2022-08-09T11:25:48Z</time>
      </trkpt>
      <trkpt lat="46.49254" lon="5.33207">
        <ele>227.8</ele>
        <time>2022-08-09T11:25:50Z</time>
      </trkpt>
      <trkpt lat="46.4925" lon="5.33199">
        <ele>227.6</ele>
        <time>2022-08-09T11:25:51Z</time>
      </trkpt>
      <trkpt lat="46.49239" lon="5.33186">
        <ele>227.4</ele>
        <time>2022-08-09T11:25:53Z</time>
      </trkpt>
      <trkpt lat="46.49232" lon="5.33181">
        <ele>227.2</ele>
        <time>2022-08-09T11:25:54Z</time>
      </trkpt>
      <trkpt lat="46.49205" lon="5.33161">
        <ele>226.6</ele>
        <time>2022-08-09T11:25:58Z</time>
      </trkpt>
      <trkpt lat="46.49179" lon="5.33137">
        <ele>225.8</ele>
        <time>2022-08-09T11:26:02Z</time>
      </trkpt>
      <trkpt lat="46.49173" lon="5.3313">
        <ele>225.6</ele>
        <time>2022-08-09T11:26:03Z</time>
      </trkpt>
      <trkpt lat="46.49162" lon="5.33116">
        <ele>225.4</ele>
        <time>2022-08-09T11:26:05Z</time>
      </trkpt>
      <trkpt lat="46.49157" lon="5.33107">
        <ele>225.2</ele>
        <time>2022-08-09T11:26:06Z</time>
      </trkpt>
      <trkpt lat="46.49141" lon="5.33062">
        <ele>224.8</ele>
        <time>2022-08-09T11:26:11Z</time>
      </trkpt>
      <trkpt lat="46.49131" lon="5.33006">
        <ele>225.2</ele>
        <time>2022-08-09T11:26:17Z</time>
      </trkpt>
      <trkpt lat="46.49125" lon="5.32943">
        <ele>225</ele>
        <time>2022-08-09T11:26:23Z</time>
      </trkpt>
      <trkpt lat="46.49125" lon="5.32932">
        <ele>225</ele>
        <time>2022-08-09T11:26:24Z</time>
      </trkpt>
      <trkpt lat="46.49126" lon="5.3291">
        <ele>224.6</ele>
        <time>2022-08-09T11:26:26Z</time>
      </trkpt>
      <trkpt lat="46.49128" lon="5.3289">
        <ele>224.4</ele>
        <time>2022-08-09T11:26:28Z</time>
      </trkpt>
      <trkpt lat="46.49132" lon="5.32869">
        <ele>224.2</ele>
        <time>2022-08-09T11:26:30Z</time>
      </trkpt>
      <trkpt lat="46.49139" lon="5.32851">
        <ele>224</ele>
        <time>2022-08-09T11:26:32Z</time>
      </trkpt>
      <trkpt lat="46.49144" lon="5.32821">
        <ele>223.4</ele>
        <time>2022-08-09T11:26:35Z</time>
      </trkpt>
      <trkpt lat="46.49144" lon="5.32811">
        <ele>223.4</ele>
        <time>2022-08-09T11:26:36Z</time>
      </trkpt>
      <trkpt lat="46.49144" lon="5.32802">
        <ele>223.6</ele>
        <time>2022-08-09T11:26:37Z</time>
      </trkpt>
      <trkpt lat="46.49142" lon="5.32777">
        <ele>223.2</ele>
        <time>2022-08-09T11:26:40Z</time>
      </trkpt>
      <trkpt lat="46.49131" lon="5.32726">
        <ele>223.4</ele>
        <time>2022-08-09T11:26:46Z</time>
      </trkpt>
      <trkpt lat="46.49128" lon="5.32718">
        <ele>223.4</ele>
        <time>2022-08-09T11:26:47Z</time>
      </trkpt>
      <trkpt lat="46.49124" lon="5.32711">
        <ele>223.4</ele>
        <time>2022-08-09T11:26:48Z</time>
      </trkpt>
      <trkpt lat="46.49114" lon="5.32698">
        <ele>223.2</ele>
        <time>2022-08-09T11:26:50Z</time>
      </trkpt>
      <trkpt lat="46.491" lon="5.32694">
        <ele>223</ele>
        <time>2022-08-09T11:26:52Z</time>
      </trkpt>
      <trkpt lat="46.49092" lon="5.32695">
        <ele>223</ele>
        <time>2022-08-09T11:26:53Z</time>
      </trkpt>
      <trkpt lat="46.49069" lon="5.32699">
        <ele>222.4</ele>
        <time>2022-08-09T11:26:56Z</time>
      </trkpt>
      <trkpt lat="46.49052" lon="5.32702">
        <ele>222.2</ele>
        <time>2022-08-09T11:26:58Z</time>
      </trkpt>
      <trkpt lat="46.49016" lon="5.32709">
        <ele>221.2</ele>
        <time>2022-08-09T11:27:02Z</time>
      </trkpt>
      <trkpt lat="46.48997" lon="5.32711">
        <ele>220.2</ele>
        <time>2022-08-09T11:27:04Z</time>
      </trkpt>
      <trkpt lat="46.48987" lon="5.32711">
        <ele>219.4</ele>
        <time>2022-08-09T11:27:05Z</time>
      </trkpt>
      <trkpt lat="46.48977" lon="5.3271">
        <ele>218.8</ele>
        <time>2022-08-09T11:27:06Z</time>
      </trkpt>
      <trkpt lat="46.48958" lon="5.32701">
        <ele>218</ele>
        <time>2022-08-09T11:27:08Z</time>
      </trkpt>
      <trkpt lat="46.48949" lon="5.32694">
        <ele>217.8</ele>
        <time>2022-08-09T11:27:09Z</time>
      </trkpt>
      <trkpt lat="46.4894" lon="5.32685">
        <ele>217.4</ele>
        <time>2022-08-09T11:27:10Z</time>
      </trkpt>
      <trkpt lat="46.48933" lon="5.32674">
        <ele>217.2</ele>
        <time>2022-08-09T11:27:11Z</time>
      </trkpt>
      <trkpt lat="46.48926" lon="5.32662">
        <ele>216.4</ele>
        <time>2022-08-09T11:27:12Z</time>
      </trkpt>
      <trkpt lat="46.4891" lon="5.32638">
        <ele>215.4</ele>
        <time>2022-08-09T11:27:14Z</time>
      </trkpt>
      <trkpt lat="46.48903" lon="5.32625">
        <ele>214</ele>
        <time>2022-08-09T11:27:15Z</time>
      </trkpt>
      <trkpt lat="46.48905" lon="5.32612">
        <ele>213.6</ele>
        <time>2022-08-09T11:27:16Z</time>
      </trkpt>
      <trkpt lat="46.48913" lon="5.32596">
        <ele>213</ele>
        <time>2022-08-09T11:27:17Z</time>
      </trkpt>
      <trkpt lat="46.48924" lon="5.32582">
        <ele>212.8</ele>
        <time>2022-08-09T11:27:18Z</time>
      </trkpt>
      <trkpt lat="46.48936" lon="5.32568">
        <ele>211.8</ele>
        <time>2022-08-09T11:27:19Z</time>
      </trkpt>
      <trkpt lat="46.48947" lon="5.32553">
        <ele>211</ele>
        <time>2022-08-09T11:27:20Z</time>
      </trkpt>
      <trkpt lat="46.48953" lon="5.32538">
        <ele>210.8</ele>
        <time>2022-08-09T11:27:21Z</time>
      </trkpt>
      <trkpt lat="46.48954" lon="5.32523">
        <ele>210.4</ele>
        <time>2022-08-09T11:27:22Z</time>
      </trkpt>
      <trkpt lat="46.48949" lon="5.32496">
        <ele>209.6</ele>
        <time>2022-08-09T11:27:24Z</time>
      </trkpt>
      <trkpt lat="46.48945" lon="5.32484">
        <ele>209.4</ele>
        <time>2022-08-09T11:27:25Z</time>
      </trkpt>
      <trkpt lat="46.48938" lon="5.32458">
        <ele>208.4</ele>
        <time>2022-08-09T11:27:27Z</time>
      </trkpt>
      <trkpt lat="46.48928" lon="5.32422">
        <ele>207.6</ele>
        <time>2022-08-09T11:27:30Z</time>
      </trkpt>
      <trkpt lat="46.48917" lon="5.32381">
        <ele>207.6</ele>
        <time>2022-08-09T11:27:34Z</time>
      </trkpt>
      <trkpt lat="46.48903" lon="5.32341">
        <ele>207.8</ele>
        <time>2022-08-09T11:27:38Z</time>
      </trkpt>
      <trkpt lat="46.48899" lon="5.32333">
        <ele>207.8</ele>
        <time>2022-08-09T11:27:39Z</time>
      </trkpt>
      <trkpt lat="46.48878" lon="5.323">
        <ele>208.4</ele>
        <time>2022-08-09T11:27:44Z</time>
      </trkpt>
      <trkpt lat="46.4887" lon="5.32288">
        <ele>208.8</ele>
        <time>2022-08-09T11:27:46Z</time>
      </trkpt>
      <trkpt lat="46.4886" lon="5.32273">
        <ele>209.4</ele>
        <time>2022-08-09T11:27:49Z</time>
      </trkpt>
      <trkpt lat="46.48857" lon="5.32268">
        <ele>210.2</ele>
        <time>2022-08-09T11:27:50Z</time>
      </trkpt>
      <trkpt lat="46.48851" lon="5.3226">
        <ele>210.8</ele>
        <time>2022-08-09T11:27:52Z</time>
      </trkpt>
      <trkpt lat="46.48843" lon="5.32246">
        <ele>212</ele>
        <time>2022-08-09T11:27:55Z</time>
      </trkpt>
      <trkpt lat="46.4884" lon="5.32241">
        <ele>212.2</ele>
        <time>2022-08-09T11:27:56Z</time>
      </trkpt>
      <trkpt lat="46.48832" lon="5.32215">
        <ele>213.4</ele>
        <time>2022-08-09T11:28:00Z</time>
      </trkpt>
      <trkpt lat="46.4883" lon="5.32207">
        <ele>213.4</ele>
        <time>2022-08-09T11:28:01Z</time>
      </trkpt>
      <trkpt lat="46.48824" lon="5.3215">
        <ele>213.6</ele>
        <time>2022-08-09T11:28:07Z</time>
      </trkpt>
      <trkpt lat="46.48825" lon="5.32128">
        <ele>213.2</ele>
        <time>2022-08-09T11:28:09Z</time>
      </trkpt>
      <trkpt lat="46.48829" lon="5.32106">
        <ele>212.6</ele>
        <time>2022-08-09T11:28:11Z</time>
      </trkpt>
      <trkpt lat="46.48833" lon="5.32084">
        <ele>212.2</ele>
        <time>2022-08-09T11:28:13Z</time>
      </trkpt>
      <trkpt lat="46.48845" lon="5.32016">
        <ele>211.4</ele>
        <time>2022-08-09T11:28:19Z</time>
      </trkpt>
      <trkpt lat="46.48847" lon="5.31994">
        <ele>211</ele>
        <time>2022-08-09T11:28:21Z</time>
      </trkpt>
      <trkpt lat="46.48848" lon="5.31958">
        <ele>210.8</ele>
        <time>2022-08-09T11:28:24Z</time>
      </trkpt>
      <trkpt lat="46.48844" lon="5.3191">
        <ele>210</ele>
        <time>2022-08-09T11:28:28Z</time>
      </trkpt>
      <trkpt lat="46.48841" lon="5.31887">
        <ele>209.6</ele>
        <time>2022-08-09T11:28:30Z</time>
      </trkpt>
      <trkpt lat="46.48837" lon="5.31876">
        <ele>209.4</ele>
        <time>2022-08-09T11:28:31Z</time>
      </trkpt>
      <trkpt lat="46.48833" lon="5.31865">
        <ele>209.2</ele>
        <time>2022-08-09T11:28:32Z</time>
      </trkpt>
      <trkpt lat="46.48827" lon="5.31857">
        <ele>209</ele>
        <time>2022-08-09T11:28:33Z</time>
      </trkpt>
      <trkpt lat="46.4882" lon="5.31851">
        <ele>209</ele>
        <time>2022-08-09T11:28:34Z</time>
      </trkpt>
      <trkpt lat="46.48798" lon="5.31841">
        <ele>208.4</ele>
        <time>2022-08-09T11:28:37Z</time>
      </trkpt>
      <trkpt lat="46.48791" lon="5.31836">
        <ele>208.4</ele>
        <time>2022-08-09T11:28:38Z</time>
      </trkpt>
      <trkpt lat="46.48786" lon="5.31828">
        <ele>208.4</ele>
        <time>2022-08-09T11:28:39Z</time>
      </trkpt>
      <trkpt lat="46.48781" lon="5.31807">
        <ele>208.4</ele>
        <time>2022-08-09T11:28:41Z</time>
      </trkpt>
      <trkpt lat="46.48777" lon="5.31736">
        <ele>208.4</ele>
        <time>2022-08-09T11:28:48Z</time>
      </trkpt>
      <trkpt lat="46.48773" lon="5.31718">
        <ele>208.6</ele>
        <time>2022-08-09T11:28:50Z</time>
      </trkpt>
      <trkpt lat="46.48769" lon="5.31709">
        <ele>208.8</ele>
        <time>2022-08-09T11:28:51Z</time>
      </trkpt>
      <trkpt lat="46.48765" lon="5.31701">
        <ele>208.6</ele>
        <time>2022-08-09T11:28:52Z</time>
      </trkpt>
      <trkpt lat="46.48746" lon="5.31678">
        <ele>209.4</ele>
        <time>2022-08-09T11:28:56Z</time>
      </trkpt>
      <trkpt lat="46.48717" lon="5.31643">
        <ele>210.4</ele>
        <time>2022-08-09T11:29:02Z</time>
      </trkpt>
      <trkpt lat="46.48679" lon="5.31594">
        <ele>210.8</ele>
        <time>2022-08-09T11:29:10Z</time>
      </trkpt>
      <trkpt lat="46.48644" lon="5.31551">
        <ele>210.8</ele>
        <time>2022-08-09T11:29:17Z</time>
      </trkpt>
      <trkpt lat="46.4864" lon="5.31545">
        <ele>210.8</ele>
        <time>2022-08-09T11:29:18Z</time>
      </trkpt>
      <trkpt lat="46.48623" lon="5.31522">
        <ele>210.8</ele>
        <time>2022-08-09T11:29:22Z</time>
      </trkpt>
      <trkpt lat="46.48617" lon="5.31509">
        <ele>211</ele>
        <time>2022-08-09T11:29:24Z</time>
      </trkpt>
      <trkpt lat="46.48612" lon="5.31489">
        <ele>210.8</ele>
        <time>2022-08-09T11:29:26Z</time>
      </trkpt>
      <trkpt lat="46.48609" lon="5.31465">
        <ele>210.6</ele>
        <time>2022-08-09T11:29:28Z</time>
      </trkpt>
      <trkpt lat="46.48608" lon="5.31443">
        <ele>210.4</ele>
        <time>2022-08-09T11:29:30Z</time>
      </trkpt>
      <trkpt lat="46.48607" lon="5.31434">
        <ele>210.4</ele>
        <time>2022-08-09T11:29:31Z</time>
      </trkpt>
      <trkpt lat="46.48603" lon="5.31418">
        <ele>210.4</ele>
        <time>2022-08-09T11:29:33Z</time>
      </trkpt>
      <trkpt lat="46.48596" lon="5.31406">
        <ele>210.4</ele>
        <time>2022-08-09T11:29:35Z</time>
      </trkpt>
      <trkpt lat="46.48587" lon="5.31396">
        <ele>210.4</ele>
        <time>2022-08-09T11:29:37Z</time>
      </trkpt>
      <trkpt lat="46.48568" lon="5.31375">
        <ele>210.8</ele>
        <time>2022-08-09T11:29:42Z</time>
      </trkpt>
      <trkpt lat="46.48565" lon="5.3137">
        <ele>211.2</ele>
        <time>2022-08-09T11:29:43Z</time>
      </trkpt>
      <trkpt lat="46.48563" lon="5.31365">
        <ele>211.4</ele>
        <time>2022-08-09T11:29:44Z</time>
      </trkpt>
      <trkpt lat="46.48558" lon="5.31348">
        <ele>212.4</ele>
        <time>2022-08-09T11:29:47Z</time>
      </trkpt>
      <trkpt lat="46.48557" lon="5.31342">
        <ele>212.4</ele>
        <time>2022-08-09T11:29:48Z</time>
      </trkpt>
      <trkpt lat="46.48556" lon="5.31324">
        <ele>213.4</ele>
        <time>2022-08-09T11:29:51Z</time>
      </trkpt>
      <trkpt lat="46.48555" lon="5.3131">
        <ele>214.2</ele>
        <time>2022-08-09T11:29:53Z</time>
      </trkpt>
      <trkpt lat="46.48553" lon="5.31282">
        <ele>214.6</ele>
        <time>2022-08-09T11:29:57Z</time>
      </trkpt>
      <trkpt lat="46.48552" lon="5.31259">
        <ele>215</ele>
        <time>2022-08-09T11:30:00Z</time>
      </trkpt>
      <trkpt lat="46.48554" lon="5.31237">
        <ele>215.4</ele>
        <time>2022-08-09T11:30:03Z</time>
      </trkpt>
      <trkpt lat="46.48557" lon="5.3123">
        <ele>215.6</ele>
        <time>2022-08-09T11:30:04Z</time>
      </trkpt>
      <trkpt lat="46.48559" lon="5.31223">
        <ele>215.8</ele>
        <time>2022-08-09T11:30:05Z</time>
      </trkpt>
      <trkpt lat="46.48576" lon="5.31188">
        <ele>216.8</ele>
        <time>2022-08-09T11:30:11Z</time>
      </trkpt>
      <trkpt lat="46.48582" lon="5.31177">
        <ele>217</ele>
        <time>2022-08-09T11:30:13Z</time>
      </trkpt>
      <trkpt lat="46.48606" lon="5.31127">
        <ele>218</ele>
        <time>2022-08-09T11:30:22Z</time>
      </trkpt>
      <trkpt lat="46.48625" lon="5.31088">
        <ele>219.2</ele>
        <time>2022-08-09T11:30:29Z</time>
      </trkpt>
      <trkpt lat="46.48638" lon="5.3106">
        <ele>219.4</ele>
        <time>2022-08-09T11:30:34Z</time>
      </trkpt>
      <trkpt lat="46.48659" lon="5.31017">
        <ele>220.4</ele>
        <time>2022-08-09T11:30:42Z</time>
      </trkpt>
      <trkpt lat="46.48661" lon="5.31012">
        <ele>220.6</ele>
        <time>2022-08-09T11:30:43Z</time>
      </trkpt>
      <trkpt lat="46.48663" lon="5.31006">
        <ele>220.8</ele>
        <time>2022-08-09T11:30:44Z</time>
      </trkpt>
      <trkpt lat="46.48683" lon="5.30966">
        <ele>221.6</ele>
        <time>2022-08-09T11:30:51Z</time>
      </trkpt>
      <trkpt lat="46.48687" lon="5.30959">
        <ele>221.8</ele>
        <time>2022-08-09T11:30:52Z</time>
      </trkpt>
      <trkpt lat="46.48705" lon="5.30924">
        <ele>221.6</ele>
        <time>2022-08-09T11:30:57Z</time>
      </trkpt>
      <trkpt lat="46.48711" lon="5.30917">
        <ele>221.6</ele>
        <time>2022-08-09T11:30:58Z</time>
      </trkpt>
      <trkpt lat="46.48716" lon="5.30909">
        <ele>221.4</ele>
        <time>2022-08-09T11:30:59Z</time>
      </trkpt>
      <trkpt lat="46.48723" lon="5.3089">
        <ele>221</ele>
        <time>2022-08-09T11:31:01Z</time>
      </trkpt>
      <trkpt lat="46.48723" lon="5.3088">
        <ele>220.6</ele>
        <time>2022-08-09T11:31:02Z</time>
      </trkpt>
      <trkpt lat="46.4872" lon="5.30869">
        <ele>220.4</ele>
        <time>2022-08-09T11:31:03Z</time>
      </trkpt>
      <trkpt lat="46.48714" lon="5.30849">
        <ele>219.4</ele>
        <time>2022-08-09T11:31:05Z</time>
      </trkpt>
      <trkpt lat="46.4871" lon="5.30841">
        <ele>219.2</ele>
        <time>2022-08-09T11:31:06Z</time>
      </trkpt>
      <trkpt lat="46.48704" lon="5.30835">
        <ele>219</ele>
        <time>2022-08-09T11:31:07Z</time>
      </trkpt>
      <trkpt lat="46.48697" lon="5.3083">
        <ele>218.8</ele>
        <time>2022-08-09T11:31:08Z</time>
      </trkpt>
      <trkpt lat="46.48673" lon="5.30816">
        <ele>218.6</ele>
        <time>2022-08-09T11:31:11Z</time>
      </trkpt>
      <trkpt lat="46.48664" lon="5.30811">
        <ele>218.4</ele>
        <time>2022-08-09T11:31:12Z</time>
      </trkpt>
      <trkpt lat="46.48614" lon="5.30783">
        <ele>217.8</ele>
        <time>2022-08-09T11:31:18Z</time>
      </trkpt>
      <trkpt lat="46.48583" lon="5.30758">
        <ele>217.8</ele>
        <time>2022-08-09T11:31:23Z</time>
      </trkpt>
      <trkpt lat="46.48573" lon="5.30748">
        <ele>218</ele>
        <time>2022-08-09T11:31:25Z</time>
      </trkpt>
      <trkpt lat="46.48561" lon="5.3073">
        <ele>218.2</ele>
        <time>2022-08-09T11:31:28Z</time>
      </trkpt>
      <trkpt lat="46.48549" lon="5.30703">
        <ele>218.8</ele>
        <time>2022-08-09T11:31:32Z</time>
      </trkpt>
      <trkpt lat="46.48547" lon="5.30696">
        <ele>219</ele>
        <time>2022-08-09T11:31:33Z</time>
      </trkpt>
      <trkpt lat="46.4854" lon="5.30672">
        <ele>219.2</ele>
        <time>2022-08-09T11:31:36Z</time>
      </trkpt>
      <trkpt lat="46.4854" lon="5.30672">
        <ele>219.4</ele>
        <time>2022-08-09T11:31:37Z</time>
      </trkpt>
      <trkpt lat="46.48541" lon="5.30665">
        <ele>219.4</ele>
        <time>2022-08-09T11:31:38Z</time>
      </trkpt>
      <trkpt lat="46.48541" lon="5.30659">
        <ele>219.6</ele>
        <time>2022-08-09T11:31:39Z</time>
      </trkpt>
      <trkpt lat="46.48545" lon="5.30631">
        <ele>220.2</ele>
        <time>2022-08-09T11:31:42Z</time>
      </trkpt>
      <trkpt lat="46.48546" lon="5.30625">
        <ele>220.4</ele>
        <time>2022-08-09T11:31:44Z</time>
      </trkpt>
      <trkpt lat="46.48547" lon="5.30611">
        <ele>220.6</ele>
        <time>2022-08-09T11:31:45Z</time>
      </trkpt>
      <trkpt lat="46.48549" lon="5.30597">
        <ele>221.6</ele>
        <time>2022-08-09T11:31:48Z</time>
      </trkpt>
      <trkpt lat="46.48549" lon="5.3059">
        <ele>222</ele>
        <time>2022-08-09T11:31:49Z</time>
      </trkpt>
      <trkpt lat="46.48551" lon="5.30577">
        <ele>222.4</ele>
        <time>2022-08-09T11:31:51Z</time>
      </trkpt>
      <trkpt lat="46.48553" lon="5.30563">
        <ele>222.6</ele>
        <time>2022-08-09T11:31:52Z</time>
      </trkpt>
      <trkpt lat="46.48553" lon="5.30556">
        <ele>222.8</ele>
        <time>2022-08-09T11:31:53Z</time>
      </trkpt>
      <trkpt lat="46.48554" lon="5.30549">
        <ele>223</ele>
        <time>2022-08-09T11:31:54Z</time>
      </trkpt>
      <trkpt lat="46.48558" lon="5.30527">
        <ele>223.6</ele>
        <time>2022-08-09T11:31:57Z</time>
      </trkpt>
      <trkpt lat="46.48561" lon="5.30503">
        <ele>224.6</ele>
        <time>2022-08-09T11:32:01Z</time>
      </trkpt>
      <trkpt lat="46.4856" lon="5.30501">
        <ele>224.8</ele>
        <time>2022-08-09T11:32:02Z</time>
      </trkpt>
      <trkpt lat="46.48553" lon="5.30491">
        <ele>224.8</ele>
        <time>2022-08-09T11:32:06Z</time>
      </trkpt>
      <trkpt lat="46.4855" lon="5.30491">
        <ele>224.8</ele>
        <time>2022-08-09T11:32:07Z</time>
      </trkpt>
      <trkpt lat="46.48545" lon="5.30492">
        <ele>224.8</ele>
        <time>2022-08-09T11:32:08Z</time>
      </trkpt>
      <trkpt lat="46.48536" lon="5.30497">
        <ele>224.8</ele>
        <time>2022-08-09T11:32:10Z</time>
      </trkpt>
      <trkpt lat="46.48532" lon="5.305">
        <ele>224.8</ele>
        <time>2022-08-09T11:32:11Z</time>
      </trkpt>
      <trkpt lat="46.48513" lon="5.30514">
        <ele>224.8</ele>
        <time>2022-08-09T11:32:15Z</time>
      </trkpt>
      <trkpt lat="46.48493" lon="5.30531">
        <ele>225</ele>
        <time>2022-08-09T11:32:19Z</time>
      </trkpt>
      <trkpt lat="46.48461" lon="5.30562">
        <ele>225</ele>
        <time>2022-08-09T11:32:25Z</time>
      </trkpt>
      <trkpt lat="46.48421" lon="5.306">
        <ele>224.8</ele>
        <time>2022-08-09T11:32:32Z</time>
      </trkpt>
      <trkpt lat="46.48403" lon="5.30617">
        <ele>224.6</ele>
        <time>2022-08-09T11:32:35Z</time>
      </trkpt>
      <trkpt lat="46.48363" lon="5.30656">
        <ele>224</ele>
        <time>2022-08-09T11:32:42Z</time>
      </trkpt>
      <trkpt lat="46.48326" lon="5.30687">
        <ele>223.6</ele>
        <time>2022-08-09T11:32:48Z</time>
      </trkpt>
      <trkpt lat="46.4832" lon="5.3069">
        <ele>223.8</ele>
        <time>2022-08-09T11:32:49Z</time>
      </trkpt>
      <trkpt lat="46.48292" lon="5.30695">
        <ele>223.6</ele>
        <time>2022-08-09T11:32:53Z</time>
      </trkpt>
      <trkpt lat="46.48285" lon="5.30695">
        <ele>223.6</ele>
        <time>2022-08-09T11:32:54Z</time>
      </trkpt>
      <trkpt lat="46.48241" lon="5.30683">
        <ele>223.6</ele>
        <time>2022-08-09T11:33:01Z</time>
      </trkpt>
      <trkpt lat="46.48218" lon="5.30681">
        <ele>223.8</ele>
        <time>2022-08-09T11:33:05Z</time>
      </trkpt>
      <trkpt lat="46.48213" lon="5.30682">
        <ele>224</ele>
        <time>2022-08-09T11:33:07Z</time>
      </trkpt>
      <trkpt lat="46.48202" lon="5.30685">
        <ele>224.2</ele>
        <time>2022-08-09T11:33:08Z</time>
      </trkpt>
      <trkpt lat="46.48182" lon="5.30694">
        <ele>224.6</ele>
        <time>2022-08-09T11:33:12Z</time>
      </trkpt>
      <trkpt lat="46.48167" lon="5.30701">
        <ele>225</ele>
        <time>2022-08-09T11:33:15Z</time>
      </trkpt>
      <trkpt lat="46.48144" lon="5.30715">
        <ele>225.6</ele>
        <time>2022-08-09T11:33:20Z</time>
      </trkpt>
      <trkpt lat="46.48134" lon="5.30721">
        <ele>226</ele>
        <time>2022-08-09T11:33:22Z</time>
      </trkpt>
      <trkpt lat="46.48104" lon="5.30737">
        <ele>226.8</ele>
        <time>2022-08-09T11:33:29Z</time>
      </trkpt>
      <trkpt lat="46.48085" lon="5.30748">
        <ele>227</ele>
        <time>2022-08-09T11:33:32Z</time>
      </trkpt>
      <trkpt lat="46.48041" lon="5.30772">
        <ele>227.6</ele>
        <time>2022-08-09T11:33:40Z</time>
      </trkpt>
      <trkpt lat="46.4799" lon="5.30801">
        <ele>227.2</ele>
        <time>2022-08-09T11:33:48Z</time>
      </trkpt>
      <trkpt lat="46.47947" lon="5.30815">
        <ele>226.2</ele>
        <time>2022-08-09T11:33:54Z</time>
      </trkpt>
      <trkpt lat="46.47916" lon="5.30811">
        <ele>225.8</ele>
        <time>2022-08-09T11:33:59Z</time>
      </trkpt>
      <trkpt lat="46.47906" lon="5.30809">
        <ele>226</ele>
        <time>2022-08-09T11:34:01Z</time>
      </trkpt>
      <trkpt lat="46.47889" lon="5.30803">
        <ele>226.8</ele>
        <time>2022-08-09T11:34:05Z</time>
      </trkpt>
      <trkpt lat="46.47881" lon="5.30801">
        <ele>227.2</ele>
        <time>2022-08-09T11:34:07Z</time>
      </trkpt>
      <trkpt lat="46.4786" lon="5.30798">
        <ele>228.6</ele>
        <time>2022-08-09T11:34:12Z</time>
      </trkpt>
      <trkpt lat="46.47841" lon="5.30803">
        <ele>229.8</ele>
        <time>2022-08-09T11:34:17Z</time>
      </trkpt>
      <trkpt lat="46.47838" lon="5.30805">
        <ele>230</ele>
        <time>2022-08-09T11:34:18Z</time>
      </trkpt>
      <trkpt lat="46.47827" lon="5.30811">
        <ele>230.8</ele>
        <time>2022-08-09T11:34:22Z</time>
      </trkpt>
      <trkpt lat="46.47813" lon="5.30827">
        <ele>231.4</ele>
        <time>2022-08-09T11:34:25Z</time>
      </trkpt>
      <trkpt lat="46.4781" lon="5.30831">
        <ele>231.6</ele>
        <time>2022-08-09T11:34:26Z</time>
      </trkpt>
      <trkpt lat="46.47804" lon="5.30841">
        <ele>232</ele>
        <time>2022-08-09T11:34:28Z</time>
      </trkpt>
      <trkpt lat="46.47791" lon="5.30861">
        <ele>232.6</ele>
        <time>2022-08-09T11:34:32Z</time>
      </trkpt>
      <trkpt lat="46.47775" lon="5.30883">
        <ele>232.8</ele>
        <time>2022-08-09T11:34:36Z</time>
      </trkpt>
      <trkpt lat="46.47765" lon="5.30893">
        <ele>232.8</ele>
        <time>2022-08-09T11:34:38Z</time>
      </trkpt>
      <trkpt lat="46.47759" lon="5.30897">
        <ele>232.8</ele>
        <time>2022-08-09T11:34:39Z</time>
      </trkpt>
      <trkpt lat="46.47746" lon="5.30904">
        <ele>232.8</ele>
        <time>2022-08-09T11:34:41Z</time>
      </trkpt>
      <trkpt lat="46.47738" lon="5.30906">
        <ele>232.6</ele>
        <time>2022-08-09T11:34:42Z</time>
      </trkpt>
      <trkpt lat="46.4773" lon="5.30906">
        <ele>232.4</ele>
        <time>2022-08-09T11:34:43Z</time>
      </trkpt>
      <trkpt lat="46.47705" lon="5.309">
        <ele>232</ele>
        <time>2022-08-09T11:34:46Z</time>
      </trkpt>
      <trkpt lat="46.4768" lon="5.30891">
        <ele>231.2</ele>
        <time>2022-08-09T11:34:49Z</time>
      </trkpt>
      <trkpt lat="46.47662" lon="5.30887">
        <ele>230.4</ele>
        <time>2022-08-09T11:34:51Z</time>
      </trkpt>
      <trkpt lat="46.47653" lon="5.30888">
        <ele>230.2</ele>
        <time>2022-08-09T11:34:52Z</time>
      </trkpt>
      <trkpt lat="46.47644" lon="5.3089">
        <ele>229.8</ele>
        <time>2022-08-09T11:34:53Z</time>
      </trkpt>
      <trkpt lat="46.47617" lon="5.309">
        <ele>228.6</ele>
        <time>2022-08-09T11:34:56Z</time>
      </trkpt>
      <trkpt lat="46.47572" lon="5.3092">
        <ele>227.4</ele>
        <time>2022-08-09T11:35:01Z</time>
      </trkpt>
      <trkpt lat="46.47537" lon="5.30939">
        <ele>226.4</ele>
        <time>2022-08-09T11:35:05Z</time>
      </trkpt>
      <trkpt lat="46.47485" lon="5.30972">
        <ele>225.4</ele>
        <time>2022-08-09T11:35:11Z</time>
      </trkpt>
      <trkpt lat="46.47477" lon="5.30978">
        <ele>225.4</ele>
        <time>2022-08-09T11:35:12Z</time>
      </trkpt>
      <trkpt lat="46.47469" lon="5.30983">
        <ele>225.4</ele>
        <time>2022-08-09T11:35:13Z</time>
      </trkpt>
      <trkpt lat="46.47461" lon="5.30988">
        <ele>225.2</ele>
        <time>2022-08-09T11:35:14Z</time>
      </trkpt>
      <trkpt lat="46.47417" lon="5.31017">
        <ele>225</ele>
        <time>2022-08-09T11:35:20Z</time>
      </trkpt>
      <trkpt lat="46.47383" lon="5.3104">
        <ele>225.4</ele>
        <time>2022-08-09T11:35:26Z</time>
      </trkpt>
      <trkpt lat="46.47353" lon="5.31061">
        <ele>226.8</ele>
        <time>2022-08-09T11:35:32Z</time>
      </trkpt>
      <trkpt lat="46.47348" lon="5.31065">
        <ele>226.8</ele>
        <time>2022-08-09T11:35:33Z</time>
      </trkpt>
      <trkpt lat="46.47339" lon="5.31072">
        <ele>227.2</ele>
        <time>2022-08-09T11:35:35Z</time>
      </trkpt>
      <trkpt lat="46.47327" lon="5.31087">
        <ele>228</ele>
        <time>2022-08-09T11:35:38Z</time>
      </trkpt>
      <trkpt lat="46.47316" lon="5.31106">
        <ele>229</ele>
        <time>2022-08-09T11:35:41Z</time>
      </trkpt>
      <trkpt lat="46.47306" lon="5.31118">
        <ele>229.4</ele>
        <time>2022-08-09T11:35:43Z</time>
      </trkpt>
      <trkpt lat="46.47288" lon="5.31143">
        <ele>229.8</ele>
        <time>2022-08-09T11:35:47Z</time>
      </trkpt>
      <trkpt lat="46.47279" lon="5.31157">
        <ele>230.6</ele>
        <time>2022-08-09T11:35:49Z</time>
      </trkpt>
      <trkpt lat="46.47256" lon="5.31188">
        <ele>231.2</ele>
        <time>2022-08-09T11:35:54Z</time>
      </trkpt>
      <trkpt lat="46.47231" lon="5.31223">
        <ele>231.6</ele>
        <time>2022-08-09T11:36:00Z</time>
      </trkpt>
      <trkpt lat="46.47227" lon="5.31228">
        <ele>231.6</ele>
        <time>2022-08-09T11:36:01Z</time>
      </trkpt>
      <trkpt lat="46.47198" lon="5.31271">
        <ele>232.6</ele>
        <time>2022-08-09T11:36:08Z</time>
      </trkpt>
      <trkpt lat="46.47194" lon="5.31277">
        <ele>232.8</ele>
        <time>2022-08-09T11:36:09Z</time>
      </trkpt>
      <trkpt lat="46.47177" lon="5.31302">
        <ele>232.8</ele>
        <time>2022-08-09T11:36:13Z</time>
      </trkpt>
      <trkpt lat="46.47173" lon="5.31309">
        <ele>232.8</ele>
        <time>2022-08-09T11:36:14Z</time>
      </trkpt>
      <trkpt lat="46.47165" lon="5.31321">
        <ele>233</ele>
        <time>2022-08-09T11:36:16Z</time>
      </trkpt>
      <trkpt lat="46.47147" lon="5.31345">
        <ele>232.8</ele>
        <time>2022-08-09T11:36:20Z</time>
      </trkpt>
      <trkpt lat="46.47121" lon="5.31384">
        <ele>233.4</ele>
        <time>2022-08-09T11:36:26Z</time>
      </trkpt>
      <trkpt lat="46.47117" lon="5.3139">
        <ele>233.2</ele>
        <time>2022-08-09T11:36:27Z</time>
      </trkpt>
      <trkpt lat="46.47099" lon="5.31414">
        <ele>233.2</ele>
        <time>2022-08-09T11:36:31Z</time>
      </trkpt>
      <trkpt lat="46.47077" lon="5.31443">
        <ele>233.2</ele>
        <time>2022-08-09T11:36:36Z</time>
      </trkpt>
      <trkpt lat="46.47067" lon="5.31455">
        <ele>233.2</ele>
        <time>2022-08-09T11:36:38Z</time>
      </trkpt>
      <trkpt lat="46.47038" lon="5.31491">
        <ele>233.2</ele>
        <time>2022-08-09T11:36:44Z</time>
      </trkpt>
      <trkpt lat="46.46996" lon="5.31543">
        <ele>233</ele>
        <time>2022-08-09T11:36:53Z</time>
      </trkpt>
      <trkpt lat="46.46992" lon="5.31549">
        <ele>233</ele>
        <time>2022-08-09T11:36:54Z</time>
      </trkpt>
      <trkpt lat="46.46966" lon="5.31582">
        <ele>233.2</ele>
        <time>2022-08-09T11:37:00Z</time>
      </trkpt>
      <trkpt lat="46.46953" lon="5.31598">
        <ele>233.6</ele>
        <time>2022-08-09T11:37:03Z</time>
      </trkpt>
      <trkpt lat="46.46946" lon="5.31608">
        <ele>233.8</ele>
        <time>2022-08-09T11:37:05Z</time>
      </trkpt>
      <trkpt lat="46.46938" lon="5.3162">
        <ele>234</ele>
        <time>2022-08-09T11:37:07Z</time>
      </trkpt>
      <trkpt lat="46.46906" lon="5.31657">
        <ele>234.6</ele>
        <time>2022-08-09T11:37:14Z</time>
      </trkpt>
      <trkpt lat="46.46902" lon="5.31663">
        <ele>234.8</ele>
        <time>2022-08-09T11:37:15Z</time>
      </trkpt>
      <trkpt lat="46.46878" lon="5.31693">
        <ele>234.8</ele>
        <time>2022-08-09T11:37:20Z</time>
      </trkpt>
      <trkpt lat="46.46873" lon="5.31699">
        <ele>234.8</ele>
        <time>2022-08-09T11:37:21Z</time>
      </trkpt>
      <trkpt lat="46.46843" lon="5.31733">
        <ele>234.8</ele>
        <time>2022-08-09T11:37:26Z</time>
      </trkpt>
      <trkpt lat="46.468" lon="5.31785">
        <ele>234</ele>
        <time>2022-08-09T11:37:34Z</time>
      </trkpt>
      <trkpt lat="46.4679" lon="5.31798">
        <ele>233.8</ele>
        <time>2022-08-09T11:37:36Z</time>
      </trkpt>
      <trkpt lat="46.4678" lon="5.31811">
        <ele>233.8</ele>
        <time>2022-08-09T11:37:38Z</time>
      </trkpt>
      <trkpt lat="46.4675" lon="5.31847">
        <ele>233.4</ele>
        <time>2022-08-09T11:37:44Z</time>
      </trkpt>
      <trkpt lat="46.4671" lon="5.31882">
        <ele>232.8</ele>
        <time>2022-08-09T11:37:51Z</time>
      </trkpt>
      <trkpt lat="46.46661" lon="5.31921">
        <ele>232.2</ele>
        <time>2022-08-09T11:38:00Z</time>
      </trkpt>
      <trkpt lat="46.46656" lon="5.31925">
        <ele>232.2</ele>
        <time>2022-08-09T11:38:01Z</time>
      </trkpt>
      <trkpt lat="46.46632" lon="5.31955">
        <ele>232.4</ele>
        <time>2022-08-09T11:38:06Z</time>
      </trkpt>
      <trkpt lat="46.46598" lon="5.32015">
        <ele>233.2</ele>
        <time>2022-08-09T11:38:14Z</time>
      </trkpt>
      <trkpt lat="46.46567" lon="5.32071">
        <ele>233.4</ele>
        <time>2022-08-09T11:38:21Z</time>
      </trkpt>
      <trkpt lat="46.46531" lon="5.32136">
        <ele>233.4</ele>
        <time>2022-08-09T11:38:29Z</time>
      </trkpt>
      <trkpt lat="46.46518" lon="5.32159">
        <ele>233.6</ele>
        <time>2022-08-09T11:38:32Z</time>
      </trkpt>
      <trkpt lat="46.4649" lon="5.3221">
        <ele>234</ele>
        <time>2022-08-09T11:38:39Z</time>
      </trkpt>
      <trkpt lat="46.46482" lon="5.32225">
        <ele>234.2</ele>
        <time>2022-08-09T11:38:41Z</time>
      </trkpt>
      <trkpt lat="46.46447" lon="5.32289">
        <ele>234.4</ele>
        <time>2022-08-09T11:38:50Z</time>
      </trkpt>
      <trkpt lat="46.46412" lon="5.32353">
        <ele>234.4</ele>
        <time>2022-08-09T11:38:59Z</time>
      </trkpt>
      <trkpt lat="46.464" lon="5.32375">
        <ele>234.4</ele>
        <time>2022-08-09T11:39:02Z</time>
      </trkpt>
      <trkpt lat="46.46377" lon="5.32428">
        <ele>234.4</ele>
        <time>2022-08-09T11:39:09Z</time>
      </trkpt>
      <trkpt lat="46.46352" lon="5.32494">
        <ele>234.4</ele>
        <time>2022-08-09T11:39:17Z</time>
      </trkpt>
      <trkpt lat="46.46327" lon="5.32562">
        <ele>234</ele>
        <time>2022-08-09T11:39:25Z</time>
      </trkpt>
      <trkpt lat="46.46318" lon="5.3262">
        <ele>234.4</ele>
        <time>2022-08-09T11:39:31Z</time>
      </trkpt>
      <trkpt lat="46.46318" lon="5.32678">
        <ele>234.4</ele>
        <time>2022-08-09T11:39:37Z</time>
      </trkpt>
      <trkpt lat="46.46317" lon="5.32752">
        <ele>233.8</ele>
        <time>2022-08-09T11:39:45Z</time>
      </trkpt>
      <trkpt lat="46.46311" lon="5.32778">
        <ele>233.8</ele>
        <time>2022-08-09T11:39:48Z</time>
      </trkpt>
      <trkpt lat="46.46305" lon="5.32794">
        <ele>233.8</ele>
        <time>2022-08-09T11:39:50Z</time>
      </trkpt>
      <trkpt lat="46.46284" lon="5.32827">
        <ele>234</ele>
        <time>2022-08-09T11:39:55Z</time>
      </trkpt>
      <trkpt lat="46.46242" lon="5.32885">
        <ele>234.8</ele>
        <time>2022-08-09T11:40:04Z</time>
      </trkpt>
      <trkpt lat="46.46202" lon="5.32942">
        <ele>234.6</ele>
        <time>2022-08-09T11:40:12Z</time>
      </trkpt>
      <trkpt lat="46.46196" lon="5.32948">
        <ele>234.4</ele>
        <time>2022-08-09T11:40:13Z</time>
      </trkpt>
      <trkpt lat="46.46191" lon="5.32953">
        <ele>234.4</ele>
        <time>2022-08-09T11:40:14Z</time>
      </trkpt>
      <trkpt lat="46.46162" lon="5.32974">
        <ele>234</ele>
        <time>2022-08-09T11:40:19Z</time>
      </trkpt>
      <trkpt lat="46.46122" lon="5.32999">
        <ele>234.4</ele>
        <time>2022-08-09T11:40:26Z</time>
      </trkpt>
      <trkpt lat="46.46097" lon="5.33017">
        <ele>235.2</ele>
        <time>2022-08-09T11:40:31Z</time>
      </trkpt>
      <trkpt lat="46.46092" lon="5.33019">
        <ele>235.4</ele>
        <time>2022-08-09T11:40:32Z</time>
      </trkpt>
      <trkpt lat="46.46065" lon="5.3304">
        <ele>235.8</ele>
        <time>2022-08-09T11:40:37Z</time>
      </trkpt>
      <trkpt lat="46.46016" lon="5.33083">
        <ele>235.8</ele>
        <time>2022-08-09T11:40:46Z</time>
      </trkpt>
      <trkpt lat="46.45968" lon="5.33132">
        <ele>235.6</ele>
        <time>2022-08-09T11:40:55Z</time>
      </trkpt>
      <trkpt lat="46.45963" lon="5.33138">
        <ele>235.6</ele>
        <time>2022-08-09T11:40:56Z</time>
      </trkpt>
      <trkpt lat="46.45915" lon="5.33189">
        <ele>235.8</ele>
        <time>2022-08-09T11:41:06Z</time>
      </trkpt>
      <trkpt lat="46.45881" lon="5.33226">
        <ele>236.2</ele>
        <time>2022-08-09T11:41:13Z</time>
      </trkpt>
      <trkpt lat="46.45876" lon="5.33231">
        <ele>236.4</ele>
        <time>2022-08-09T11:41:14Z</time>
      </trkpt>
      <trkpt lat="46.45846" lon="5.33275">
        <ele>237</ele>
        <time>2022-08-09T11:41:21Z</time>
      </trkpt>
      <trkpt lat="46.45812" lon="5.3334">
        <ele>237.2</ele>
        <time>2022-08-09T11:41:30Z</time>
      </trkpt>
      <trkpt lat="46.45786" lon="5.33392">
        <ele>237.4</ele>
        <time>2022-08-09T11:41:37Z</time>
      </trkpt>
      <trkpt lat="46.45782" lon="5.334">
        <ele>237.4</ele>
        <time>2022-08-09T11:41:38Z</time>
      </trkpt>
      <trkpt lat="46.45776" lon="5.33415">
        <ele>237.6</ele>
        <time>2022-08-09T11:41:40Z</time>
      </trkpt>
      <trkpt lat="46.45762" lon="5.33447">
        <ele>238.2</ele>
        <time>2022-08-09T11:41:44Z</time>
      </trkpt>
      <trkpt lat="46.45746" lon="5.33484">
        <ele>238.6</ele>
        <time>2022-08-09T11:41:49Z</time>
      </trkpt>
      <trkpt lat="46.45741" lon="5.335">
        <ele>239</ele>
        <time>2022-08-09T11:41:51Z</time>
      </trkpt>
      <trkpt lat="46.45727" lon="5.33539">
        <ele>239.6</ele>
        <time>2022-08-09T11:41:56Z</time>
      </trkpt>
      <trkpt lat="46.4572" lon="5.33553">
        <ele>240</ele>
        <time>2022-08-09T11:41:58Z</time>
      </trkpt>
      <trkpt lat="46.45716" lon="5.33559">
        <ele>240</ele>
        <time>2022-08-09T11:41:59Z</time>
      </trkpt>
      <trkpt lat="46.45705" lon="5.33586">
        <ele>240.2</ele>
        <time>2022-08-09T11:42:03Z</time>
      </trkpt>
      <trkpt lat="46.45697" lon="5.33604">
        <ele>240.8</ele>
        <time>2022-08-09T11:42:06Z</time>
      </trkpt>
      <trkpt lat="46.45688" lon="5.33622">
        <ele>241.2</ele>
        <time>2022-08-09T11:42:09Z</time>
      </trkpt>
      <trkpt lat="46.45679" lon="5.33644">
        <ele>241.4</ele>
        <time>2022-08-09T11:42:12Z</time>
      </trkpt>
      <trkpt lat="46.45668" lon="5.33672">
        <ele>241.8</ele>
        <time>2022-08-09T11:42:16Z</time>
      </trkpt>
      <trkpt lat="46.45656" lon="5.33699">
        <ele>242.4</ele>
        <time>2022-08-09T11:42:20Z</time>
      </trkpt>
      <trkpt lat="46.45653" lon="5.33706">
        <ele>242.4</ele>
        <time>2022-08-09T11:42:21Z</time>
      </trkpt>
      <trkpt lat="46.45644" lon="5.33728">
        <ele>243</ele>
        <time>2022-08-09T11:42:24Z</time>
      </trkpt>
      <trkpt lat="46.45636" lon="5.33746">
        <ele>243.4</ele>
        <time>2022-08-09T11:42:27Z</time>
      </trkpt>
      <trkpt lat="46.45633" lon="5.33753">
        <ele>243.2</ele>
        <time>2022-08-09T11:42:28Z</time>
      </trkpt>
      <trkpt lat="46.45628" lon="5.33765">
        <ele>243.6</ele>
        <time>2022-08-09T11:42:30Z</time>
      </trkpt>
      <trkpt lat="46.45625" lon="5.33773">
        <ele>243.8</ele>
        <time>2022-08-09T11:42:31Z</time>
      </trkpt>
      <trkpt lat="46.45623" lon="5.33778">
        <ele>244</ele>
        <time>2022-08-09T11:42:32Z</time>
      </trkpt>
      <trkpt lat="46.45613" lon="5.33803">
        <ele>244.4</ele>
        <time>2022-08-09T11:42:36Z</time>
      </trkpt>
      <trkpt lat="46.4561" lon="5.3381">
        <ele>244.6</ele>
        <time>2022-08-09T11:42:37Z</time>
      </trkpt>
      <trkpt lat="46.45609" lon="5.33815">
        <ele>244.6</ele>
        <time>2022-08-09T11:42:38Z</time>
      </trkpt>
      <trkpt lat="46.45601" lon="5.33832">
        <ele>245</ele>
        <time>2022-08-09T11:42:41Z</time>
      </trkpt>
      <trkpt lat="46.45596" lon="5.33843">
        <ele>245.4</ele>
        <time>2022-08-09T11:42:43Z</time>
      </trkpt>
      <trkpt lat="46.4558" lon="5.33877">
        <ele>246</ele>
        <time>2022-08-09T11:42:49Z</time>
      </trkpt>
      <trkpt lat="46.45576" lon="5.33889">
        <ele>246.4</ele>
        <time>2022-08-09T11:42:51Z</time>
      </trkpt>
      <trkpt lat="46.45568" lon="5.33907">
        <ele>247</ele>
        <time>2022-08-09T11:42:54Z</time>
      </trkpt>
      <trkpt lat="46.45566" lon="5.33913">
        <ele>247.2</ele>
        <time>2022-08-09T11:42:55Z</time>
      </trkpt>
      <trkpt lat="46.45564" lon="5.33918">
        <ele>247.4</ele>
        <time>2022-08-09T11:42:56Z</time>
      </trkpt>
      <trkpt lat="46.45564" lon="5.33918">
        <ele>247.6</ele>
        <time>2022-08-09T11:42:57Z</time>
      </trkpt>
      <trkpt lat="46.45553" lon="5.33939">
        <ele>248.2</ele>
        <time>2022-08-09T11:43:00Z</time>
      </trkpt>
      <trkpt lat="46.45545" lon="5.33955">
        <ele>248.6</ele>
        <time>2022-08-09T11:43:03Z</time>
      </trkpt>
      <trkpt lat="46.45527" lon="5.33982">
        <ele>249.6</ele>
        <time>2022-08-09T11:43:09Z</time>
      </trkpt>
      <trkpt lat="46.45521" lon="5.3399">
        <ele>249.8</ele>
        <time>2022-08-09T11:43:11Z</time>
      </trkpt>
      <trkpt lat="46.45498" lon="5.34009">
        <ele>250.6</ele>
        <time>2022-08-09T11:43:17Z</time>
      </trkpt>
      <trkpt lat="46.45494" lon="5.34012">
        <ele>250.6</ele>
        <time>2022-08-09T11:43:18Z</time>
      </trkpt>
      <trkpt lat="46.45466" lon="5.34028">
        <ele>251.8</ele>
        <time>2022-08-09T11:43:25Z</time>
      </trkpt>
      <trkpt lat="46.45439" lon="5.34041">
        <ele>252.8</ele>
        <time>2022-08-09T11:43:32Z</time>
      </trkpt>
      <trkpt lat="46.45435" lon="5.34043">
        <ele>253.2</ele>
        <time>2022-08-09T11:43:33Z</time>
      </trkpt>
      <trkpt lat="46.45421" lon="5.34046">
        <ele>254</ele>
        <time>2022-08-09T11:43:36Z</time>
      </trkpt>
      <trkpt lat="46.45413" lon="5.34048">
        <ele>254.4</ele>
        <time>2022-08-09T11:43:38Z</time>
      </trkpt>
      <trkpt lat="46.45399" lon="5.34049">
        <ele>255.2</ele>
        <time>2022-08-09T11:43:41Z</time>
      </trkpt>
      <trkpt lat="46.45385" lon="5.34052">
        <ele>255.6</ele>
        <time>2022-08-09T11:43:45Z</time>
      </trkpt>
      <trkpt lat="46.45366" lon="5.34055">
        <ele>256</ele>
        <time>2022-08-09T11:43:49Z</time>
      </trkpt>
      <trkpt lat="46.45341" lon="5.34057">
        <ele>256.8</ele>
        <time>2022-08-09T11:43:55Z</time>
      </trkpt>
      <trkpt lat="46.45333" lon="5.3406">
        <ele>257</ele>
        <time>2022-08-09T11:43:57Z</time>
      </trkpt>
      <trkpt lat="46.45307" lon="5.34064">
        <ele>257.8</ele>
        <time>2022-08-09T11:44:03Z</time>
      </trkpt>
      <trkpt lat="46.45268" lon="5.34073">
        <ele>258</ele>
        <time>2022-08-09T11:44:11Z</time>
      </trkpt>
      <trkpt lat="46.45258" lon="5.34075">
        <ele>258.2</ele>
        <time>2022-08-09T11:44:13Z</time>
      </trkpt>
      <trkpt lat="46.45214" lon="5.34083">
        <ele>258.6</ele>
        <time>2022-08-09T11:44:22Z</time>
      </trkpt>
      <trkpt lat="46.45186" lon="5.3409">
        <ele>259.2</ele>
        <time>2022-08-09T11:44:28Z</time>
      </trkpt>
      <trkpt lat="46.45167" lon="5.34095">
        <ele>259.6</ele>
        <time>2022-08-09T11:44:32Z</time>
      </trkpt>
      <trkpt lat="46.45131" lon="5.34102">
        <ele>260.2</ele>
        <time>2022-08-09T11:44:39Z</time>
      </trkpt>
      <trkpt lat="46.45117" lon="5.34105">
        <ele>260.2</ele>
        <time>2022-08-09T11:44:42Z</time>
      </trkpt>
      <trkpt lat="46.45063" lon="5.34115">
        <ele>260.4</ele>
        <time>2022-08-09T11:44:51Z</time>
      </trkpt>
      <trkpt lat="46.45027" lon="5.34117">
        <ele>260</ele>
        <time>2022-08-09T11:44:56Z</time>
      </trkpt>
      <trkpt lat="46.44978" lon="5.34109">
        <ele>258.6</ele>
        <time>2022-08-09T11:45:02Z</time>
      </trkpt>
      <trkpt lat="46.44945" lon="5.341">
        <ele>257.4</ele>
        <time>2022-08-09T11:45:06Z</time>
      </trkpt>
      <trkpt lat="46.4491" lon="5.3409">
        <ele>256.2</ele>
        <time>2022-08-09T11:45:10Z</time>
      </trkpt>
      <trkpt lat="46.44873" lon="5.34085">
        <ele>254.8</ele>
        <time>2022-08-09T11:45:14Z</time>
      </trkpt>
      <trkpt lat="46.44863" lon="5.34086">
        <ele>254.6</ele>
        <time>2022-08-09T11:45:15Z</time>
      </trkpt>
      <trkpt lat="46.44845" lon="5.34093">
        <ele>253.8</ele>
        <time>2022-08-09T11:45:17Z</time>
      </trkpt>
      <trkpt lat="46.44836" lon="5.34098">
        <ele>253.4</ele>
        <time>2022-08-09T11:45:18Z</time>
      </trkpt>
      <trkpt lat="46.44828" lon="5.34106">
        <ele>253.2</ele>
        <time>2022-08-09T11:45:19Z</time>
      </trkpt>
      <trkpt lat="46.44813" lon="5.34124">
        <ele>252.4</ele>
        <time>2022-08-09T11:45:21Z</time>
      </trkpt>
      <trkpt lat="46.4479" lon="5.34169">
        <ele>251.2</ele>
        <time>2022-08-09T11:45:25Z</time>
      </trkpt>
      <trkpt lat="46.44785" lon="5.34182">
        <ele>251</ele>
        <time>2022-08-09T11:45:26Z</time>
      </trkpt>
      <trkpt lat="46.44774" lon="5.34206">
        <ele>250.2</ele>
        <time>2022-08-09T11:45:28Z</time>
      </trkpt>
      <trkpt lat="46.44756" lon="5.3424">
        <ele>249.2</ele>
        <time>2022-08-09T11:45:31Z</time>
      </trkpt>
      <trkpt lat="46.44748" lon="5.3425">
        <ele>248.6</ele>
        <time>2022-08-09T11:45:32Z</time>
      </trkpt>
      <trkpt lat="46.44732" lon="5.34266">
        <ele>248</ele>
        <time>2022-08-09T11:45:34Z</time>
      </trkpt>
      <trkpt lat="46.44723" lon="5.34272">
        <ele>247.6</ele>
        <time>2022-08-09T11:45:35Z</time>
      </trkpt>
      <trkpt lat="46.44714" lon="5.34277">
        <ele>247.4</ele>
        <time>2022-08-09T11:45:36Z</time>
      </trkpt>
      <trkpt lat="46.44696" lon="5.34278">
        <ele>246.6</ele>
        <time>2022-08-09T11:45:38Z</time>
      </trkpt>
      <trkpt lat="46.44681" lon="5.34277">
        <ele>245</ele>
        <time>2022-08-09T11:45:40Z</time>
      </trkpt>
      <trkpt lat="46.44669" lon="5.34284">
        <ele>244</ele>
        <time>2022-08-09T11:45:42Z</time>
      </trkpt>
      <trkpt lat="46.44665" lon="5.34288">
        <ele>244</ele>
        <time>2022-08-09T11:45:43Z</time>
      </trkpt>
      <trkpt lat="46.44661" lon="5.34293">
        <ele>242.8</ele>
        <time>2022-08-09T11:45:45Z</time>
      </trkpt>
      <trkpt lat="46.4466" lon="5.34294">
        <ele>242.4</ele>
        <time>2022-08-09T11:45:46Z</time>
      </trkpt>
      <trkpt lat="46.44658" lon="5.34297">
        <ele>241.4</ele>
        <time>2022-08-09T11:45:49Z</time>
      </trkpt>
      <trkpt lat="46.44658" lon="5.34297">
        <ele>241</ele>
        <time>2022-08-09T11:45:50Z</time>
      </trkpt>
      <trkpt lat="46.44653" lon="5.34301">
        <ele>239.6</ele>
        <time>2022-08-09T11:45:57Z</time>
      </trkpt>
      <trkpt lat="46.44645" lon="5.34299">
        <ele>239.6</ele>
        <time>2022-08-09T11:45:59Z</time>
      </trkpt>
      <trkpt lat="46.44626" lon="5.34283">
        <ele>239</ele>
        <time>2022-08-09T11:46:03Z</time>
      </trkpt>
      <trkpt lat="46.44591" lon="5.34255">
        <ele>239</ele>
        <time>2022-08-09T11:46:09Z</time>
      </trkpt>
      <trkpt lat="46.44585" lon="5.34252">
        <ele>238.8</ele>
        <time>2022-08-09T11:46:10Z</time>
      </trkpt>
      <trkpt lat="46.4457" lon="5.34246">
        <ele>238.6</ele>
        <time>2022-08-09T11:46:12Z</time>
      </trkpt>
      <trkpt lat="46.44538" lon="5.34239">
        <ele>238.4</ele>
        <time>2022-08-09T11:46:16Z</time>
      </trkpt>
      <trkpt lat="46.4451" lon="5.34235">
        <ele>237.6</ele>
        <time>2022-08-09T11:46:19Z</time>
      </trkpt>
      <trkpt lat="46.44478" lon="5.34234">
        <ele>236.8</ele>
        <time>2022-08-09T11:46:23Z</time>
      </trkpt>
      <trkpt lat="46.44433" lon="5.34242">
        <ele>236.6</ele>
        <time>2022-08-09T11:46:29Z</time>
      </trkpt>
      <trkpt lat="46.44391" lon="5.34251">
        <ele>237.4</ele>
        <time>2022-08-09T11:46:36Z</time>
      </trkpt>
      <trkpt lat="46.44364" lon="5.34257">
        <ele>238.4</ele>
        <time>2022-08-09T11:46:41Z</time>
      </trkpt>
      <trkpt lat="46.44354" lon="5.34259">
        <ele>238.8</ele>
        <time>2022-08-09T11:46:43Z</time>
      </trkpt>
      <trkpt lat="46.44311" lon="5.34263">
        <ele>239.4</ele>
        <time>2022-08-09T11:46:51Z</time>
      </trkpt>
      <trkpt lat="46.44283" lon="5.34263">
        <ele>239.8</ele>
        <time>2022-08-09T11:46:56Z</time>
      </trkpt>
      <trkpt lat="46.44251" lon="5.34262">
        <ele>240</ele>
        <time>2022-08-09T11:47:01Z</time>
      </trkpt>
      <trkpt lat="46.44195" lon="5.34261">
        <ele>240.2</ele>
        <time>2022-08-09T11:47:10Z</time>
      </trkpt>
      <trkpt lat="46.44189" lon="5.34261">
        <ele>240.4</ele>
        <time>2022-08-09T11:47:11Z</time>
      </trkpt>
      <trkpt lat="46.44178" lon="5.34259">
        <ele>240.4</ele>
        <time>2022-08-09T11:47:13Z</time>
      </trkpt>
      <trkpt lat="46.44162" lon="5.34253">
        <ele>240.6</ele>
        <time>2022-08-09T11:47:16Z</time>
      </trkpt>
      <trkpt lat="46.44152" lon="5.34249">
        <ele>240.8</ele>
        <time>2022-08-09T11:47:18Z</time>
      </trkpt>
      <trkpt lat="46.44141" lon="5.34251">
        <ele>241</ele>
        <time>2022-08-09T11:47:20Z</time>
      </trkpt>
      <trkpt lat="46.44132" lon="5.34257">
        <ele>241.2</ele>
        <time>2022-08-09T11:47:22Z</time>
      </trkpt>
      <trkpt lat="46.44127" lon="5.34259">
        <ele>241.4</ele>
        <time>2022-08-09T11:47:23Z</time>
      </trkpt>
      <trkpt lat="46.44117" lon="5.3426">
        <ele>241.6</ele>
        <time>2022-08-09T11:47:25Z</time>
      </trkpt>
      <trkpt lat="46.44097" lon="5.34262">
        <ele>242.6</ele>
        <time>2022-08-09T11:47:29Z</time>
      </trkpt>
      <trkpt lat="46.44088" lon="5.34262">
        <ele>243</ele>
        <time>2022-08-09T11:47:31Z</time>
      </trkpt>
      <trkpt lat="46.44067" lon="5.34262">
        <ele>243.8</ele>
        <time>2022-08-09T11:47:36Z</time>
      </trkpt>
      <trkpt lat="46.44054" lon="5.34261">
        <ele>244.2</ele>
        <time>2022-08-09T11:47:39Z</time>
      </trkpt>
      <trkpt lat="46.44038" lon="5.34262">
        <ele>244.8</ele>
        <time>2022-08-09T11:47:43Z</time>
      </trkpt>
      <trkpt lat="46.44018" lon="5.34265">
        <ele>243.6</ele>
        <time>2022-08-09T11:47:48Z</time>
      </trkpt>
      <trkpt lat="46.44014" lon="5.34266">
        <ele>246</ele>
        <time>2022-08-09T11:47:49Z</time>
      </trkpt>
      <trkpt lat="46.4399" lon="5.34277">
        <ele>247</ele>
        <time>2022-08-09T11:47:55Z</time>
      </trkpt>
      <trkpt lat="46.43979" lon="5.34285">
        <ele>247.4</ele>
        <time>2022-08-09T11:47:58Z</time>
      </trkpt>
      <trkpt lat="46.43975" lon="5.34288">
        <ele>247.4</ele>
        <time>2022-08-09T11:47:59Z</time>
      </trkpt>
      <trkpt lat="46.43959" lon="5.34303">
        <ele>248.2</ele>
        <time>2022-08-09T11:48:04Z</time>
      </trkpt>
      <trkpt lat="46.4395" lon="5.34312">
        <ele>249</ele>
        <time>2022-08-09T11:48:07Z</time>
      </trkpt>
      <trkpt lat="46.43943" lon="5.34317">
        <ele>249.4</ele>
        <time>2022-08-09T11:48:09Z</time>
      </trkpt>
      <trkpt lat="46.43923" lon="5.34337">
        <ele>250.6</ele>
        <time>2022-08-09T11:48:16Z</time>
      </trkpt>
      <trkpt lat="46.4392" lon="5.34339">
        <ele>250.6</ele>
        <time>2022-08-09T11:48:17Z</time>
      </trkpt>
      <trkpt lat="46.43908" lon="5.3435">
        <ele>251.6</ele>
        <time>2022-08-09T11:48:21Z</time>
      </trkpt>
      <trkpt lat="46.43893" lon="5.34363">
        <ele>252.8</ele>
        <time>2022-08-09T11:48:26Z</time>
      </trkpt>
      <trkpt lat="46.43877" lon="5.34373">
        <ele>254</ele>
        <time>2022-08-09T11:48:31Z</time>
      </trkpt>
      <trkpt lat="46.43873" lon="5.34375">
        <ele>254</ele>
        <time>2022-08-09T11:48:32Z</time>
      </trkpt>
      <trkpt lat="46.43859" lon="5.3438">
        <ele>255</ele>
        <time>2022-08-09T11:48:36Z</time>
      </trkpt>
      <trkpt lat="46.4384" lon="5.34382">
        <ele>255.6</ele>
        <time>2022-08-09T11:48:41Z</time>
      </trkpt>
      <trkpt lat="46.43827" lon="5.34384">
        <ele>256</ele>
        <time>2022-08-09T11:48:44Z</time>
      </trkpt>
      <trkpt lat="46.43798" lon="5.34388">
        <ele>256.8</ele>
        <time>2022-08-09T11:48:51Z</time>
      </trkpt>
      <trkpt lat="46.43793" lon="5.34388">
        <ele>256.8</ele>
        <time>2022-08-09T11:48:52Z</time>
      </trkpt>
      <trkpt lat="46.43773" lon="5.3439">
        <ele>257</ele>
        <time>2022-08-09T11:48:56Z</time>
      </trkpt>
      <trkpt lat="46.43757" lon="5.34394">
        <ele>257.2</ele>
        <time>2022-08-09T11:48:59Z</time>
      </trkpt>
      <trkpt lat="46.43715" lon="5.34404">
        <ele>257.8</ele>
        <time>2022-08-09T11:49:07Z</time>
      </trkpt>
      <trkpt lat="46.43694" lon="5.34411">
        <ele>258.2</ele>
        <time>2022-08-09T11:49:11Z</time>
      </trkpt>
      <trkpt lat="46.4366" lon="5.34421">
        <ele>258.4</ele>
        <time>2022-08-09T11:49:17Z</time>
      </trkpt>
      <trkpt lat="46.43619" lon="5.3444">
        <ele>257.8</ele>
        <time>2022-08-09T11:49:23Z</time>
      </trkpt>
      <trkpt lat="46.43604" lon="5.34451">
        <ele>257.2</ele>
        <time>2022-08-09T11:49:25Z</time>
      </trkpt>
      <trkpt lat="46.43595" lon="5.34455">
        <ele>257</ele>
        <time>2022-08-09T11:49:26Z</time>
      </trkpt>
      <trkpt lat="46.43587" lon="5.34459">
        <ele>256.8</ele>
        <time>2022-08-09T11:49:27Z</time>
      </trkpt>
      <trkpt lat="46.4356" lon="5.34468">
        <ele>256</ele>
        <time>2022-08-09T11:49:30Z</time>
      </trkpt>
      <trkpt lat="46.43552" lon="5.34473">
        <ele>255.4</ele>
        <time>2022-08-09T11:49:31Z</time>
      </trkpt>
      <trkpt lat="46.43543" lon="5.34479">
        <ele>254.8</ele>
        <time>2022-08-09T11:49:32Z</time>
      </trkpt>
      <trkpt lat="46.43528" lon="5.34493">
        <ele>253.6</ele>
        <time>2022-08-09T11:49:34Z</time>
      </trkpt>
      <trkpt lat="46.43513" lon="5.34508">
        <ele>252.6</ele>
        <time>2022-08-09T11:49:36Z</time>
      </trkpt>
      <trkpt lat="46.43484" lon="5.34536">
        <ele>251.4</ele>
        <time>2022-08-09T11:49:40Z</time>
      </trkpt>
      <trkpt lat="46.43477" lon="5.34542">
        <ele>251.2</ele>
        <time>2022-08-09T11:49:41Z</time>
      </trkpt>
      <trkpt lat="46.43451" lon="5.34557">
        <ele>250.6</ele>
        <time>2022-08-09T11:49:45Z</time>
      </trkpt>
      <trkpt lat="46.43447" lon="5.34558">
        <ele>250.8</ele>
        <time>2022-08-09T11:49:46Z</time>
      </trkpt>
      <trkpt lat="46.43437" lon="5.34557">
        <ele>250.8</ele>
        <time>2022-08-09T11:49:48Z</time>
      </trkpt>
      <trkpt lat="46.43409" lon="5.34543">
        <ele>252</ele>
        <time>2022-08-09T11:49:54Z</time>
      </trkpt>
      <trkpt lat="46.43396" lon="5.34536">
        <ele>252.4</ele>
        <time>2022-08-09T11:49:57Z</time>
      </trkpt>
      <trkpt lat="46.43379" lon="5.34528">
        <ele>253.4</ele>
        <time>2022-08-09T11:50:01Z</time>
      </trkpt>
      <trkpt lat="46.43371" lon="5.34526">
        <ele>253.8</ele>
        <time>2022-08-09T11:50:03Z</time>
      </trkpt>
      <trkpt lat="46.4336" lon="5.34522">
        <ele>254.6</ele>
        <time>2022-08-09T11:50:06Z</time>
      </trkpt>
      <trkpt lat="46.43353" lon="5.3452">
        <ele>255</ele>
        <time>2022-08-09T11:50:08Z</time>
      </trkpt>
      <trkpt lat="46.43343" lon="5.34517">
        <ele>256</ele>
        <time>2022-08-09T11:50:11Z</time>
      </trkpt>
      <trkpt lat="46.43335" lon="5.34514">
        <ele>256.6</ele>
        <time>2022-08-09T11:50:13Z</time>
      </trkpt>
      <trkpt lat="46.43326" lon="5.34512">
        <ele>257</ele>
        <time>2022-08-09T11:50:15Z</time>
      </trkpt>
      <trkpt lat="46.43305" lon="5.34511">
        <ele>257.8</ele>
        <time>2022-08-09T11:50:20Z</time>
      </trkpt>
      <trkpt lat="46.43297" lon="5.34511">
        <ele>258.2</ele>
        <time>2022-08-09T11:50:22Z</time>
      </trkpt>
      <trkpt lat="46.43289" lon="5.34513">
        <ele>259.2</ele>
        <time>2022-08-09T11:50:24Z</time>
      </trkpt>
      <trkpt lat="46.43285" lon="5.34513">
        <ele>259.4</ele>
        <time>2022-08-09T11:50:25Z</time>
      </trkpt>
      <trkpt lat="46.43269" lon="5.34519">
        <ele>260.2</ele>
        <time>2022-08-09T11:50:29Z</time>
      </trkpt>
      <trkpt lat="46.43261" lon="5.34523">
        <ele>261</ele>
        <time>2022-08-09T11:50:31Z</time>
      </trkpt>
      <trkpt lat="46.43253" lon="5.34528">
        <ele>261.4</ele>
        <time>2022-08-09T11:50:33Z</time>
      </trkpt>
      <trkpt lat="46.43239" lon="5.3454">
        <ele>262.6</ele>
        <time>2022-08-09T11:50:37Z</time>
      </trkpt>
      <trkpt lat="46.43226" lon="5.34552">
        <ele>263</ele>
        <time>2022-08-09T11:50:41Z</time>
      </trkpt>
      <trkpt lat="46.43213" lon="5.34565">
        <ele>263.6</ele>
        <time>2022-08-09T11:50:45Z</time>
      </trkpt>
      <trkpt lat="46.43189" lon="5.3459">
        <ele>264.4</ele>
        <time>2022-08-09T11:50:53Z</time>
      </trkpt>
      <trkpt lat="46.43186" lon="5.34593">
        <ele>264.8</ele>
        <time>2022-08-09T11:50:54Z</time>
      </trkpt>
      <trkpt lat="46.43167" lon="5.3461">
        <ele>265.8</ele>
        <time>2022-08-09T11:51:00Z</time>
      </trkpt>
      <trkpt lat="46.43152" lon="5.34625">
        <ele>266.6</ele>
        <time>2022-08-09T11:51:05Z</time>
      </trkpt>
      <trkpt lat="46.43149" lon="5.34628">
        <ele>266.8</ele>
        <time>2022-08-09T11:51:06Z</time>
      </trkpt>
      <trkpt lat="46.43127" lon="5.3465">
        <ele>268</ele>
        <time>2022-08-09T11:51:13Z</time>
      </trkpt>
      <trkpt lat="46.43114" lon="5.34664">
        <ele>268.6</ele>
        <time>2022-08-09T11:51:17Z</time>
      </trkpt>
      <trkpt lat="46.43111" lon="5.34679">
        <ele>269.2</ele>
        <time>2022-08-09T11:51:20Z</time>
      </trkpt>
      <trkpt lat="46.43117" lon="5.34707">
        <ele>270</ele>
        <time>2022-08-09T11:51:25Z</time>
      </trkpt>
      <trkpt lat="46.43117" lon="5.34718">
        <ele>270.2</ele>
        <time>2022-08-09T11:51:27Z</time>
      </trkpt>
      <trkpt lat="46.43118" lon="5.34746">
        <ele>271.2</ele>
        <time>2022-08-09T11:51:32Z</time>
      </trkpt>
      <trkpt lat="46.43118" lon="5.34752">
        <ele>271.4</ele>
        <time>2022-08-09T11:51:33Z</time>
      </trkpt>
      <trkpt lat="46.43119" lon="5.34773">
        <ele>272.2</ele>
        <time>2022-08-09T11:51:37Z</time>
      </trkpt>
      <trkpt lat="46.4312" lon="5.34805">
        <ele>273.2</ele>
        <time>2022-08-09T11:51:43Z</time>
      </trkpt>
      <trkpt lat="46.4312" lon="5.34815">
        <ele>273.4</ele>
        <time>2022-08-09T11:51:45Z</time>
      </trkpt>
      <trkpt lat="46.43121" lon="5.34834">
        <ele>273.8</ele>
        <time>2022-08-09T11:51:49Z</time>
      </trkpt>
      <trkpt lat="46.43121" lon="5.34844">
        <ele>274.2</ele>
        <time>2022-08-09T11:51:51Z</time>
      </trkpt>
      <trkpt lat="46.43121" lon="5.34849">
        <ele>274.4</ele>
        <time>2022-08-09T11:51:52Z</time>
      </trkpt>
      <trkpt lat="46.43122" lon="5.34873">
        <ele>275.4</ele>
        <time>2022-08-09T11:51:57Z</time>
      </trkpt>
      <trkpt lat="46.43123" lon="5.34892">
        <ele>276</ele>
        <time>2022-08-09T11:52:01Z</time>
      </trkpt>
      <trkpt lat="46.43124" lon="5.34907">
        <ele>276.8</ele>
        <time>2022-08-09T11:52:04Z</time>
      </trkpt>
      <trkpt lat="46.43125" lon="5.3493">
        <ele>278</ele>
        <time>2022-08-09T11:52:09Z</time>
      </trkpt>
      <trkpt lat="46.43126" lon="5.34939">
        <ele>278.4</ele>
        <time>2022-08-09T11:52:11Z</time>
      </trkpt>
      <trkpt lat="46.43128" lon="5.34956">
        <ele>279.2</ele>
        <time>2022-08-09T11:52:15Z</time>
      </trkpt>
      <trkpt lat="46.43132" lon="5.34982">
        <ele>280.2</ele>
        <time>2022-08-09T11:52:21Z</time>
      </trkpt>
      <trkpt lat="46.43136" lon="5.35008">
        <ele>281.2</ele>
        <time>2022-08-09T11:52:27Z</time>
      </trkpt>
      <trkpt lat="46.43138" lon="5.35021">
        <ele>281.8</ele>
        <time>2022-08-09T11:52:30Z</time>
      </trkpt>
      <trkpt lat="46.43141" lon="5.35038">
        <ele>282.4</ele>
        <time>2022-08-09T11:52:34Z</time>
      </trkpt>
      <trkpt lat="46.43143" lon="5.3506">
        <ele>283.4</ele>
        <time>2022-08-09T11:52:39Z</time>
      </trkpt>
      <trkpt lat="46.43143" lon="5.35065">
        <ele>283.6</ele>
        <time>2022-08-09T11:52:40Z</time>
      </trkpt>
      <trkpt lat="46.43142" lon="5.35089">
        <ele>284.6</ele>
        <time>2022-08-09T11:52:45Z</time>
      </trkpt>
      <trkpt lat="46.43139" lon="5.35119">
        <ele>285.6</ele>
        <time>2022-08-09T11:52:51Z</time>
      </trkpt>
      <trkpt lat="46.43139" lon="5.35145">
        <ele>286.6</ele>
        <time>2022-08-09T11:52:56Z</time>
      </trkpt>
      <trkpt lat="46.43141" lon="5.35161">
        <ele>287</ele>
        <time>2022-08-09T11:52:59Z</time>
      </trkpt>
      <trkpt lat="46.43147" lon="5.35199">
        <ele>287.6</ele>
        <time>2022-08-09T11:53:05Z</time>
      </trkpt>
      <trkpt lat="46.4315" lon="5.35233">
        <ele>287.6</ele>
        <time>2022-08-09T11:53:10Z</time>
      </trkpt>
      <trkpt lat="46.4315" lon="5.3524">
        <ele>287.8</ele>
        <time>2022-08-09T11:53:11Z</time>
      </trkpt>
      <trkpt lat="46.43152" lon="5.35303">
        <ele>287.8</ele>
        <time>2022-08-09T11:53:20Z</time>
      </trkpt>
      <trkpt lat="46.43153" lon="5.35324">
        <ele>288</ele>
        <time>2022-08-09T11:53:23Z</time>
      </trkpt>
      <trkpt lat="46.43152" lon="5.35348">
        <ele>288.2</ele>
        <time>2022-08-09T11:53:27Z</time>
      </trkpt>
      <trkpt lat="46.43152" lon="5.35371">
        <ele>288.8</ele>
        <time>2022-08-09T11:53:30Z</time>
      </trkpt>
      <trkpt lat="46.43152" lon="5.35384">
        <ele>289.2</ele>
        <time>2022-08-09T11:53:32Z</time>
      </trkpt>
      <trkpt lat="46.43153" lon="5.35416">
        <ele>290</ele>
        <time>2022-08-09T11:53:38Z</time>
      </trkpt>
      <trkpt lat="46.43153" lon="5.3542">
        <ele>290.2</ele>
        <time>2022-08-09T11:53:39Z</time>
      </trkpt>
      <trkpt lat="46.43154" lon="5.35436">
        <ele>291.4</ele>
        <time>2022-08-09T11:53:43Z</time>
      </trkpt>
      <trkpt lat="46.43155" lon="5.35444">
        <ele>292.2</ele>
        <time>2022-08-09T11:53:45Z</time>
      </trkpt>
      <trkpt lat="46.43155" lon="5.35447">
        <ele>292.8</ele>
        <time>2022-08-09T11:53:46Z</time>
      </trkpt>
      <trkpt lat="46.43158" lon="5.35463">
        <ele>294.2</ele>
        <time>2022-08-09T11:53:50Z</time>
      </trkpt>
      <trkpt lat="46.43161" lon="5.35479">
        <ele>295.4</ele>
        <time>2022-08-09T11:53:54Z</time>
      </trkpt>
      <trkpt lat="46.43164" lon="5.35492">
        <ele>296.4</ele>
        <time>2022-08-09T11:53:57Z</time>
      </trkpt>
      <trkpt lat="46.43165" lon="5.35495">
        <ele>297</ele>
        <time>2022-08-09T11:53:58Z</time>
      </trkpt>
      <trkpt lat="46.43166" lon="5.35503">
        <ele>297.4</ele>
        <time>2022-08-09T11:54:00Z</time>
      </trkpt>
      <trkpt lat="46.43169" lon="5.35518">
        <ele>298.6</ele>
        <time>2022-08-09T11:54:04Z</time>
      </trkpt>
      <trkpt lat="46.43171" lon="5.35525">
        <ele>299.2</ele>
        <time>2022-08-09T11:54:06Z</time>
      </trkpt>
      <trkpt lat="46.43174" lon="5.35535">
        <ele>299.8</ele>
        <time>2022-08-09T11:54:09Z</time>
      </trkpt>
      <trkpt lat="46.43176" lon="5.35541">
        <ele>300.8</ele>
        <time>2022-08-09T11:54:11Z</time>
      </trkpt>
      <trkpt lat="46.43178" lon="5.35553">
        <ele>302</ele>
        <time>2022-08-09T11:54:15Z</time>
      </trkpt>
      <trkpt lat="46.43179" lon="5.35556">
        <ele>302.4</ele>
        <time>2022-08-09T11:54:16Z</time>
      </trkpt>
      <trkpt lat="46.4318" lon="5.35561">
        <ele>303</ele>
        <time>2022-08-09T11:54:18Z</time>
      </trkpt>
      <trkpt lat="46.43182" lon="5.35571">
        <ele>304</ele>
        <time>2022-08-09T11:54:21Z</time>
      </trkpt>
      <trkpt lat="46.43181" lon="5.35578">
        <ele>304.6</ele>
        <time>2022-08-09T11:54:23Z</time>
      </trkpt>
      <trkpt lat="46.43181" lon="5.35585">
        <ele>305.2</ele>
        <time>2022-08-09T11:54:25Z</time>
      </trkpt>
      <trkpt lat="46.43181" lon="5.35596">
        <ele>306.2</ele>
        <time>2022-08-09T11:54:28Z</time>
      </trkpt>
      <trkpt lat="46.43181" lon="5.35606">
        <ele>306.8</ele>
        <time>2022-08-09T11:54:31Z</time>
      </trkpt>
      <trkpt lat="46.43179" lon="5.35617">
        <ele>307.2</ele>
        <time>2022-08-09T11:54:34Z</time>
      </trkpt>
      <trkpt lat="46.43176" lon="5.35633">
        <ele>308.4</ele>
        <time>2022-08-09T11:54:39Z</time>
      </trkpt>
      <trkpt lat="46.43175" lon="5.35636">
        <ele>308.4</ele>
        <time>2022-08-09T11:54:40Z</time>
      </trkpt>
      <trkpt lat="46.43171" lon="5.35652">
        <ele>309.4</ele>
        <time>2022-08-09T11:54:45Z</time>
      </trkpt>
      <trkpt lat="46.43167" lon="5.35661">
        <ele>310</ele>
        <time>2022-08-09T11:54:48Z</time>
      </trkpt>
      <trkpt lat="46.43166" lon="5.35663">
        <ele>310.4</ele>
        <time>2022-08-09T11:54:49Z</time>
      </trkpt>
      <trkpt lat="46.43151" lon="5.35678">
        <ele>311.4</ele>
        <time>2022-08-09T11:54:56Z</time>
      </trkpt>
      <trkpt lat="46.43145" lon="5.35681">
        <ele>311.6</ele>
        <time>2022-08-09T11:54:58Z</time>
      </trkpt>
      <trkpt lat="46.4313" lon="5.35683">
        <ele>312.8</ele>
        <time>2022-08-09T11:55:03Z</time>
      </trkpt>
      <trkpt lat="46.43103" lon="5.35679">
        <ele>313.6</ele>
        <time>2022-08-09T11:55:10Z</time>
      </trkpt>
      <trkpt lat="46.4309" lon="5.35675">
        <ele>314</ele>
        <time>2022-08-09T11:55:13Z</time>
      </trkpt>
      <trkpt lat="46.43081" lon="5.35673">
        <ele>314.2</ele>
        <time>2022-08-09T11:55:15Z</time>
      </trkpt>
      <trkpt lat="46.43036" lon="5.35662">
        <ele>314.4</ele>
        <time>2022-08-09T11:55:24Z</time>
      </trkpt>
      <trkpt lat="46.43004" lon="5.35655">
        <ele>315</ele>
        <time>2022-08-09T11:55:31Z</time>
      </trkpt>
      <trkpt lat="46.43" lon="5.35655">
        <ele>315.2</ele>
        <time>2022-08-09T11:55:32Z</time>
      </trkpt>
      <trkpt lat="46.42993" lon="5.35656">
        <ele>315.4</ele>
        <time>2022-08-09T11:55:34Z</time>
      </trkpt>
      <trkpt lat="46.42985" lon="5.35658">
        <ele>315.6</ele>
        <time>2022-08-09T11:55:36Z</time>
      </trkpt>
      <trkpt lat="46.42978" lon="5.35663">
        <ele>316.4</ele>
        <time>2022-08-09T11:55:38Z</time>
      </trkpt>
      <trkpt lat="46.42969" lon="5.35676">
        <ele>317.4</ele>
        <time>2022-08-09T11:55:42Z</time>
      </trkpt>
      <trkpt lat="46.42967" lon="5.3568">
        <ele>317.8</ele>
        <time>2022-08-09T11:55:43Z</time>
      </trkpt>
      <trkpt lat="46.42963" lon="5.35693">
        <ele>318.4</ele>
        <time>2022-08-09T11:55:46Z</time>
      </trkpt>
      <trkpt lat="46.42961" lon="5.35709">
        <ele>319.4</ele>
        <time>2022-08-09T11:55:49Z</time>
      </trkpt>
      <trkpt lat="46.4296" lon="5.35714">
        <ele>319.6</ele>
        <time>2022-08-09T11:55:50Z</time>
      </trkpt>
      <trkpt lat="46.42961" lon="5.35729">
        <ele>320.8</ele>
        <time>2022-08-09T11:55:53Z</time>
      </trkpt>
      <trkpt lat="46.42964" lon="5.35742">
        <ele>321.6</ele>
        <time>2022-08-09T11:55:56Z</time>
      </trkpt>
      <trkpt lat="46.42965" lon="5.35746">
        <ele>321.8</ele>
        <time>2022-08-09T11:55:57Z</time>
      </trkpt>
      <trkpt lat="46.42974" lon="5.35759">
        <ele>322.8</ele>
        <time>2022-08-09T11:56:01Z</time>
      </trkpt>
      <trkpt lat="46.42977" lon="5.35761">
        <ele>323</ele>
        <time>2022-08-09T11:56:02Z</time>
      </trkpt>
      <trkpt lat="46.42992" lon="5.35773">
        <ele>324</ele>
        <time>2022-08-09T11:56:07Z</time>
      </trkpt>
      <trkpt lat="46.43001" lon="5.3578">
        <ele>324.4</ele>
        <time>2022-08-09T11:56:10Z</time>
      </trkpt>
      <trkpt lat="46.43014" lon="5.35798">
        <ele>325.2</ele>
        <time>2022-08-09T11:56:15Z</time>
      </trkpt>
      <trkpt lat="46.43015" lon="5.35803">
        <ele>325.2</ele>
        <time>2022-08-09T11:56:16Z</time>
      </trkpt>
      <trkpt lat="46.43017" lon="5.35826">
        <ele>325.8</ele>
        <time>2022-08-09T11:56:21Z</time>
      </trkpt>
      <trkpt lat="46.43013" lon="5.35839">
        <ele>326.2</ele>
        <time>2022-08-09T11:56:24Z</time>
      </trkpt>
      <trkpt lat="46.43009" lon="5.35845">
        <ele>326.6</ele>
        <time>2022-08-09T11:56:26Z</time>
      </trkpt>
      <trkpt lat="46.42998" lon="5.35854">
        <ele>327.4</ele>
        <time>2022-08-09T11:56:30Z</time>
      </trkpt>
      <trkpt lat="46.42992" lon="5.35857">
        <ele>327.6</ele>
        <time>2022-08-09T11:56:32Z</time>
      </trkpt>
      <trkpt lat="46.42977" lon="5.35859">
        <ele>328.6</ele>
        <time>2022-08-09T11:56:37Z</time>
      </trkpt>
      <trkpt lat="46.42973" lon="5.3586">
        <ele>328.6</ele>
        <time>2022-08-09T11:56:38Z</time>
      </trkpt>
      <trkpt lat="46.42954" lon="5.35861">
        <ele>329.8</ele>
        <time>2022-08-09T11:56:44Z</time>
      </trkpt>
      <trkpt lat="46.42937" lon="5.35864">
        <ele>330.8</ele>
        <time>2022-08-09T11:56:49Z</time>
      </trkpt>
      <trkpt lat="46.42934" lon="5.35864">
        <ele>330.8</ele>
        <time>2022-08-09T11:56:50Z</time>
      </trkpt>
      <trkpt lat="46.42912" lon="5.35867">
        <ele>332</ele>
        <time>2022-08-09T11:56:57Z</time>
      </trkpt>
      <trkpt lat="46.42909" lon="5.35867">
        <ele>332.2</ele>
        <time>2022-08-09T11:56:58Z</time>
      </trkpt>
      <trkpt lat="46.42894" lon="5.35868">
        <ele>333</ele>
        <time>2022-08-09T11:57:03Z</time>
      </trkpt>
      <trkpt lat="46.42881" lon="5.35871">
        <ele>334.2</ele>
        <time>2022-08-09T11:57:07Z</time>
      </trkpt>
      <trkpt lat="46.42877" lon="5.35872">
        <ele>334.4</ele>
        <time>2022-08-09T11:57:08Z</time>
      </trkpt>
      <trkpt lat="46.4286" lon="5.35874">
        <ele>335.4</ele>
        <time>2022-08-09T11:57:13Z</time>
      </trkpt>
      <trkpt lat="46.42844" lon="5.35876">
        <ele>336</ele>
        <time>2022-08-09T11:57:18Z</time>
      </trkpt>
      <trkpt lat="46.42834" lon="5.35877">
        <ele>336.4</ele>
        <time>2022-08-09T11:57:21Z</time>
      </trkpt>
      <trkpt lat="46.42818" lon="5.35876">
        <ele>337.6</ele>
        <time>2022-08-09T11:57:26Z</time>
      </trkpt>
      <trkpt lat="46.42791" lon="5.35875">
        <ele>339</ele>
        <time>2022-08-09T11:57:34Z</time>
      </trkpt>
      <trkpt lat="46.42784" lon="5.35875">
        <ele>339.2</ele>
        <time>2022-08-09T11:57:36Z</time>
      </trkpt>
      <trkpt lat="46.42768" lon="5.35872">
        <ele>340.2</ele>
        <time>2022-08-09T11:57:41Z</time>
      </trkpt>
      <trkpt lat="46.42756" lon="5.35871">
        <ele>341</ele>
        <time>2022-08-09T11:57:45Z</time>
      </trkpt>
      <trkpt lat="46.42753" lon="5.3587">
        <ele>341.2</ele>
        <time>2022-08-09T11:57:46Z</time>
      </trkpt>
      <trkpt lat="46.42737" lon="5.35868">
        <ele>342.4</ele>
        <time>2022-08-09T11:57:51Z</time>
      </trkpt>
      <trkpt lat="46.42718" lon="5.35865">
        <ele>343.4</ele>
        <time>2022-08-09T11:57:57Z</time>
      </trkpt>
      <trkpt lat="46.42715" lon="5.35865">
        <ele>343.4</ele>
        <time>2022-08-09T11:57:58Z</time>
      </trkpt>
      <trkpt lat="46.42694" lon="5.35866">
        <ele>344.6</ele>
        <time>2022-08-09T11:58:05Z</time>
      </trkpt>
      <trkpt lat="46.42687" lon="5.35867">
        <ele>345</ele>
        <time>2022-08-09T11:58:07Z</time>
      </trkpt>
      <trkpt lat="46.42667" lon="5.35876">
        <ele>345.8</ele>
        <time>2022-08-09T11:58:14Z</time>
      </trkpt>
      <trkpt lat="46.42664" lon="5.35878">
        <ele>346</ele>
        <time>2022-08-09T11:58:15Z</time>
      </trkpt>
      <trkpt lat="46.42649" lon="5.35884">
        <ele>346.8</ele>
        <time>2022-08-09T11:58:20Z</time>
      </trkpt>
      <trkpt lat="46.42636" lon="5.35892">
        <ele>347.4</ele>
        <time>2022-08-09T11:58:24Z</time>
      </trkpt>
      <trkpt lat="46.42624" lon="5.359">
        <ele>348</ele>
        <time>2022-08-09T11:58:28Z</time>
      </trkpt>
      <trkpt lat="46.4261" lon="5.3591">
        <ele>348.4</ele>
        <time>2022-08-09T11:58:33Z</time>
      </trkpt>
      <trkpt lat="46.42592" lon="5.35924">
        <ele>349.2</ele>
        <time>2022-08-09T11:58:39Z</time>
      </trkpt>
      <trkpt lat="46.42583" lon="5.35933">
        <ele>349.8</ele>
        <time>2022-08-09T11:58:42Z</time>
      </trkpt>
      <trkpt lat="46.42574" lon="5.35948">
        <ele>350.4</ele>
        <time>2022-08-09T11:58:46Z</time>
      </trkpt>
      <trkpt lat="46.42572" lon="5.35957">
        <ele>350.6</ele>
        <time>2022-08-09T11:58:48Z</time>
      </trkpt>
      <trkpt lat="46.42573" lon="5.35974">
        <ele>351.2</ele>
        <time>2022-08-09T11:58:52Z</time>
      </trkpt>
      <trkpt lat="46.42581" lon="5.35981">
        <ele>351.4</ele>
        <time>2022-08-09T11:58:55Z</time>
      </trkpt>
      <trkpt lat="46.42584" lon="5.35982">
        <ele>351.8</ele>
        <time>2022-08-09T11:58:56Z</time>
      </trkpt>
      <trkpt lat="46.42596" lon="5.35983">
        <ele>352.6</ele>
        <time>2022-08-09T11:58:59Z</time>
      </trkpt>
      <trkpt lat="46.42611" lon="5.35983">
        <ele>353.6</ele>
        <time>2022-08-09T11:59:03Z</time>
      </trkpt>
      <trkpt lat="46.42614" lon="5.35983">
        <ele>353.8</ele>
        <time>2022-08-09T11:59:04Z</time>
      </trkpt>
      <trkpt lat="46.42629" lon="5.35984">
        <ele>354.6</ele>
        <time>2022-08-09T11:59:08Z</time>
      </trkpt>
      <trkpt lat="46.42649" lon="5.35988">
        <ele>356</ele>
        <time>2022-08-09T11:59:14Z</time>
      </trkpt>
      <trkpt lat="46.42665" lon="5.35994">
        <ele>357.2</ele>
        <time>2022-08-09T11:59:19Z</time>
      </trkpt>
      <trkpt lat="46.42677" lon="5.35999">
        <ele>358</ele>
        <time>2022-08-09T11:59:22Z</time>
      </trkpt>
      <trkpt lat="46.42689" lon="5.36005">
        <ele>358.2</ele>
        <time>2022-08-09T11:59:25Z</time>
      </trkpt>
      <trkpt lat="46.42703" lon="5.36015">
        <ele>359</ele>
        <time>2022-08-09T11:59:29Z</time>
      </trkpt>
      <trkpt lat="46.42714" lon="5.36022">
        <ele>359.4</ele>
        <time>2022-08-09T11:59:32Z</time>
      </trkpt>
      <trkpt lat="46.42731" lon="5.36034">
        <ele>360.4</ele>
        <time>2022-08-09T11:59:37Z</time>
      </trkpt>
      <trkpt lat="46.42735" lon="5.36037">
        <ele>360.6</ele>
        <time>2022-08-09T11:59:38Z</time>
      </trkpt>
      <trkpt lat="46.42751" lon="5.36048">
        <ele>361.8</ele>
        <time>2022-08-09T11:59:43Z</time>
      </trkpt>
      <trkpt lat="46.42763" lon="5.36057">
        <ele>362.4</ele>
        <time>2022-08-09T11:59:47Z</time>
      </trkpt>
      <trkpt lat="46.42773" lon="5.36064">
        <ele>362.8</ele>
        <time>2022-08-09T11:59:50Z</time>
      </trkpt>
      <trkpt lat="46.42787" lon="5.36076">
        <ele>363.8</ele>
        <time>2022-08-09T11:59:55Z</time>
      </trkpt>
      <trkpt lat="46.42807" lon="5.36092">
        <ele>365</ele>
        <time>2022-08-09T12:00:02Z</time>
      </trkpt>
      <trkpt lat="46.42813" lon="5.36096">
        <ele>365.2</ele>
        <time>2022-08-09T12:00:04Z</time>
      </trkpt>
      <trkpt lat="46.42824" lon="5.36107">
        <ele>366</ele>
        <time>2022-08-09T12:00:08Z</time>
      </trkpt>
      <trkpt lat="46.4283" lon="5.36112">
        <ele>366.2</ele>
        <time>2022-08-09T12:00:10Z</time>
      </trkpt>
      <trkpt lat="46.42851" lon="5.36133">
        <ele>367</ele>
        <time>2022-08-09T12:00:18Z</time>
      </trkpt>
      <trkpt lat="46.42859" lon="5.36142">
        <ele>367.8</ele>
        <time>2022-08-09T12:00:21Z</time>
      </trkpt>
      <trkpt lat="46.42864" lon="5.36147">
        <ele>368.2</ele>
        <time>2022-08-09T12:00:23Z</time>
      </trkpt>
      <trkpt lat="46.42883" lon="5.36168">
        <ele>369.4</ele>
        <time>2022-08-09T12:00:30Z</time>
      </trkpt>
      <trkpt lat="46.42888" lon="5.36174">
        <ele>369.6</ele>
        <time>2022-08-09T12:00:32Z</time>
      </trkpt>
      <trkpt lat="46.42899" lon="5.36192">
        <ele>370.6</ele>
        <time>2022-08-09T12:00:37Z</time>
      </trkpt>
      <trkpt lat="46.42904" lon="5.36206">
        <ele>370.8</ele>
        <time>2022-08-09T12:00:40Z</time>
      </trkpt>
      <trkpt lat="46.42908" lon="5.36229">
        <ele>371.6</ele>
        <time>2022-08-09T12:00:45Z</time>
      </trkpt>
      <trkpt lat="46.42909" lon="5.36238">
        <ele>372</ele>
        <time>2022-08-09T12:00:47Z</time>
      </trkpt>
      <trkpt lat="46.42911" lon="5.36262">
        <ele>372.8</ele>
        <time>2022-08-09T12:00:52Z</time>
      </trkpt>
      <trkpt lat="46.42913" lon="5.36291">
        <ele>373.8</ele>
        <time>2022-08-09T12:00:58Z</time>
      </trkpt>
      <trkpt lat="46.42915" lon="5.36325">
        <ele>375</ele>
        <time>2022-08-09T12:01:05Z</time>
      </trkpt>
      <trkpt lat="46.42918" lon="5.36339">
        <ele>375.6</ele>
        <time>2022-08-09T12:01:08Z</time>
      </trkpt>
      <trkpt lat="46.42922" lon="5.36353">
        <ele>376</ele>
        <time>2022-08-09T12:01:11Z</time>
      </trkpt>
      <trkpt lat="46.4293" lon="5.36371">
        <ele>376.6</ele>
        <time>2022-08-09T12:01:15Z</time>
      </trkpt>
      <trkpt lat="46.42934" lon="5.3638">
        <ele>377.2</ele>
        <time>2022-08-09T12:01:17Z</time>
      </trkpt>
      <trkpt lat="46.42947" lon="5.36398">
        <ele>378.4</ele>
        <time>2022-08-09T12:01:22Z</time>
      </trkpt>
      <trkpt lat="46.42963" lon="5.3641">
        <ele>379.6</ele>
        <time>2022-08-09T12:01:27Z</time>
      </trkpt>
      <trkpt lat="46.4297" lon="5.36413">
        <ele>380</ele>
        <time>2022-08-09T12:01:29Z</time>
      </trkpt>
      <trkpt lat="46.42988" lon="5.36416">
        <ele>380.8</ele>
        <time>2022-08-09T12:01:34Z</time>
      </trkpt>
      <trkpt lat="46.43002" lon="5.36417">
        <ele>381.6</ele>
        <time>2022-08-09T12:01:38Z</time>
      </trkpt>
      <trkpt lat="46.43005" lon="5.36417">
        <ele>382</ele>
        <time>2022-08-09T12:01:39Z</time>
      </trkpt>
      <trkpt lat="46.43024" lon="5.36419">
        <ele>383.2</ele>
        <time>2022-08-09T12:01:45Z</time>
      </trkpt>
      <trkpt lat="46.43027" lon="5.3642">
        <ele>383.6</ele>
        <time>2022-08-09T12:01:46Z</time>
      </trkpt>
      <trkpt lat="46.43041" lon="5.36422">
        <ele>384.4</ele>
        <time>2022-08-09T12:01:51Z</time>
      </trkpt>
      <trkpt lat="46.43047" lon="5.36423">
        <ele>384.8</ele>
        <time>2022-08-09T12:01:53Z</time>
      </trkpt>
      <trkpt lat="46.43059" lon="5.36426">
        <ele>385.6</ele>
        <time>2022-08-09T12:01:57Z</time>
      </trkpt>
      <trkpt lat="46.43071" lon="5.36428">
        <ele>386.2</ele>
        <time>2022-08-09T12:02:01Z</time>
      </trkpt>
      <trkpt lat="46.43074" lon="5.36429">
        <ele>386.6</ele>
        <time>2022-08-09T12:02:02Z</time>
      </trkpt>
      <trkpt lat="46.43094" lon="5.36437">
        <ele>387.6</ele>
        <time>2022-08-09T12:02:08Z</time>
      </trkpt>
      <trkpt lat="46.43097" lon="5.36439">
        <ele>387.8</ele>
        <time>2022-08-09T12:02:09Z</time>
      </trkpt>
      <trkpt lat="46.43107" lon="5.3646">
        <ele>388.6</ele>
        <time>2022-08-09T12:02:14Z</time>
      </trkpt>
      <trkpt lat="46.43108" lon="5.36466">
        <ele>388.6</ele>
        <time>2022-08-09T12:02:15Z</time>
      </trkpt>
      <trkpt lat="46.43111" lon="5.36493">
        <ele>389.2</ele>
        <time>2022-08-09T12:02:20Z</time>
      </trkpt>
      <trkpt lat="46.4311" lon="5.36498">
        <ele>389.2</ele>
        <time>2022-08-09T12:02:21Z</time>
      </trkpt>
      <trkpt lat="46.43105" lon="5.36522">
        <ele>389.8</ele>
        <time>2022-08-09T12:02:26Z</time>
      </trkpt>
      <trkpt lat="46.43098" lon="5.36551">
        <ele>391</ele>
        <time>2022-08-09T12:02:32Z</time>
      </trkpt>
      <trkpt lat="46.43097" lon="5.36556">
        <ele>391.4</ele>
        <time>2022-08-09T12:02:33Z</time>
      </trkpt>
      <trkpt lat="46.43098" lon="5.36576">
        <ele>392.2</ele>
        <time>2022-08-09T12:02:37Z</time>
      </trkpt>
      <trkpt lat="46.431" lon="5.36585">
        <ele>392.4</ele>
        <time>2022-08-09T12:02:39Z</time>
      </trkpt>
      <trkpt lat="46.4311" lon="5.36607">
        <ele>393.2</ele>
        <time>2022-08-09T12:02:44Z</time>
      </trkpt>
      <trkpt lat="46.43112" lon="5.3661">
        <ele>393.2</ele>
        <time>2022-08-09T12:02:45Z</time>
      </trkpt>
      <trkpt lat="46.43129" lon="5.3663">
        <ele>394.4</ele>
        <time>2022-08-09T12:02:51Z</time>
      </trkpt>
      <trkpt lat="46.43135" lon="5.36636">
        <ele>394.6</ele>
        <time>2022-08-09T12:02:53Z</time>
      </trkpt>
      <trkpt lat="46.43149" lon="5.36651">
        <ele>395.6</ele>
        <time>2022-08-09T12:02:58Z</time>
      </trkpt>
      <trkpt lat="46.43158" lon="5.3666">
        <ele>395.8</ele>
        <time>2022-08-09T12:03:01Z</time>
      </trkpt>
      <trkpt lat="46.43171" lon="5.36685">
        <ele>396.4</ele>
        <time>2022-08-09T12:03:07Z</time>
      </trkpt>
      <trkpt lat="46.43173" lon="5.36689">
        <ele>397</ele>
        <time>2022-08-09T12:03:08Z</time>
      </trkpt>
      <trkpt lat="46.43175" lon="5.36699">
        <ele>397.4</ele>
        <time>2022-08-09T12:03:10Z</time>
      </trkpt>
      <trkpt lat="46.43175" lon="5.36708">
        <ele>397.8</ele>
        <time>2022-08-09T12:03:12Z</time>
      </trkpt>
      <trkpt lat="46.4317" lon="5.36733">
        <ele>399</ele>
        <time>2022-08-09T12:03:17Z</time>
      </trkpt>
      <trkpt lat="46.43168" lon="5.36743">
        <ele>399.2</ele>
        <time>2022-08-09T12:03:19Z</time>
      </trkpt>
      <trkpt lat="46.43162" lon="5.36782">
        <ele>399.8</ele>
        <time>2022-08-09T12:03:27Z</time>
      </trkpt>
      <trkpt lat="46.43163" lon="5.36791">
        <ele>400</ele>
        <time>2022-08-09T12:03:29Z</time>
      </trkpt>
      <trkpt lat="46.43167" lon="5.36803">
        <ele>400.6</ele>
        <time>2022-08-09T12:03:32Z</time>
      </trkpt>
      <trkpt lat="46.43172" lon="5.3681">
        <ele>401.2</ele>
        <time>2022-08-09T12:03:34Z</time>
      </trkpt>
      <trkpt lat="46.43183" lon="5.36822">
        <ele>402.4</ele>
        <time>2022-08-09T12:03:38Z</time>
      </trkpt>
      <trkpt lat="46.43188" lon="5.36827">
        <ele>402.8</ele>
        <time>2022-08-09T12:03:40Z</time>
      </trkpt>
      <trkpt lat="46.43196" lon="5.36836">
        <ele>403.4</ele>
        <time>2022-08-09T12:03:43Z</time>
      </trkpt>
      <trkpt lat="46.43211" lon="5.36853">
        <ele>404</ele>
        <time>2022-08-09T12:03:48Z</time>
      </trkpt>
      <trkpt lat="46.43222" lon="5.36862">
        <ele>404.4</ele>
        <time>2022-08-09T12:03:51Z</time>
      </trkpt>
      <trkpt lat="46.43226" lon="5.36865">
        <ele>404.6</ele>
        <time>2022-08-09T12:03:52Z</time>
      </trkpt>
      <trkpt lat="46.4323" lon="5.36867">
        <ele>405</ele>
        <time>2022-08-09T12:03:53Z</time>
      </trkpt>
      <trkpt lat="46.43235" lon="5.36869">
        <ele>405</ele>
        <time>2022-08-09T12:03:54Z</time>
      </trkpt>
      <trkpt lat="46.43252" lon="5.36874">
        <ele>405.4</ele>
        <time>2022-08-09T12:03:58Z</time>
      </trkpt>
      <trkpt lat="46.43268" lon="5.3688">
        <ele>406.2</ele>
        <time>2022-08-09T12:04:02Z</time>
      </trkpt>
      <trkpt lat="46.43274" lon="5.36882">
        <ele>406.6</ele>
        <time>2022-08-09T12:04:04Z</time>
      </trkpt>
      <trkpt lat="46.43286" lon="5.36886">
        <ele>407.2</ele>
        <time>2022-08-09T12:04:07Z</time>
      </trkpt>
      <trkpt lat="46.43294" lon="5.36889">
        <ele>407.4</ele>
        <time>2022-08-09T12:04:09Z</time>
      </trkpt>
      <trkpt lat="46.43313" lon="5.369">
        <ele>408.4</ele>
        <time>2022-08-09T12:04:14Z</time>
      </trkpt>
      <trkpt lat="46.43316" lon="5.36903">
        <ele>408.4</ele>
        <time>2022-08-09T12:04:15Z</time>
      </trkpt>
      <trkpt lat="46.43319" lon="5.36906">
        <ele>408.6</ele>
        <time>2022-08-09T12:04:16Z</time>
      </trkpt>
      <trkpt lat="46.43323" lon="5.3692">
        <ele>409</ele>
        <time>2022-08-09T12:04:19Z</time>
      </trkpt>
      <trkpt lat="46.43321" lon="5.36933">
        <ele>409.2</ele>
        <time>2022-08-09T12:04:22Z</time>
      </trkpt>
      <trkpt lat="46.43318" lon="5.36936">
        <ele>409.4</ele>
        <time>2022-08-09T12:04:23Z</time>
      </trkpt>
      <trkpt lat="46.43313" lon="5.36939">
        <ele>409.6</ele>
        <time>2022-08-09T12:04:25Z</time>
      </trkpt>
      <trkpt lat="46.43307" lon="5.36939">
        <ele>410</ele>
        <time>2022-08-09T12:04:27Z</time>
      </trkpt>
      <trkpt lat="46.43294" lon="5.36936">
        <ele>411</ele>
        <time>2022-08-09T12:04:31Z</time>
      </trkpt>
      <trkpt lat="46.43278" lon="5.36931">
        <ele>412</ele>
        <time>2022-08-09T12:04:36Z</time>
      </trkpt>
      <trkpt lat="46.43275" lon="5.3693">
        <ele>412.2</ele>
        <time>2022-08-09T12:04:37Z</time>
      </trkpt>
      <trkpt lat="46.4326" lon="5.36925">
        <ele>413.4</ele>
        <time>2022-08-09T12:04:42Z</time>
      </trkpt>
      <trkpt lat="46.43253" lon="5.36923">
        <ele>413.8</ele>
        <time>2022-08-09T12:04:44Z</time>
      </trkpt>
      <trkpt lat="46.4325" lon="5.36922">
        <ele>414</ele>
        <time>2022-08-09T12:04:45Z</time>
      </trkpt>
      <trkpt lat="46.43244" lon="5.3692">
        <ele>414.4</ele>
        <time>2022-08-09T12:04:47Z</time>
      </trkpt>
      <trkpt lat="46.4323" lon="5.36915">
        <ele>415.2</ele>
        <time>2022-08-09T12:04:52Z</time>
      </trkpt>
      <trkpt lat="46.43223" lon="5.36914">
        <ele>415.4</ele>
        <time>2022-08-09T12:04:54Z</time>
      </trkpt>
      <trkpt lat="46.43203" lon="5.3691">
        <ele>416.6</ele>
        <time>2022-08-09T12:05:01Z</time>
      </trkpt>
      <trkpt lat="46.432" lon="5.36909">
        <ele>416.8</ele>
        <time>2022-08-09T12:05:02Z</time>
      </trkpt>
      <trkpt lat="46.43183" lon="5.36904">
        <ele>417.6</ele>
        <time>2022-08-09T12:05:08Z</time>
      </trkpt>
      <trkpt lat="46.43177" lon="5.36901">
        <ele>417.8</ele>
        <time>2022-08-09T12:05:10Z</time>
      </trkpt>
      <trkpt lat="46.43164" lon="5.36895">
        <ele>418.8</ele>
        <time>2022-08-09T12:05:14Z</time>
      </trkpt>
      <trkpt lat="46.43147" lon="5.36882">
        <ele>419.8</ele>
        <time>2022-08-09T12:05:20Z</time>
      </trkpt>
      <trkpt lat="46.43139" lon="5.36875">
        <ele>420.2</ele>
        <time>2022-08-09T12:05:23Z</time>
      </trkpt>
      <trkpt lat="46.43122" lon="5.36857">
        <ele>421</ele>
        <time>2022-08-09T12:05:29Z</time>
      </trkpt>
      <trkpt lat="46.43116" lon="5.36851">
        <ele>421.4</ele>
        <time>2022-08-09T12:05:31Z</time>
      </trkpt>
      <trkpt lat="46.43102" lon="5.36837">
        <ele>422.2</ele>
        <time>2022-08-09T12:05:36Z</time>
      </trkpt>
      <trkpt lat="46.43089" lon="5.36828">
        <ele>422.8</ele>
        <time>2022-08-09T12:05:40Z</time>
      </trkpt>
      <trkpt lat="46.43074" lon="5.36824">
        <ele>423.2</ele>
        <time>2022-08-09T12:05:44Z</time>
      </trkpt>
      <trkpt lat="46.43058" lon="5.36822">
        <ele>424</ele>
        <time>2022-08-09T12:05:49Z</time>
      </trkpt>
      <trkpt lat="46.43054" lon="5.36821">
        <ele>424.2</ele>
        <time>2022-08-09T12:05:50Z</time>
      </trkpt>
      <trkpt lat="46.43038" lon="5.36821">
        <ele>425.2</ele>
        <time>2022-08-09T12:05:55Z</time>
      </trkpt>
      <trkpt lat="46.43035" lon="5.36821">
        <ele>425.4</ele>
        <time>2022-08-09T12:05:56Z</time>
      </trkpt>
      <trkpt lat="46.43023" lon="5.36824">
        <ele>426.6</ele>
        <time>2022-08-09T12:06:00Z</time>
      </trkpt>
      <trkpt lat="46.43005" lon="5.3683">
        <ele>427.4</ele>
        <time>2022-08-09T12:06:06Z</time>
      </trkpt>
      <trkpt lat="46.43002" lon="5.36831">
        <ele>427.6</ele>
        <time>2022-08-09T12:06:07Z</time>
      </trkpt>
      <trkpt lat="46.42983" lon="5.36835">
        <ele>428.8</ele>
        <time>2022-08-09T12:06:13Z</time>
      </trkpt>
      <trkpt lat="46.42977" lon="5.36836">
        <ele>429</ele>
        <time>2022-08-09T12:06:15Z</time>
      </trkpt>
      <trkpt lat="46.42958" lon="5.36841">
        <ele>429.8</ele>
        <time>2022-08-09T12:06:21Z</time>
      </trkpt>
      <trkpt lat="46.42948" lon="5.36842">
        <ele>430.2</ele>
        <time>2022-08-09T12:06:24Z</time>
      </trkpt>
      <trkpt lat="46.42935" lon="5.36843">
        <ele>431</ele>
        <time>2022-08-09T12:06:28Z</time>
      </trkpt>
      <trkpt lat="46.42922" lon="5.36844">
        <ele>431.8</ele>
        <time>2022-08-09T12:06:32Z</time>
      </trkpt>
      <trkpt lat="46.42913" lon="5.36844">
        <ele>432</ele>
        <time>2022-08-09T12:06:35Z</time>
      </trkpt>
      <trkpt lat="46.42897" lon="5.36848">
        <ele>433.2</ele>
        <time>2022-08-09T12:06:40Z</time>
      </trkpt>
      <trkpt lat="46.4289" lon="5.3685">
        <ele>433.6</ele>
        <time>2022-08-09T12:06:42Z</time>
      </trkpt>
      <trkpt lat="46.42887" lon="5.36851">
        <ele>433.6</ele>
        <time>2022-08-09T12:06:43Z</time>
      </trkpt>
      <trkpt lat="46.42878" lon="5.36854">
        <ele>434</ele>
        <time>2022-08-09T12:06:46Z</time>
      </trkpt>
      <trkpt lat="46.42862" lon="5.3686">
        <ele>435.2</ele>
        <time>2022-08-09T12:06:51Z</time>
      </trkpt>
      <trkpt lat="46.42859" lon="5.36861">
        <ele>435.4</ele>
        <time>2022-08-09T12:06:52Z</time>
      </trkpt>
      <trkpt lat="46.42851" lon="5.36864">
        <ele>436.2</ele>
        <time>2022-08-09T12:06:55Z</time>
      </trkpt>
      <trkpt lat="46.42841" lon="5.36867">
        <ele>436.8</ele>
        <time>2022-08-09T12:06:58Z</time>
      </trkpt>
      <trkpt lat="46.42833" lon="5.36868">
        <ele>437.6</ele>
        <time>2022-08-09T12:07:01Z</time>
      </trkpt>
      <trkpt lat="46.42821" lon="5.3687">
        <ele>438.2</ele>
        <time>2022-08-09T12:07:05Z</time>
      </trkpt>
      <trkpt lat="46.42813" lon="5.36873">
        <ele>438.8</ele>
        <time>2022-08-09T12:07:08Z</time>
      </trkpt>
      <trkpt lat="46.428" lon="5.36875">
        <ele>439.6</ele>
        <time>2022-08-09T12:07:12Z</time>
      </trkpt>
      <trkpt lat="46.42796" lon="5.36876">
        <ele>439.8</ele>
        <time>2022-08-09T12:07:13Z</time>
      </trkpt>
      <trkpt lat="46.42782" lon="5.36879">
        <ele>441</ele>
        <time>2022-08-09T12:07:18Z</time>
      </trkpt>
      <trkpt lat="46.42764" lon="5.36884">
        <ele>442.2</ele>
        <time>2022-08-09T12:07:24Z</time>
      </trkpt>
      <trkpt lat="46.42753" lon="5.3689">
        <ele>443</ele>
        <time>2022-08-09T12:07:27Z</time>
      </trkpt>
      <trkpt lat="46.42746" lon="5.36893">
        <ele>443.4</ele>
        <time>2022-08-09T12:07:29Z</time>
      </trkpt>
      <trkpt lat="46.42728" lon="5.36903">
        <ele>444.2</ele>
        <time>2022-08-09T12:07:35Z</time>
      </trkpt>
      <trkpt lat="46.42726" lon="5.36904">
        <ele>444.6</ele>
        <time>2022-08-09T12:07:36Z</time>
      </trkpt>
      <trkpt lat="46.42715" lon="5.36908">
        <ele>445.2</ele>
        <time>2022-08-09T12:07:40Z</time>
      </trkpt>
      <trkpt lat="46.42709" lon="5.3691">
        <ele>445.6</ele>
        <time>2022-08-09T12:07:42Z</time>
      </trkpt>
      <trkpt lat="46.42701" lon="5.36917">
        <ele>446.2</ele>
        <time>2022-08-09T12:07:45Z</time>
      </trkpt>
      <trkpt lat="46.42692" lon="5.36924">
        <ele>446.8</ele>
        <time>2022-08-09T12:07:48Z</time>
      </trkpt>
      <trkpt lat="46.42685" lon="5.36934">
        <ele>447.6</ele>
        <time>2022-08-09T12:07:51Z</time>
      </trkpt>
      <trkpt lat="46.42681" lon="5.36941">
        <ele>447.8</ele>
        <time>2022-08-09T12:07:53Z</time>
      </trkpt>
      <trkpt lat="46.4268" lon="5.36955">
        <ele>448</ele>
        <time>2022-08-09T12:07:56Z</time>
      </trkpt>
      <trkpt lat="46.42688" lon="5.36968">
        <ele>449</ele>
        <time>2022-08-09T12:08:00Z</time>
      </trkpt>
      <trkpt lat="46.427" lon="5.3697">
        <ele>449.8</ele>
        <time>2022-08-09T12:08:04Z</time>
      </trkpt>
      <trkpt lat="46.42703" lon="5.36968">
        <ele>450.2</ele>
        <time>2022-08-09T12:08:05Z</time>
      </trkpt>
      <trkpt lat="46.42719" lon="5.36957">
        <ele>451</ele>
        <time>2022-08-09T12:08:10Z</time>
      </trkpt>
      <trkpt lat="46.42722" lon="5.36955">
        <ele>451.2</ele>
        <time>2022-08-09T12:08:11Z</time>
      </trkpt>
      <trkpt lat="46.42734" lon="5.36947">
        <ele>451.8</ele>
        <time>2022-08-09T12:08:16Z</time>
      </trkpt>
      <trkpt lat="46.42739" lon="5.36946">
        <ele>452</ele>
        <time>2022-08-09T12:08:18Z</time>
      </trkpt>
      <trkpt lat="46.42754" lon="5.36944">
        <ele>453</ele>
        <time>2022-08-09T12:08:23Z</time>
      </trkpt>
      <trkpt lat="46.42757" lon="5.36943">
        <ele>453.2</ele>
        <time>2022-08-09T12:08:24Z</time>
      </trkpt>
      <trkpt lat="46.4277" lon="5.3694">
        <ele>454.2</ele>
        <time>2022-08-09T12:08:28Z</time>
      </trkpt>
      <trkpt lat="46.42776" lon="5.3694">
        <ele>454.6</ele>
        <time>2022-08-09T12:08:30Z</time>
      </trkpt>
      <trkpt lat="46.42793" lon="5.36941">
        <ele>455.2</ele>
        <time>2022-08-09T12:08:35Z</time>
      </trkpt>
      <trkpt lat="46.42796" lon="5.36942">
        <ele>455.4</ele>
        <time>2022-08-09T12:08:36Z</time>
      </trkpt>
      <trkpt lat="46.42813" lon="5.36943">
        <ele>456.2</ele>
        <time>2022-08-09T12:08:41Z</time>
      </trkpt>
      <trkpt lat="46.42816" lon="5.36944">
        <ele>456.6</ele>
        <time>2022-08-09T12:08:42Z</time>
      </trkpt>
      <trkpt lat="46.42831" lon="5.36948">
        <ele>457.4</ele>
        <time>2022-08-09T12:08:47Z</time>
      </trkpt>
      <trkpt lat="46.42836" lon="5.3695">
        <ele>457.8</ele>
        <time>2022-08-09T12:08:49Z</time>
      </trkpt>
      <trkpt lat="46.42849" lon="5.36956">
        <ele>458.8</ele>
        <time>2022-08-09T12:08:54Z</time>
      </trkpt>
      <trkpt lat="46.42853" lon="5.36957">
        <ele>459</ele>
        <time>2022-08-09T12:08:55Z</time>
      </trkpt>
      <trkpt lat="46.42874" lon="5.36962">
        <ele>460</ele>
        <time>2022-08-09T12:09:01Z</time>
      </trkpt>
      <trkpt lat="46.42886" lon="5.36966">
        <ele>460.4</ele>
        <time>2022-08-09T12:09:05Z</time>
      </trkpt>
      <trkpt lat="46.4289" lon="5.36968">
        <ele>460.6</ele>
        <time>2022-08-09T12:09:06Z</time>
      </trkpt>
      <trkpt lat="46.42896" lon="5.36971">
        <ele>461</ele>
        <time>2022-08-09T12:09:08Z</time>
      </trkpt>
      <trkpt lat="46.42915" lon="5.36978">
        <ele>462</ele>
        <time>2022-08-09T12:09:14Z</time>
      </trkpt>
      <trkpt lat="46.42919" lon="5.36979">
        <ele>462</ele>
        <time>2022-08-09T12:09:15Z</time>
      </trkpt>
      <trkpt lat="46.42936" lon="5.36985">
        <ele>462.8</ele>
        <time>2022-08-09T12:09:20Z</time>
      </trkpt>
      <trkpt lat="46.42949" lon="5.3699">
        <ele>463.4</ele>
        <time>2022-08-09T12:09:24Z</time>
      </trkpt>
      <trkpt lat="46.42966" lon="5.37">
        <ele>464.4</ele>
        <time>2022-08-09T12:09:30Z</time>
      </trkpt>
      <trkpt lat="46.4297" lon="5.37002">
        <ele>464.6</ele>
        <time>2022-08-09T12:09:31Z</time>
      </trkpt>
      <trkpt lat="46.42986" lon="5.37012">
        <ele>465.4</ele>
        <time>2022-08-09T12:09:36Z</time>
      </trkpt>
      <trkpt lat="46.42994" lon="5.37019">
        <ele>465.8</ele>
        <time>2022-08-09T12:09:39Z</time>
      </trkpt>
      <trkpt lat="46.43" lon="5.37023">
        <ele>466</ele>
        <time>2022-08-09T12:09:41Z</time>
      </trkpt>
      <trkpt lat="46.4301" lon="5.37028">
        <ele>466.4</ele>
        <time>2022-08-09T12:09:44Z</time>
      </trkpt>
      <trkpt lat="46.43024" lon="5.37038">
        <ele>467.2</ele>
        <time>2022-08-09T12:09:49Z</time>
      </trkpt>
      <trkpt lat="46.4303" lon="5.37041">
        <ele>467.6</ele>
        <time>2022-08-09T12:09:51Z</time>
      </trkpt>
      <trkpt lat="46.43046" lon="5.37056">
        <ele>468.6</ele>
        <time>2022-08-09T12:09:57Z</time>
      </trkpt>
      <trkpt lat="46.43049" lon="5.37059">
        <ele>468.8</ele>
        <time>2022-08-09T12:09:58Z</time>
      </trkpt>
      <trkpt lat="46.43066" lon="5.37079">
        <ele>469.6</ele>
        <time>2022-08-09T12:10:05Z</time>
      </trkpt>
      <trkpt lat="46.43069" lon="5.37081">
        <ele>469.6</ele>
        <time>2022-08-09T12:10:06Z</time>
      </trkpt>
      <trkpt lat="46.43085" lon="5.371">
        <ele>470.8</ele>
        <time>2022-08-09T12:10:12Z</time>
      </trkpt>
      <trkpt lat="46.43096" lon="5.37113">
        <ele>471.4</ele>
        <time>2022-08-09T12:10:16Z</time>
      </trkpt>
      <trkpt lat="46.43103" lon="5.37122">
        <ele>471.8</ele>
        <time>2022-08-09T12:10:19Z</time>
      </trkpt>
      <trkpt lat="46.43119" lon="5.37141">
        <ele>472.8</ele>
        <time>2022-08-09T12:10:25Z</time>
      </trkpt>
      <trkpt lat="46.43121" lon="5.37143">
        <ele>473</ele>
        <time>2022-08-09T12:10:26Z</time>
      </trkpt>
      <trkpt lat="46.43133" lon="5.37156">
        <ele>473.6</ele>
        <time>2022-08-09T12:10:30Z</time>
      </trkpt>
      <trkpt lat="46.43136" lon="5.37159">
        <ele>473.8</ele>
        <time>2022-08-09T12:10:31Z</time>
      </trkpt>
      <trkpt lat="46.43139" lon="5.37162">
        <ele>474.2</ele>
        <time>2022-08-09T12:10:32Z</time>
      </trkpt>
      <trkpt lat="46.43151" lon="5.37171">
        <ele>475.2</ele>
        <time>2022-08-09T12:10:36Z</time>
      </trkpt>
      <trkpt lat="46.43157" lon="5.37176">
        <ele>475.8</ele>
        <time>2022-08-09T12:10:38Z</time>
      </trkpt>
      <trkpt lat="46.43163" lon="5.37181">
        <ele>476.2</ele>
        <time>2022-08-09T12:10:40Z</time>
      </trkpt>
      <trkpt lat="46.43177" lon="5.37188">
        <ele>476.8</ele>
        <time>2022-08-09T12:10:44Z</time>
      </trkpt>
      <trkpt lat="46.43188" lon="5.37193">
        <ele>477.4</ele>
        <time>2022-08-09T12:10:47Z</time>
      </trkpt>
      <trkpt lat="46.43201" lon="5.372">
        <ele>478.2</ele>
        <time>2022-08-09T12:10:51Z</time>
      </trkpt>
      <trkpt lat="46.43209" lon="5.37203">
        <ele>478.4</ele>
        <time>2022-08-09T12:10:53Z</time>
      </trkpt>
      <trkpt lat="46.43225" lon="5.37214">
        <ele>479.6</ele>
        <time>2022-08-09T12:10:58Z</time>
      </trkpt>
      <trkpt lat="46.43248" lon="5.37241">
        <ele>480.2</ele>
        <time>2022-08-09T12:11:06Z</time>
      </trkpt>
      <trkpt lat="46.43252" lon="5.37248">
        <ele>480.4</ele>
        <time>2022-08-09T12:11:08Z</time>
      </trkpt>
      <trkpt lat="46.43272" lon="5.37276">
        <ele>481.6</ele>
        <time>2022-08-09T12:11:15Z</time>
      </trkpt>
      <trkpt lat="46.4328" lon="5.3729">
        <ele>482.2</ele>
        <time>2022-08-09T12:11:18Z</time>
      </trkpt>
      <trkpt lat="46.43288" lon="5.37305">
        <ele>482.8</ele>
        <time>2022-08-09T12:11:21Z</time>
      </trkpt>
      <trkpt lat="46.43295" lon="5.3732">
        <ele>483.4</ele>
        <time>2022-08-09T12:11:24Z</time>
      </trkpt>
      <trkpt lat="46.433" lon="5.37331">
        <ele>483.8</ele>
        <time>2022-08-09T12:11:26Z</time>
      </trkpt>
      <trkpt lat="46.4331" lon="5.37357">
        <ele>484.8</ele>
        <time>2022-08-09T12:11:31Z</time>
      </trkpt>
      <trkpt lat="46.43312" lon="5.37361">
        <ele>484.8</ele>
        <time>2022-08-09T12:11:32Z</time>
      </trkpt>
      <trkpt lat="46.4332" lon="5.37369">
        <ele>485.4</ele>
        <time>2022-08-09T12:11:35Z</time>
      </trkpt>
      <trkpt lat="46.43331" lon="5.37368">
        <ele>486</ele>
        <time>2022-08-09T12:11:38Z</time>
      </trkpt>
      <trkpt lat="46.43339" lon="5.37367">
        <ele>486.2</ele>
        <time>2022-08-09T12:11:40Z</time>
      </trkpt>
      <trkpt lat="46.43351" lon="5.37362">
        <ele>486.8</ele>
        <time>2022-08-09T12:11:43Z</time>
      </trkpt>
      <trkpt lat="46.43354" lon="5.37361">
        <ele>487</ele>
        <time>2022-08-09T12:11:44Z</time>
      </trkpt>
      <trkpt lat="46.4337" lon="5.37355">
        <ele>487.8</ele>
        <time>2022-08-09T12:11:48Z</time>
      </trkpt>
      <trkpt lat="46.43389" lon="5.37349">
        <ele>489</ele>
        <time>2022-08-09T12:11:53Z</time>
      </trkpt>
      <trkpt lat="46.43397" lon="5.37347">
        <ele>489.2</ele>
        <time>2022-08-09T12:11:55Z</time>
      </trkpt>
      <trkpt lat="46.43414" lon="5.3734">
        <ele>489.8</ele>
        <time>2022-08-09T12:12:00Z</time>
      </trkpt>
      <trkpt lat="46.4342" lon="5.37337">
        <ele>490.2</ele>
        <time>2022-08-09T12:12:02Z</time>
      </trkpt>
      <trkpt lat="46.43434" lon="5.37334">
        <ele>490.8</ele>
        <time>2022-08-09T12:12:06Z</time>
      </trkpt>
      <trkpt lat="46.43437" lon="5.37332">
        <ele>491</ele>
        <time>2022-08-09T12:12:07Z</time>
      </trkpt>
      <trkpt lat="46.43453" lon="5.37327">
        <ele>491.8</ele>
        <time>2022-08-09T12:12:12Z</time>
      </trkpt>
      <trkpt lat="46.4346" lon="5.37326">
        <ele>492.2</ele>
        <time>2022-08-09T12:12:14Z</time>
      </trkpt>
      <trkpt lat="46.43477" lon="5.37323">
        <ele>492.8</ele>
        <time>2022-08-09T12:12:19Z</time>
      </trkpt>
      <trkpt lat="46.43487" lon="5.37325">
        <ele>493.2</ele>
        <time>2022-08-09T12:12:22Z</time>
      </trkpt>
      <trkpt lat="46.43501" lon="5.37325">
        <ele>494.2</ele>
        <time>2022-08-09T12:12:26Z</time>
      </trkpt>
      <trkpt lat="46.43514" lon="5.37324">
        <ele>495</ele>
        <time>2022-08-09T12:12:30Z</time>
      </trkpt>
      <trkpt lat="46.43521" lon="5.37324">
        <ele>495.4</ele>
        <time>2022-08-09T12:12:32Z</time>
      </trkpt>
      <trkpt lat="46.43536" lon="5.37323">
        <ele>496.6</ele>
        <time>2022-08-09T12:12:36Z</time>
      </trkpt>
      <trkpt lat="46.43548" lon="5.3733">
        <ele>497.6</ele>
        <time>2022-08-09T12:12:40Z</time>
      </trkpt>
      <trkpt lat="46.43552" lon="5.3733">
        <ele>497.8</ele>
        <time>2022-08-09T12:12:41Z</time>
      </trkpt>
      <trkpt lat="46.43571" lon="5.37332">
        <ele>498.6</ele>
        <time>2022-08-09T12:12:46Z</time>
      </trkpt>
      <trkpt lat="46.43574" lon="5.37333">
        <ele>498.6</ele>
        <time>2022-08-09T12:12:47Z</time>
      </trkpt>
      <trkpt lat="46.43578" lon="5.37334">
        <ele>498.8</ele>
        <time>2022-08-09T12:12:48Z</time>
      </trkpt>
      <trkpt lat="46.43584" lon="5.37337">
        <ele>499</ele>
        <time>2022-08-09T12:12:50Z</time>
      </trkpt>
      <trkpt lat="46.43591" lon="5.37341">
        <ele>499.8</ele>
        <time>2022-08-09T12:12:53Z</time>
      </trkpt>
      <trkpt lat="46.43597" lon="5.37343">
        <ele>500.2</ele>
        <time>2022-08-09T12:12:55Z</time>
      </trkpt>
      <trkpt lat="46.43615" lon="5.37342">
        <ele>500.8</ele>
        <time>2022-08-09T12:13:00Z</time>
      </trkpt>
      <trkpt lat="46.43624" lon="5.37341">
        <ele>501.2</ele>
        <time>2022-08-09T12:13:02Z</time>
      </trkpt>
      <trkpt lat="46.43639" lon="5.37345">
        <ele>502.2</ele>
        <time>2022-08-09T12:13:06Z</time>
      </trkpt>
      <trkpt lat="46.43642" lon="5.37345">
        <ele>502.4</ele>
        <time>2022-08-09T12:13:07Z</time>
      </trkpt>
      <trkpt lat="46.43651" lon="5.3735">
        <ele>503</ele>
        <time>2022-08-09T12:13:10Z</time>
      </trkpt>
      <trkpt lat="46.43657" lon="5.37352">
        <ele>503.2</ele>
        <time>2022-08-09T12:13:12Z</time>
      </trkpt>
      <trkpt lat="46.43667" lon="5.37355">
        <ele>504</ele>
        <time>2022-08-09T12:13:15Z</time>
      </trkpt>
      <trkpt lat="46.43674" lon="5.37358">
        <ele>504.4</ele>
        <time>2022-08-09T12:13:17Z</time>
      </trkpt>
      <trkpt lat="46.43685" lon="5.37361">
        <ele>505.2</ele>
        <time>2022-08-09T12:13:20Z</time>
      </trkpt>
      <trkpt lat="46.43692" lon="5.37362">
        <ele>505.4</ele>
        <time>2022-08-09T12:13:22Z</time>
      </trkpt>
      <trkpt lat="46.43708" lon="5.37372">
        <ele>506.2</ele>
        <time>2022-08-09T12:13:27Z</time>
      </trkpt>
      <trkpt lat="46.43711" lon="5.37374">
        <ele>506.4</ele>
        <time>2022-08-09T12:13:28Z</time>
      </trkpt>
      <trkpt lat="46.43725" lon="5.37379">
        <ele>507.4</ele>
        <time>2022-08-09T12:13:32Z</time>
      </trkpt>
      <trkpt lat="46.43737" lon="5.37388">
        <ele>508.4</ele>
        <time>2022-08-09T12:13:36Z</time>
      </trkpt>
      <trkpt lat="46.43745" lon="5.37391">
        <ele>508.6</ele>
        <time>2022-08-09T12:13:38Z</time>
      </trkpt>
      <trkpt lat="46.43759" lon="5.37402">
        <ele>509.2</ele>
        <time>2022-08-09T12:13:43Z</time>
      </trkpt>
      <trkpt lat="46.43766" lon="5.37406">
        <ele>509.8</ele>
        <time>2022-08-09T12:13:45Z</time>
      </trkpt>
      <trkpt lat="46.43777" lon="5.37414">
        <ele>510.4</ele>
        <time>2022-08-09T12:13:49Z</time>
      </trkpt>
      <trkpt lat="46.43783" lon="5.37419">
        <ele>510.8</ele>
        <time>2022-08-09T12:13:51Z</time>
      </trkpt>
      <trkpt lat="46.43788" lon="5.37424">
        <ele>511.4</ele>
        <time>2022-08-09T12:13:53Z</time>
      </trkpt>
      <trkpt lat="46.43797" lon="5.37431">
        <ele>511.6</ele>
        <time>2022-08-09T12:13:56Z</time>
      </trkpt>
      <trkpt lat="46.43804" lon="5.37441">
        <ele>512.4</ele>
        <time>2022-08-09T12:13:59Z</time>
      </trkpt>
      <trkpt lat="46.43809" lon="5.3745">
        <ele>512.8</ele>
        <time>2022-08-09T12:14:01Z</time>
      </trkpt>
      <trkpt lat="46.43814" lon="5.37458">
        <ele>513</ele>
        <time>2022-08-09T12:14:03Z</time>
      </trkpt>
      <trkpt lat="46.43821" lon="5.37466">
        <ele>513.4</ele>
        <time>2022-08-09T12:14:05Z</time>
      </trkpt>
      <trkpt lat="46.43826" lon="5.37473">
        <ele>513.8</ele>
        <time>2022-08-09T12:14:07Z</time>
      </trkpt>
      <trkpt lat="46.43834" lon="5.37486">
        <ele>514.6</ele>
        <time>2022-08-09T12:14:10Z</time>
      </trkpt>
      <trkpt lat="46.43838" lon="5.37494">
        <ele>515</ele>
        <time>2022-08-09T12:14:12Z</time>
      </trkpt>
      <trkpt lat="46.43843" lon="5.37503">
        <ele>515.4</ele>
        <time>2022-08-09T12:14:14Z</time>
      </trkpt>
      <trkpt lat="46.4385" lon="5.37512">
        <ele>516</ele>
        <time>2022-08-09T12:14:16Z</time>
      </trkpt>
      <trkpt lat="46.43855" lon="5.37518">
        <ele>516</ele>
        <time>2022-08-09T12:14:17Z</time>
      </trkpt>
      <trkpt lat="46.4386" lon="5.37523">
        <ele>516.4</ele>
        <time>2022-08-09T12:14:18Z</time>
      </trkpt>
      <trkpt lat="46.4387" lon="5.37534">
        <ele>517.2</ele>
        <time>2022-08-09T12:14:21Z</time>
      </trkpt>
      <trkpt lat="46.43881" lon="5.37542">
        <ele>517.6</ele>
        <time>2022-08-09T12:14:24Z</time>
      </trkpt>
      <trkpt lat="46.43892" lon="5.3755">
        <ele>518</ele>
        <time>2022-08-09T12:14:27Z</time>
      </trkpt>
      <trkpt lat="46.43909" lon="5.37562">
        <ele>518.6</ele>
        <time>2022-08-09T12:14:31Z</time>
      </trkpt>
      <trkpt lat="46.43913" lon="5.37567">
        <ele>519.2</ele>
        <time>2022-08-09T12:14:33Z</time>
      </trkpt>
      <trkpt lat="46.43929" lon="5.37587">
        <ele>519.8</ele>
        <time>2022-08-09T12:14:39Z</time>
      </trkpt>
      <trkpt lat="46.43931" lon="5.3759">
        <ele>520.4</ele>
        <time>2022-08-09T12:14:40Z</time>
      </trkpt>
      <trkpt lat="46.43942" lon="5.37601">
        <ele>521.4</ele>
        <time>2022-08-09T12:14:44Z</time>
      </trkpt>
      <trkpt lat="46.43947" lon="5.37606">
        <ele>522</ele>
        <time>2022-08-09T12:14:46Z</time>
      </trkpt>
      <trkpt lat="46.43956" lon="5.37612">
        <ele>522.6</ele>
        <time>2022-08-09T12:14:49Z</time>
      </trkpt>
      <trkpt lat="46.43966" lon="5.37618">
        <ele>523.4</ele>
        <time>2022-08-09T12:14:52Z</time>
      </trkpt>
      <trkpt lat="46.43973" lon="5.37622">
        <ele>523.6</ele>
        <time>2022-08-09T12:14:54Z</time>
      </trkpt>
      <trkpt lat="46.43991" lon="5.37631">
        <ele>524.4</ele>
        <time>2022-08-09T12:15:00Z</time>
      </trkpt>
      <trkpt lat="46.43998" lon="5.37635">
        <ele>524.8</ele>
        <time>2022-08-09T12:15:02Z</time>
      </trkpt>
      <trkpt lat="46.44011" lon="5.37643">
        <ele>526</ele>
        <time>2022-08-09T12:15:06Z</time>
      </trkpt>
      <trkpt lat="46.44018" lon="5.37649">
        <ele>526.2</ele>
        <time>2022-08-09T12:15:08Z</time>
      </trkpt>
      <trkpt lat="46.44036" lon="5.37667">
        <ele>526.8</ele>
        <time>2022-08-09T12:15:14Z</time>
      </trkpt>
      <trkpt lat="46.44039" lon="5.3767">
        <ele>527.2</ele>
        <time>2022-08-09T12:15:15Z</time>
      </trkpt>
      <trkpt lat="46.44047" lon="5.37681">
        <ele>527.8</ele>
        <time>2022-08-09T12:15:18Z</time>
      </trkpt>
      <trkpt lat="46.44053" lon="5.37688">
        <ele>528.2</ele>
        <time>2022-08-09T12:15:20Z</time>
      </trkpt>
      <trkpt lat="46.44057" lon="5.37695">
        <ele>528.4</ele>
        <time>2022-08-09T12:15:22Z</time>
      </trkpt>
      <trkpt lat="46.44064" lon="5.37708">
        <ele>528.8</ele>
        <time>2022-08-09T12:15:25Z</time>
      </trkpt>
      <trkpt lat="46.44071" lon="5.37726">
        <ele>530</ele>
        <time>2022-08-09T12:15:29Z</time>
      </trkpt>
      <trkpt lat="46.44072" lon="5.37731">
        <ele>530</ele>
        <time>2022-08-09T12:15:30Z</time>
      </trkpt>
      <trkpt lat="46.44075" lon="5.37756">
        <ele>531</ele>
        <time>2022-08-09T12:15:35Z</time>
      </trkpt>
      <trkpt lat="46.44075" lon="5.37771">
        <ele>531.8</ele>
        <time>2022-08-09T12:15:38Z</time>
      </trkpt>
      <trkpt lat="46.44076" lon="5.37781">
        <ele>532</ele>
        <time>2022-08-09T12:15:40Z</time>
      </trkpt>
      <trkpt lat="46.44075" lon="5.37805">
        <ele>532.8</ele>
        <time>2022-08-09T12:15:45Z</time>
      </trkpt>
      <trkpt lat="46.44074" lon="5.37824">
        <ele>534</ele>
        <time>2022-08-09T12:15:49Z</time>
      </trkpt>
      <trkpt lat="46.44074" lon="5.37834">
        <ele>534.8</ele>
        <time>2022-08-09T12:15:51Z</time>
      </trkpt>
      <trkpt lat="46.44074" lon="5.37839">
        <ele>535.2</ele>
        <time>2022-08-09T12:15:52Z</time>
      </trkpt>
      <trkpt lat="46.44071" lon="5.37872">
        <ele>536.2</ele>
        <time>2022-08-09T12:15:58Z</time>
      </trkpt>
      <trkpt lat="46.4407" lon="5.37877">
        <ele>536.6</ele>
        <time>2022-08-09T12:15:59Z</time>
      </trkpt>
      <trkpt lat="46.44063" lon="5.37912">
        <ele>537.4</ele>
        <time>2022-08-09T12:16:04Z</time>
      </trkpt>
      <trkpt lat="46.44055" lon="5.37959">
        <ele>537.2</ele>
        <time>2022-08-09T12:16:09Z</time>
      </trkpt>
      <trkpt lat="46.44054" lon="5.37969">
        <ele>537.2</ele>
        <time>2022-08-09T12:16:10Z</time>
      </trkpt>
      <trkpt lat="46.44051" lon="5.37992">
        <ele>536.6</ele>
        <time>2022-08-09T12:16:12Z</time>
      </trkpt>
      <trkpt lat="46.44049" lon="5.38004">
        <ele>536.4</ele>
        <time>2022-08-09T12:16:13Z</time>
      </trkpt>
      <trkpt lat="46.44048" lon="5.38015">
        <ele>536.2</ele>
        <time>2022-08-09T12:16:14Z</time>
      </trkpt>
      <trkpt lat="46.44045" lon="5.38062">
        <ele>535.2</ele>
        <time>2022-08-09T12:16:18Z</time>
      </trkpt>
      <trkpt lat="46.44045" lon="5.38075">
        <ele>534.8</ele>
        <time>2022-08-09T12:16:19Z</time>
      </trkpt>
      <trkpt lat="46.44043" lon="5.38102">
        <ele>534</ele>
        <time>2022-08-09T12:16:21Z</time>
      </trkpt>
      <trkpt lat="46.44039" lon="5.3813">
        <ele>533.6</ele>
        <time>2022-08-09T12:16:23Z</time>
      </trkpt>
      <trkpt lat="46.44034" lon="5.38158">
        <ele>532.6</ele>
        <time>2022-08-09T12:16:25Z</time>
      </trkpt>
      <trkpt lat="46.44028" lon="5.38187">
        <ele>531.2</ele>
        <time>2022-08-09T12:16:27Z</time>
      </trkpt>
      <trkpt lat="46.44025" lon="5.38201">
        <ele>530.8</ele>
        <time>2022-08-09T12:16:28Z</time>
      </trkpt>
      <trkpt lat="46.44019" lon="5.38231">
        <ele>530</ele>
        <time>2022-08-09T12:16:30Z</time>
      </trkpt>
      <trkpt lat="46.44009" lon="5.38276">
        <ele>529</ele>
        <time>2022-08-09T12:16:33Z</time>
      </trkpt>
      <trkpt lat="46.44003" lon="5.38307">
        <ele>527.8</ele>
        <time>2022-08-09T12:16:35Z</time>
      </trkpt>
      <trkpt lat="46.43993" lon="5.38353">
        <ele>526.4</ele>
        <time>2022-08-09T12:16:38Z</time>
      </trkpt>
      <trkpt lat="46.43986" lon="5.38383">
        <ele>525</ele>
        <time>2022-08-09T12:16:40Z</time>
      </trkpt>
      <trkpt lat="46.43978" lon="5.38411">
        <ele>524</ele>
        <time>2022-08-09T12:16:42Z</time>
      </trkpt>
      <trkpt lat="46.43975" lon="5.38425">
        <ele>523.6</ele>
        <time>2022-08-09T12:16:43Z</time>
      </trkpt>
      <trkpt lat="46.43963" lon="5.38464">
        <ele>522.8</ele>
        <time>2022-08-09T12:16:46Z</time>
      </trkpt>
      <trkpt lat="46.43946" lon="5.38525">
        <ele>522.2</ele>
        <time>2022-08-09T12:16:51Z</time>
      </trkpt>
      <trkpt lat="46.43923" lon="5.38603">
        <ele>522.4</ele>
        <time>2022-08-09T12:16:58Z</time>
      </trkpt>
      <trkpt lat="46.43902" lon="5.38674">
        <ele>522.6</ele>
        <time>2022-08-09T12:17:05Z</time>
      </trkpt>
      <trkpt lat="46.43886" lon="5.38725">
        <ele>523.6</ele>
        <time>2022-08-09T12:17:11Z</time>
      </trkpt>
      <trkpt lat="46.43875" lon="5.38765">
        <ele>524.6</ele>
        <time>2022-08-09T12:17:16Z</time>
      </trkpt>
      <trkpt lat="46.43873" lon="5.38772">
        <ele>524.8</ele>
        <time>2022-08-09T12:17:17Z</time>
      </trkpt>
      <trkpt lat="46.43864" lon="5.38802">
        <ele>525.6</ele>
        <time>2022-08-09T12:17:21Z</time>
      </trkpt>
      <trkpt lat="46.43856" lon="5.3883">
        <ele>526.8</ele>
        <time>2022-08-09T12:17:25Z</time>
      </trkpt>
      <trkpt lat="46.43849" lon="5.3885">
        <ele>527.8</ele>
        <time>2022-08-09T12:17:28Z</time>
      </trkpt>
      <trkpt lat="46.43838" lon="5.38884">
        <ele>529</ele>
        <time>2022-08-09T12:17:33Z</time>
      </trkpt>
      <trkpt lat="46.43836" lon="5.38891">
        <ele>529.4</ele>
        <time>2022-08-09T12:17:34Z</time>
      </trkpt>
      <trkpt lat="46.43829" lon="5.3891">
        <ele>530.2</ele>
        <time>2022-08-09T12:17:37Z</time>
      </trkpt>
      <trkpt lat="46.43817" lon="5.38943">
        <ele>530.6</ele>
        <time>2022-08-09T12:17:42Z</time>
      </trkpt>
      <trkpt lat="46.43792" lon="5.38988">
        <ele>530.8</ele>
        <time>2022-08-09T12:17:49Z</time>
      </trkpt>
      <trkpt lat="46.4376" lon="5.39031">
        <ele>530.4</ele>
        <time>2022-08-09T12:17:55Z</time>
      </trkpt>
      <trkpt lat="46.43723" lon="5.39083">
        <ele>529.2</ele>
        <time>2022-08-09T12:18:01Z</time>
      </trkpt>
      <trkpt lat="46.43717" lon="5.39093">
        <ele>528.8</ele>
        <time>2022-08-09T12:18:02Z</time>
      </trkpt>
      <trkpt lat="46.43699" lon="5.39123">
        <ele>528</ele>
        <time>2022-08-09T12:18:05Z</time>
      </trkpt>
      <trkpt lat="46.43692" lon="5.39134">
        <ele>527.6</ele>
        <time>2022-08-09T12:18:06Z</time>
      </trkpt>
      <trkpt lat="46.43679" lon="5.39155">
        <ele>526.8</ele>
        <time>2022-08-09T12:18:08Z</time>
      </trkpt>
      <trkpt lat="46.43673" lon="5.39166">
        <ele>526.2</ele>
        <time>2022-08-09T12:18:09Z</time>
      </trkpt>
      <trkpt lat="46.43651" lon="5.39197">
        <ele>525</ele>
        <time>2022-08-09T12:18:12Z</time>
      </trkpt>
      <trkpt lat="46.43642" lon="5.39206">
        <ele>524.6</ele>
        <time>2022-08-09T12:18:13Z</time>
      </trkpt>
      <trkpt lat="46.43634" lon="5.39216">
        <ele>524</ele>
        <time>2022-08-09T12:18:14Z</time>
      </trkpt>
      <trkpt lat="46.43616" lon="5.39234">
        <ele>522.4</ele>
        <time>2022-08-09T12:18:16Z</time>
      </trkpt>
      <trkpt lat="46.43587" lon="5.39258">
        <ele>521.6</ele>
        <time>2022-08-09T12:18:19Z</time>
      </trkpt>
      <trkpt lat="46.43577" lon="5.39263">
        <ele>520.6</ele>
        <time>2022-08-09T12:18:20Z</time>
      </trkpt>
      <trkpt lat="46.43565" lon="5.39266">
        <ele>519.8</ele>
        <time>2022-08-09T12:18:21Z</time>
      </trkpt>
      <trkpt lat="46.43554" lon="5.39266">
        <ele>519.4</ele>
        <time>2022-08-09T12:18:22Z</time>
      </trkpt>
      <trkpt lat="46.43543" lon="5.39265">
        <ele>518.8</ele>
        <time>2022-08-09T12:18:23Z</time>
      </trkpt>
      <trkpt lat="46.43531" lon="5.39262">
        <ele>518.2</ele>
        <time>2022-08-09T12:18:24Z</time>
      </trkpt>
      <trkpt lat="46.4352" lon="5.39258">
        <ele>517.2</ele>
        <time>2022-08-09T12:18:25Z</time>
      </trkpt>
      <trkpt lat="46.43498" lon="5.39245">
        <ele>516</ele>
        <time>2022-08-09T12:18:27Z</time>
      </trkpt>
      <trkpt lat="46.43465" lon="5.39224">
        <ele>514.6</ele>
        <time>2022-08-09T12:18:30Z</time>
      </trkpt>
      <trkpt lat="46.43432" lon="5.39202">
        <ele>513.4</ele>
        <time>2022-08-09T12:18:33Z</time>
      </trkpt>
      <trkpt lat="46.43409" lon="5.39196">
        <ele>511.6</ele>
        <time>2022-08-09T12:18:35Z</time>
      </trkpt>
      <trkpt lat="46.43384" lon="5.39201">
        <ele>510.6</ele>
        <time>2022-08-09T12:18:37Z</time>
      </trkpt>
      <trkpt lat="46.43372" lon="5.39208">
        <ele>510.4</ele>
        <time>2022-08-09T12:18:38Z</time>
      </trkpt>
      <trkpt lat="46.43362" lon="5.39219">
        <ele>510</ele>
        <time>2022-08-09T12:18:39Z</time>
      </trkpt>
      <trkpt lat="46.43353" lon="5.39231">
        <ele>509.6</ele>
        <time>2022-08-09T12:18:40Z</time>
      </trkpt>
      <trkpt lat="46.43345" lon="5.39244">
        <ele>508.6</ele>
        <time>2022-08-09T12:18:41Z</time>
      </trkpt>
      <trkpt lat="46.43336" lon="5.39256">
        <ele>507.2</ele>
        <time>2022-08-09T12:18:42Z</time>
      </trkpt>
      <trkpt lat="46.43316" lon="5.3928">
        <ele>505.8</ele>
        <time>2022-08-09T12:18:44Z</time>
      </trkpt>
      <trkpt lat="46.43308" lon="5.39293">
        <ele>505.4</ele>
        <time>2022-08-09T12:18:45Z</time>
      </trkpt>
      <trkpt lat="46.433" lon="5.39307">
        <ele>504.8</ele>
        <time>2022-08-09T12:18:46Z</time>
      </trkpt>
      <trkpt lat="46.43294" lon="5.39322">
        <ele>504.4</ele>
        <time>2022-08-09T12:18:47Z</time>
      </trkpt>
      <trkpt lat="46.43287" lon="5.39336">
        <ele>504</ele>
        <time>2022-08-09T12:18:48Z</time>
      </trkpt>
      <trkpt lat="46.43278" lon="5.39348">
        <ele>502.8</ele>
        <time>2022-08-09T12:18:49Z</time>
      </trkpt>
      <trkpt lat="46.43268" lon="5.39357">
        <ele>502.4</ele>
        <time>2022-08-09T12:18:50Z</time>
      </trkpt>
      <trkpt lat="46.43257" lon="5.39363">
        <ele>501.6</ele>
        <time>2022-08-09T12:18:51Z</time>
      </trkpt>
      <trkpt lat="46.43245" lon="5.39366">
        <ele>501.2</ele>
        <time>2022-08-09T12:18:52Z</time>
      </trkpt>
      <trkpt lat="46.43233" lon="5.39366">
        <ele>500.4</ele>
        <time>2022-08-09T12:18:53Z</time>
      </trkpt>
      <trkpt lat="46.4322" lon="5.39362">
        <ele>499</ele>
        <time>2022-08-09T12:18:54Z</time>
      </trkpt>
      <trkpt lat="46.43208" lon="5.39353">
        <ele>498.4</ele>
        <time>2022-08-09T12:18:55Z</time>
      </trkpt>
      <trkpt lat="46.43196" lon="5.39341">
        <ele>497.6</ele>
        <time>2022-08-09T12:18:56Z</time>
      </trkpt>
      <trkpt lat="46.43185" lon="5.39328">
        <ele>497.2</ele>
        <time>2022-08-09T12:18:57Z</time>
      </trkpt>
      <trkpt lat="46.43177" lon="5.39313">
        <ele>496</ele>
        <time>2022-08-09T12:18:58Z</time>
      </trkpt>
      <trkpt lat="46.43164" lon="5.39283">
        <ele>494.6</ele>
        <time>2022-08-09T12:19:00Z</time>
      </trkpt>
      <trkpt lat="46.43157" lon="5.3927">
        <ele>493.8</ele>
        <time>2022-08-09T12:19:01Z</time>
      </trkpt>
      <trkpt lat="46.43148" lon="5.3926">
        <ele>493.8</ele>
        <time>2022-08-09T12:19:02Z</time>
      </trkpt>
      <trkpt lat="46.43136" lon="5.39255">
        <ele>492.6</ele>
        <time>2022-08-09T12:19:03Z</time>
      </trkpt>
      <trkpt lat="46.43125" lon="5.39258">
        <ele>492</ele>
        <time>2022-08-09T12:19:04Z</time>
      </trkpt>
      <trkpt lat="46.43115" lon="5.39265">
        <ele>491.2</ele>
        <time>2022-08-09T12:19:05Z</time>
      </trkpt>
      <trkpt lat="46.43107" lon="5.39275">
        <ele>491</ele>
        <time>2022-08-09T12:19:06Z</time>
      </trkpt>
      <trkpt lat="46.43102" lon="5.39288">
        <ele>490.2</ele>
        <time>2022-08-09T12:19:07Z</time>
      </trkpt>
      <trkpt lat="46.43099" lon="5.39302">
        <ele>489.6</ele>
        <time>2022-08-09T12:19:08Z</time>
      </trkpt>
      <trkpt lat="46.43091" lon="5.39329">
        <ele>488.8</ele>
        <time>2022-08-09T12:19:10Z</time>
      </trkpt>
      <trkpt lat="46.43081" lon="5.39352">
        <ele>488.4</ele>
        <time>2022-08-09T12:19:12Z</time>
      </trkpt>
      <trkpt lat="46.4307" lon="5.39375">
        <ele>488.2</ele>
        <time>2022-08-09T12:19:14Z</time>
      </trkpt>
      <trkpt lat="46.43063" lon="5.394">
        <ele>488</ele>
        <time>2022-08-09T12:19:16Z</time>
      </trkpt>
      <trkpt lat="46.43052" lon="5.39439">
        <ele>487.4</ele>
        <time>2022-08-09T12:19:19Z</time>
      </trkpt>
      <trkpt lat="46.43038" lon="5.39476">
        <ele>486.4</ele>
        <time>2022-08-09T12:19:22Z</time>
      </trkpt>
      <trkpt lat="46.43025" lon="5.39495">
        <ele>485.8</ele>
        <time>2022-08-09T12:19:24Z</time>
      </trkpt>
      <trkpt lat="46.43017" lon="5.39502">
        <ele>485.6</ele>
        <time>2022-08-09T12:19:25Z</time>
      </trkpt>
      <trkpt lat="46.43008" lon="5.39506">
        <ele>485.2</ele>
        <time>2022-08-09T12:19:26Z</time>
      </trkpt>
      <trkpt lat="46.42989" lon="5.3951">
        <ele>484.6</ele>
        <time>2022-08-09T12:19:28Z</time>
      </trkpt>
      <trkpt lat="46.4297" lon="5.3951">
        <ele>484.2</ele>
        <time>2022-08-09T12:19:30Z</time>
      </trkpt>
      <trkpt lat="46.42941" lon="5.39509">
        <ele>482.8</ele>
        <time>2022-08-09T12:19:33Z</time>
      </trkpt>
      <trkpt lat="46.42923" lon="5.39509">
        <ele>482.4</ele>
        <time>2022-08-09T12:19:35Z</time>
      </trkpt>
      <trkpt lat="46.42878" lon="5.39503">
        <ele>481.8</ele>
        <time>2022-08-09T12:19:40Z</time>
      </trkpt>
      <trkpt lat="46.42869" lon="5.39499">
        <ele>481.6</ele>
        <time>2022-08-09T12:19:41Z</time>
      </trkpt>
      <trkpt lat="46.42825" lon="5.39472">
        <ele>480.8</ele>
        <time>2022-08-09T12:19:46Z</time>
      </trkpt>
      <trkpt lat="46.42815" lon="5.39466">
        <ele>480.4</ele>
        <time>2022-08-09T12:19:47Z</time>
      </trkpt>
      <trkpt lat="46.42787" lon="5.39448">
        <ele>478.8</ele>
        <time>2022-08-09T12:19:50Z</time>
      </trkpt>
      <trkpt lat="46.42767" lon="5.39438">
        <ele>477.8</ele>
        <time>2022-08-09T12:19:52Z</time>
      </trkpt>
      <trkpt lat="46.42735" lon="5.3943">
        <ele>476.4</ele>
        <time>2022-08-09T12:19:55Z</time>
      </trkpt>
      <trkpt lat="46.42724" lon="5.39428">
        <ele>476</ele>
        <time>2022-08-09T12:19:56Z</time>
      </trkpt>
      <trkpt lat="46.42712" lon="5.39427">
        <ele>475.2</ele>
        <time>2022-08-09T12:19:57Z</time>
      </trkpt>
      <trkpt lat="46.42677" lon="5.39429">
        <ele>474</ele>
        <time>2022-08-09T12:20:00Z</time>
      </trkpt>
      <trkpt lat="46.42665" lon="5.3943">
        <ele>473.4</ele>
        <time>2022-08-09T12:20:01Z</time>
      </trkpt>
      <trkpt lat="46.42653" lon="5.39433">
        <ele>473</ele>
        <time>2022-08-09T12:20:02Z</time>
      </trkpt>
      <trkpt lat="46.42605" lon="5.39448">
        <ele>470.8</ele>
        <time>2022-08-09T12:20:06Z</time>
      </trkpt>
      <trkpt lat="46.42582" lon="5.39457">
        <ele>469.8</ele>
        <time>2022-08-09T12:20:08Z</time>
      </trkpt>
      <trkpt lat="46.42549" lon="5.39471">
        <ele>468.4</ele>
        <time>2022-08-09T12:20:11Z</time>
      </trkpt>
      <trkpt lat="46.42539" lon="5.39476">
        <ele>468</ele>
        <time>2022-08-09T12:20:12Z</time>
      </trkpt>
      <trkpt lat="46.42509" lon="5.39489">
        <ele>467.2</ele>
        <time>2022-08-09T12:20:15Z</time>
      </trkpt>
      <trkpt lat="46.4249" lon="5.39497">
        <ele>466.8</ele>
        <time>2022-08-09T12:20:17Z</time>
      </trkpt>
      <trkpt lat="46.42462" lon="5.39508">
        <ele>466</ele>
        <time>2022-08-09T12:20:20Z</time>
      </trkpt>
      <trkpt lat="46.42435" lon="5.39521">
        <ele>465.4</ele>
        <time>2022-08-09T12:20:23Z</time>
      </trkpt>
      <trkpt lat="46.424" lon="5.39536">
        <ele>464.6</ele>
        <time>2022-08-09T12:20:27Z</time>
      </trkpt>
      <trkpt lat="46.42382" lon="5.39545">
        <ele>464.4</ele>
        <time>2022-08-09T12:20:29Z</time>
      </trkpt>
      <trkpt lat="46.42374" lon="5.39549">
        <ele>464.2</ele>
        <time>2022-08-09T12:20:30Z</time>
      </trkpt>
      <trkpt lat="46.4236" lon="5.39564">
        <ele>463.8</ele>
        <time>2022-08-09T12:20:32Z</time>
      </trkpt>
      <trkpt lat="46.42351" lon="5.39585">
        <ele>463.4</ele>
        <time>2022-08-09T12:20:34Z</time>
      </trkpt>
      <trkpt lat="46.4235" lon="5.39597">
        <ele>463</ele>
        <time>2022-08-09T12:20:35Z</time>
      </trkpt>
      <trkpt lat="46.42351" lon="5.3961">
        <ele>462.6</ele>
        <time>2022-08-09T12:20:36Z</time>
      </trkpt>
      <trkpt lat="46.42354" lon="5.39622">
        <ele>462</ele>
        <time>2022-08-09T12:20:37Z</time>
      </trkpt>
      <trkpt lat="46.42357" lon="5.39634">
        <ele>461.8</ele>
        <time>2022-08-09T12:20:38Z</time>
      </trkpt>
      <trkpt lat="46.42376" lon="5.39672">
        <ele>460.8</ele>
        <time>2022-08-09T12:20:42Z</time>
      </trkpt>
      <trkpt lat="46.42381" lon="5.3968">
        <ele>460.8</ele>
        <time>2022-08-09T12:20:43Z</time>
      </trkpt>
      <trkpt lat="46.4239" lon="5.39698">
        <ele>460.6</ele>
        <time>2022-08-09T12:20:45Z</time>
      </trkpt>
      <trkpt lat="46.42393" lon="5.39708">
        <ele>460.4</ele>
        <time>2022-08-09T12:20:46Z</time>
      </trkpt>
      <trkpt lat="46.42397" lon="5.39729">
        <ele>460.2</ele>
        <time>2022-08-09T12:20:48Z</time>
      </trkpt>
      <trkpt lat="46.42397" lon="5.3974">
        <ele>460</ele>
        <time>2022-08-09T12:20:49Z</time>
      </trkpt>
      <trkpt lat="46.42396" lon="5.39776">
        <ele>459.6</ele>
        <time>2022-08-09T12:20:52Z</time>
      </trkpt>
      <trkpt lat="46.42395" lon="5.39814">
        <ele>459.2</ele>
        <time>2022-08-09T12:20:55Z</time>
      </trkpt>
      <trkpt lat="46.42394" lon="5.39855">
        <ele>458.6</ele>
        <time>2022-08-09T12:20:58Z</time>
      </trkpt>
      <trkpt lat="46.42392" lon="5.39911">
        <ele>457</ele>
        <time>2022-08-09T12:21:02Z</time>
      </trkpt>
      <trkpt lat="46.42391" lon="5.39953">
        <ele>455.8</ele>
        <time>2022-08-09T12:21:05Z</time>
      </trkpt>
      <trkpt lat="46.42389" lon="5.39979">
        <ele>455.4</ele>
        <time>2022-08-09T12:21:07Z</time>
      </trkpt>
      <trkpt lat="46.42385" lon="5.3999">
        <ele>455.2</ele>
        <time>2022-08-09T12:21:08Z</time>
      </trkpt>
      <trkpt lat="46.42379" lon="5.39998">
        <ele>455</ele>
        <time>2022-08-09T12:21:09Z</time>
      </trkpt>
      <trkpt lat="46.42372" lon="5.40004">
        <ele>454.6</ele>
        <time>2022-08-09T12:21:10Z</time>
      </trkpt>
      <trkpt lat="46.42363" lon="5.40008">
        <ele>454.4</ele>
        <time>2022-08-09T12:21:11Z</time>
      </trkpt>
      <trkpt lat="46.42337" lon="5.40018">
        <ele>453.6</ele>
        <time>2022-08-09T12:21:14Z</time>
      </trkpt>
      <trkpt lat="46.42327" lon="5.40021">
        <ele>453.2</ele>
        <time>2022-08-09T12:21:15Z</time>
      </trkpt>
      <trkpt lat="46.42309" lon="5.40027">
        <ele>452.2</ele>
        <time>2022-08-09T12:21:17Z</time>
      </trkpt>
      <trkpt lat="46.42255" lon="5.40043">
        <ele>451</ele>
        <time>2022-08-09T12:21:23Z</time>
      </trkpt>
      <trkpt lat="46.42246" lon="5.40046">
        <ele>450.8</ele>
        <time>2022-08-09T12:21:24Z</time>
      </trkpt>
      <trkpt lat="46.42187" lon="5.40063">
        <ele>450.2</ele>
        <time>2022-08-09T12:21:31Z</time>
      </trkpt>
      <trkpt lat="46.42171" lon="5.40068">
        <ele>449.8</ele>
        <time>2022-08-09T12:21:33Z</time>
      </trkpt>
      <trkpt lat="46.42135" lon="5.40079">
        <ele>448.8</ele>
        <time>2022-08-09T12:21:37Z</time>
      </trkpt>
      <trkpt lat="46.42125" lon="5.40081">
        <ele>448.4</ele>
        <time>2022-08-09T12:21:38Z</time>
      </trkpt>
      <trkpt lat="46.42115" lon="5.40083">
        <ele>448.2</ele>
        <time>2022-08-09T12:21:39Z</time>
      </trkpt>
      <trkpt lat="46.42106" lon="5.40082">
        <ele>447.8</ele>
        <time>2022-08-09T12:21:40Z</time>
      </trkpt>
      <trkpt lat="46.42096" lon="5.4008">
        <ele>447.6</ele>
        <time>2022-08-09T12:21:41Z</time>
      </trkpt>
      <trkpt lat="46.42076" lon="5.40075">
        <ele>446.4</ele>
        <time>2022-08-09T12:21:43Z</time>
      </trkpt>
      <trkpt lat="46.42037" lon="5.40061">
        <ele>445</ele>
        <time>2022-08-09T12:21:47Z</time>
      </trkpt>
      <trkpt lat="46.42006" lon="5.40054">
        <ele>444</ele>
        <time>2022-08-09T12:21:50Z</time>
      </trkpt>
      <trkpt lat="46.41974" lon="5.40049">
        <ele>443</ele>
        <time>2022-08-09T12:21:53Z</time>
      </trkpt>
      <trkpt lat="46.41963" lon="5.40049">
        <ele>442.6</ele>
        <time>2022-08-09T12:21:54Z</time>
      </trkpt>
      <trkpt lat="46.41952" lon="5.40049">
        <ele>442</ele>
        <time>2022-08-09T12:21:55Z</time>
      </trkpt>
      <trkpt lat="46.41919" lon="5.40053">
        <ele>440.8</ele>
        <time>2022-08-09T12:21:58Z</time>
      </trkpt>
      <trkpt lat="46.41907" lon="5.40053">
        <ele>440.4</ele>
        <time>2022-08-09T12:21:59Z</time>
      </trkpt>
      <trkpt lat="46.41885" lon="5.40051">
        <ele>439.2</ele>
        <time>2022-08-09T12:22:01Z</time>
      </trkpt>
      <trkpt lat="46.41862" lon="5.40048">
        <ele>438.2</ele>
        <time>2022-08-09T12:22:03Z</time>
      </trkpt>
      <trkpt lat="46.41851" lon="5.40045">
        <ele>437.4</ele>
        <time>2022-08-09T12:22:04Z</time>
      </trkpt>
      <trkpt lat="46.41839" lon="5.40042">
        <ele>437.2</ele>
        <time>2022-08-09T12:22:05Z</time>
      </trkpt>
      <trkpt lat="46.41804" lon="5.40032">
        <ele>435.8</ele>
        <time>2022-08-09T12:22:08Z</time>
      </trkpt>
      <trkpt lat="46.41781" lon="5.40024">
        <ele>434.8</ele>
        <time>2022-08-09T12:22:10Z</time>
      </trkpt>
      <trkpt lat="46.41769" lon="5.40021">
        <ele>434</ele>
        <time>2022-08-09T12:22:11Z</time>
      </trkpt>
      <trkpt lat="46.41745" lon="5.40016">
        <ele>432.6</ele>
        <time>2022-08-09T12:22:13Z</time>
      </trkpt>
      <trkpt lat="46.41733" lon="5.40016">
        <ele>432.2</ele>
        <time>2022-08-09T12:22:14Z</time>
      </trkpt>
      <trkpt lat="46.41721" lon="5.40017">
        <ele>431.4</ele>
        <time>2022-08-09T12:22:15Z</time>
      </trkpt>
      <trkpt lat="46.41698" lon="5.40025">
        <ele>430.6</ele>
        <time>2022-08-09T12:22:17Z</time>
      </trkpt>
      <trkpt lat="46.41686" lon="5.40032">
        <ele>430</ele>
        <time>2022-08-09T12:22:18Z</time>
      </trkpt>
      <trkpt lat="46.41654" lon="5.40056">
        <ele>429</ele>
        <time>2022-08-09T12:22:21Z</time>
      </trkpt>
      <trkpt lat="46.41643" lon="5.40064">
        <ele>428</ele>
        <time>2022-08-09T12:22:22Z</time>
      </trkpt>
      <trkpt lat="46.4162" lon="5.40078">
        <ele>427</ele>
        <time>2022-08-09T12:22:24Z</time>
      </trkpt>
      <trkpt lat="46.41608" lon="5.40083">
        <ele>426.4</ele>
        <time>2022-08-09T12:22:25Z</time>
      </trkpt>
      <trkpt lat="46.41597" lon="5.40088">
        <ele>425.8</ele>
        <time>2022-08-09T12:22:26Z</time>
      </trkpt>
      <trkpt lat="46.41585" lon="5.40092">
        <ele>424.6</ele>
        <time>2022-08-09T12:22:27Z</time>
      </trkpt>
      <trkpt lat="46.41562" lon="5.40098">
        <ele>423</ele>
        <time>2022-08-09T12:22:29Z</time>
      </trkpt>
      <trkpt lat="46.4155" lon="5.40101">
        <ele>422.2</ele>
        <time>2022-08-09T12:22:30Z</time>
      </trkpt>
      <trkpt lat="46.41538" lon="5.40102">
        <ele>421.8</ele>
        <time>2022-08-09T12:22:31Z</time>
      </trkpt>
      <trkpt lat="46.41504" lon="5.40104">
        <ele>420.6</ele>
        <time>2022-08-09T12:22:34Z</time>
      </trkpt>
      <trkpt lat="46.41482" lon="5.40106">
        <ele>419.8</ele>
        <time>2022-08-09T12:22:36Z</time>
      </trkpt>
      <trkpt lat="46.41471" lon="5.40107">
        <ele>419.4</ele>
        <time>2022-08-09T12:22:37Z</time>
      </trkpt>
      <trkpt lat="46.41428" lon="5.40109">
        <ele>418.2</ele>
        <time>2022-08-09T12:22:41Z</time>
      </trkpt>
      <trkpt lat="46.41417" lon="5.4011">
        <ele>417.2</ele>
        <time>2022-08-09T12:22:42Z</time>
      </trkpt>
      <trkpt lat="46.41407" lon="5.4011">
        <ele>416.8</ele>
        <time>2022-08-09T12:22:43Z</time>
      </trkpt>
      <trkpt lat="46.41364" lon="5.4011">
        <ele>415.6</ele>
        <time>2022-08-09T12:22:47Z</time>
      </trkpt>
      <trkpt lat="46.41331" lon="5.4011">
        <ele>414.4</ele>
        <time>2022-08-09T12:22:50Z</time>
      </trkpt>
      <trkpt lat="46.41321" lon="5.40109">
        <ele>413.8</ele>
        <time>2022-08-09T12:22:51Z</time>
      </trkpt>
      <trkpt lat="46.413" lon="5.4011">
        <ele>413</ele>
        <time>2022-08-09T12:22:53Z</time>
      </trkpt>
      <trkpt lat="46.4125" lon="5.40115">
        <ele>411.8</ele>
        <time>2022-08-09T12:22:58Z</time>
      </trkpt>
      <trkpt lat="46.41204" lon="5.40131">
        <ele>411.2</ele>
        <time>2022-08-09T12:23:03Z</time>
      </trkpt>
      <trkpt lat="46.41187" lon="5.4014">
        <ele>410.6</ele>
        <time>2022-08-09T12:23:05Z</time>
      </trkpt>
      <trkpt lat="46.41154" lon="5.40159">
        <ele>410</ele>
        <time>2022-08-09T12:23:09Z</time>
      </trkpt>
      <trkpt lat="46.41137" lon="5.40167">
        <ele>409.6</ele>
        <time>2022-08-09T12:23:11Z</time>
      </trkpt>
      <trkpt lat="46.41105" lon="5.40179">
        <ele>409.2</ele>
        <time>2022-08-09T12:23:15Z</time>
      </trkpt>
      <trkpt lat="46.41072" lon="5.4018">
        <ele>408.8</ele>
        <time>2022-08-09T12:23:19Z</time>
      </trkpt>
      <trkpt lat="46.41055" lon="5.40177">
        <ele>408.6</ele>
        <time>2022-08-09T12:23:21Z</time>
      </trkpt>
      <trkpt lat="46.40998" lon="5.40165">
        <ele>407.4</ele>
        <time>2022-08-09T12:23:28Z</time>
      </trkpt>
      <trkpt lat="46.40943" lon="5.40152">
        <ele>406.8</ele>
        <time>2022-08-09T12:23:35Z</time>
      </trkpt>
      <trkpt lat="46.40928" lon="5.40146">
        <ele>406.6</ele>
        <time>2022-08-09T12:23:37Z</time>
      </trkpt>
      <trkpt lat="46.40914" lon="5.40132">
        <ele>406.6</ele>
        <time>2022-08-09T12:23:39Z</time>
      </trkpt>
      <trkpt lat="46.40909" lon="5.40122">
        <ele>406.4</ele>
        <time>2022-08-09T12:23:40Z</time>
      </trkpt>
      <trkpt lat="46.40905" lon="5.4011">
        <ele>406.4</ele>
        <time>2022-08-09T12:23:41Z</time>
      </trkpt>
      <trkpt lat="46.40897" lon="5.40074">
        <ele>405.6</ele>
        <time>2022-08-09T12:23:44Z</time>
      </trkpt>
      <trkpt lat="46.40891" lon="5.40053">
        <ele>405.4</ele>
        <time>2022-08-09T12:23:46Z</time>
      </trkpt>
      <trkpt lat="46.40884" lon="5.40024">
        <ele>405.6</ele>
        <time>2022-08-09T12:23:49Z</time>
      </trkpt>
      <trkpt lat="46.40874" lon="5.39985">
        <ele>407</ele>
        <time>2022-08-09T12:23:54Z</time>
      </trkpt>
      <trkpt lat="46.40872" lon="5.39978">
        <ele>407.4</ele>
        <time>2022-08-09T12:23:55Z</time>
      </trkpt>
      <trkpt lat="46.40865" lon="5.39959">
        <ele>408</ele>
        <time>2022-08-09T12:23:58Z</time>
      </trkpt>
      <trkpt lat="46.4086" lon="5.39947">
        <ele>408.6</ele>
        <time>2022-08-09T12:24:00Z</time>
      </trkpt>
      <trkpt lat="46.40858" lon="5.39942">
        <ele>409</ele>
        <time>2022-08-09T12:24:01Z</time>
      </trkpt>
      <trkpt lat="46.40852" lon="5.39927">
        <ele>410.2</ele>
        <time>2022-08-09T12:24:04Z</time>
      </trkpt>
      <trkpt lat="46.4085" lon="5.39922">
        <ele>410.6</ele>
        <time>2022-08-09T12:24:05Z</time>
      </trkpt>
      <trkpt lat="46.40842" lon="5.39908">
        <ele>412</ele>
        <time>2022-08-09T12:24:08Z</time>
      </trkpt>
      <trkpt lat="46.40839" lon="5.39903">
        <ele>412.4</ele>
        <time>2022-08-09T12:24:09Z</time>
      </trkpt>
      <trkpt lat="46.40831" lon="5.39893">
        <ele>413</ele>
        <time>2022-08-09T12:24:11Z</time>
      </trkpt>
      <trkpt lat="46.40826" lon="5.39889">
        <ele>413</ele>
        <time>2022-08-09T12:24:12Z</time>
      </trkpt>
      <trkpt lat="46.40816" lon="5.39882">
        <ele>413.2</ele>
        <time>2022-08-09T12:24:14Z</time>
      </trkpt>
      <trkpt lat="46.40804" lon="5.39876">
        <ele>413.2</ele>
        <time>2022-08-09T12:24:16Z</time>
      </trkpt>
      <trkpt lat="46.40768" lon="5.39853">
        <ele>412.4</ele>
        <time>2022-08-09T12:24:22Z</time>
      </trkpt>
      <trkpt lat="46.40732" lon="5.39827">
        <ele>412</ele>
        <time>2022-08-09T12:24:28Z</time>
      </trkpt>
      <trkpt lat="46.40695" lon="5.39801">
        <ele>411.4</ele>
        <time>2022-08-09T12:24:34Z</time>
      </trkpt>
      <trkpt lat="46.40689" lon="5.39795">
        <ele>411.2</ele>
        <time>2022-08-09T12:24:35Z</time>
      </trkpt>
      <trkpt lat="46.40656" lon="5.39751">
        <ele>411.8</ele>
        <time>2022-08-09T12:24:42Z</time>
      </trkpt>
      <trkpt lat="46.40636" lon="5.39724">
        <ele>412.8</ele>
        <time>2022-08-09T12:24:47Z</time>
      </trkpt>
      <trkpt lat="46.40633" lon="5.39719">
        <ele>413</ele>
        <time>2022-08-09T12:24:48Z</time>
      </trkpt>
      <trkpt lat="46.40621" lon="5.39701">
        <ele>413.6</ele>
        <time>2022-08-09T12:24:52Z</time>
      </trkpt>
      <trkpt lat="46.40618" lon="5.39696">
        <ele>414</ele>
        <time>2022-08-09T12:24:53Z</time>
      </trkpt>
      <trkpt lat="46.40616" lon="5.39691">
        <ele>414.2</ele>
        <time>2022-08-09T12:24:54Z</time>
      </trkpt>
      <trkpt lat="46.4061" lon="5.39671">
        <ele>415.2</ele>
        <time>2022-08-09T12:24:58Z</time>
      </trkpt>
      <trkpt lat="46.40608" lon="5.39667">
        <ele>415.4</ele>
        <time>2022-08-09T12:24:59Z</time>
      </trkpt>
      <trkpt lat="46.40606" lon="5.39658">
        <ele>416.2</ele>
        <time>2022-08-09T12:25:01Z</time>
      </trkpt>
      <trkpt lat="46.40603" lon="5.39649">
        <ele>417.4</ele>
        <time>2022-08-09T12:25:03Z</time>
      </trkpt>
      <trkpt lat="46.40598" lon="5.39635">
        <ele>418</ele>
        <time>2022-08-09T12:25:06Z</time>
      </trkpt>
      <trkpt lat="46.40596" lon="5.39631">
        <ele>418.4</ele>
        <time>2022-08-09T12:25:07Z</time>
      </trkpt>
      <trkpt lat="46.40589" lon="5.39614">
        <ele>419.6</ele>
        <time>2022-08-09T12:25:11Z</time>
      </trkpt>
      <trkpt lat="46.40581" lon="5.39602">
        <ele>420.6</ele>
        <time>2022-08-09T12:25:14Z</time>
      </trkpt>
      <trkpt lat="46.40579" lon="5.39599">
        <ele>421</ele>
        <time>2022-08-09T12:25:15Z</time>
      </trkpt>
      <trkpt lat="46.40564" lon="5.39581">
        <ele>422</ele>
        <time>2022-08-09T12:25:20Z</time>
      </trkpt>
      <trkpt lat="46.4056" lon="5.39578">
        <ele>422.2</ele>
        <time>2022-08-09T12:25:21Z</time>
      </trkpt>
      <trkpt lat="46.40544" lon="5.39563">
        <ele>423.2</ele>
        <time>2022-08-09T12:25:25Z</time>
      </trkpt>
      <trkpt lat="46.4054" lon="5.39559">
        <ele>423.2</ele>
        <time>2022-08-09T12:25:26Z</time>
      </trkpt>
      <trkpt lat="46.40507" lon="5.39528">
        <ele>423.4</ele>
        <time>2022-08-09T12:25:33Z</time>
      </trkpt>
      <trkpt lat="46.40466" lon="5.39489">
        <ele>423.8</ele>
        <time>2022-08-09T12:25:42Z</time>
      </trkpt>
      <trkpt lat="46.40447" lon="5.39471">
        <ele>424.2</ele>
        <time>2022-08-09T12:25:46Z</time>
      </trkpt>
      <trkpt lat="46.40424" lon="5.39452">
        <ele>424.2</ele>
        <time>2022-08-09T12:25:51Z</time>
      </trkpt>
      <trkpt lat="46.40391" lon="5.3943">
        <ele>424.6</ele>
        <time>2022-08-09T12:25:57Z</time>
      </trkpt>
      <trkpt lat="46.40348" lon="5.39407">
        <ele>424.2</ele>
        <time>2022-08-09T12:26:03Z</time>
      </trkpt>
      <trkpt lat="46.40299" lon="5.39397">
        <ele>423.2</ele>
        <time>2022-08-09T12:26:09Z</time>
      </trkpt>
      <trkpt lat="46.4029" lon="5.39396">
        <ele>423</ele>
        <time>2022-08-09T12:26:10Z</time>
      </trkpt>
      <trkpt lat="46.40263" lon="5.39391">
        <ele>422.4</ele>
        <time>2022-08-09T12:26:13Z</time>
      </trkpt>
      <trkpt lat="46.40253" lon="5.39388">
        <ele>422.2</ele>
        <time>2022-08-09T12:26:14Z</time>
      </trkpt>
      <trkpt lat="46.40244" lon="5.39383">
        <ele>422</ele>
        <time>2022-08-09T12:26:15Z</time>
      </trkpt>
      <trkpt lat="46.40228" lon="5.39369">
        <ele>421.4</ele>
        <time>2022-08-09T12:26:17Z</time>
      </trkpt>
      <trkpt lat="46.4022" lon="5.39361">
        <ele>421</ele>
        <time>2022-08-09T12:26:18Z</time>
      </trkpt>
      <trkpt lat="46.40189" lon="5.39327">
        <ele>419.6</ele>
        <time>2022-08-09T12:26:22Z</time>
      </trkpt>
      <trkpt lat="46.40162" lon="5.39297">
        <ele>419</ele>
        <time>2022-08-09T12:26:26Z</time>
      </trkpt>
      <trkpt lat="46.40155" lon="5.3929">
        <ele>418.8</ele>
        <time>2022-08-09T12:26:27Z</time>
      </trkpt>
      <trkpt lat="46.40126" lon="5.39256">
        <ele>419</ele>
        <time>2022-08-09T12:26:32Z</time>
      </trkpt>
      <trkpt lat="46.40091" lon="5.39219">
        <ele>419.6</ele>
        <time>2022-08-09T12:26:39Z</time>
      </trkpt>
      <trkpt lat="46.40051" lon="5.39177">
        <ele>420.6</ele>
        <time>2022-08-09T12:26:47Z</time>
      </trkpt>
      <trkpt lat="46.4003" lon="5.39156">
        <ele>420.8</ele>
        <time>2022-08-09T12:26:51Z</time>
      </trkpt>
      <trkpt lat="46.40001" lon="5.39123">
        <ele>421.4</ele>
        <time>2022-08-09T12:26:57Z</time>
      </trkpt>
      <trkpt lat="46.39971" lon="5.39082">
        <ele>421.8</ele>
        <time>2022-08-09T12:27:04Z</time>
      </trkpt>
      <trkpt lat="46.39967" lon="5.39076">
        <ele>422</ele>
        <time>2022-08-09T12:27:05Z</time>
      </trkpt>
      <trkpt lat="46.39938" lon="5.39035">
        <ele>422.6</ele>
        <time>2022-08-09T12:27:12Z</time>
      </trkpt>
      <trkpt lat="46.39896" lon="5.38975">
        <ele>423</ele>
        <time>2022-08-09T12:27:22Z</time>
      </trkpt>
      <trkpt lat="46.39874" lon="5.38943">
        <ele>423.8</ele>
        <time>2022-08-09T12:27:28Z</time>
      </trkpt>
      <trkpt lat="46.39866" lon="5.38934">
        <ele>424</ele>
        <time>2022-08-09T12:27:30Z</time>
      </trkpt>
      <trkpt lat="46.39849" lon="5.3891">
        <ele>425.2</ele>
        <time>2022-08-09T12:27:35Z</time>
      </trkpt>
      <trkpt lat="46.39846" lon="5.38905">
        <ele>425.6</ele>
        <time>2022-08-09T12:27:36Z</time>
      </trkpt>
      <trkpt lat="46.39833" lon="5.38885">
        <ele>426.4</ele>
        <time>2022-08-09T12:27:40Z</time>
      </trkpt>
      <trkpt lat="46.39812" lon="5.38857">
        <ele>427</ele>
        <time>2022-08-09T12:27:46Z</time>
      </trkpt>
      <trkpt lat="46.39803" lon="5.38843">
        <ele>427.6</ele>
        <time>2022-08-09T12:27:49Z</time>
      </trkpt>
      <trkpt lat="46.39787" lon="5.38819">
        <ele>428.6</ele>
        <time>2022-08-09T12:27:54Z</time>
      </trkpt>
      <trkpt lat="46.39772" lon="5.388">
        <ele>429.4</ele>
        <time>2022-08-09T12:27:58Z</time>
      </trkpt>
      <trkpt lat="46.39769" lon="5.38795">
        <ele>429.8</ele>
        <time>2022-08-09T12:27:59Z</time>
      </trkpt>
      <trkpt lat="46.39751" lon="5.38771">
        <ele>430.8</ele>
        <time>2022-08-09T12:28:04Z</time>
      </trkpt>
      <trkpt lat="46.3974" lon="5.38756">
        <ele>431.2</ele>
        <time>2022-08-09T12:28:07Z</time>
      </trkpt>
      <trkpt lat="46.39723" lon="5.38732">
        <ele>432</ele>
        <time>2022-08-09T12:28:12Z</time>
      </trkpt>
      <trkpt lat="46.39706" lon="5.38704">
        <ele>432.2</ele>
        <time>2022-08-09T12:28:17Z</time>
      </trkpt>
      <trkpt lat="46.39673" lon="5.38637">
        <ele>432.8</ele>
        <time>2022-08-09T12:28:27Z</time>
      </trkpt>
      <trkpt lat="46.39653" lon="5.38589">
        <ele>432.8</ele>
        <time>2022-08-09T12:28:34Z</time>
      </trkpt>
      <trkpt lat="46.39651" lon="5.38582">
        <ele>432.8</ele>
        <time>2022-08-09T12:28:35Z</time>
      </trkpt>
      <trkpt lat="46.39649" lon="5.38574">
        <ele>432.6</ele>
        <time>2022-08-09T12:28:36Z</time>
      </trkpt>
      <trkpt lat="46.39638" lon="5.38552">
        <ele>432.6</ele>
        <time>2022-08-09T12:28:39Z</time>
      </trkpt>
      <trkpt lat="46.39633" lon="5.38545">
        <ele>432.6</ele>
        <time>2022-08-09T12:28:40Z</time>
      </trkpt>
      <trkpt lat="46.39607" lon="5.38518">
        <ele>432.2</ele>
        <time>2022-08-09T12:28:44Z</time>
      </trkpt>
      <trkpt lat="46.39572" lon="5.38492">
        <ele>430.6</ele>
        <time>2022-08-09T12:28:49Z</time>
      </trkpt>
      <trkpt lat="46.39541" lon="5.38475">
        <ele>430</ele>
        <time>2022-08-09T12:28:54Z</time>
      </trkpt>
      <trkpt lat="46.39482" lon="5.38451">
        <ele>431.4</ele>
        <time>2022-08-09T12:29:03Z</time>
      </trkpt>
      <trkpt lat="46.39431" lon="5.3843">
        <ele>431.6</ele>
        <time>2022-08-09T12:29:10Z</time>
      </trkpt>
      <trkpt lat="46.39378" lon="5.38401">
        <ele>431.2</ele>
        <time>2022-08-09T12:29:17Z</time>
      </trkpt>
      <trkpt lat="46.39363" lon="5.38391">
        <ele>431</ele>
        <time>2022-08-09T12:29:19Z</time>
      </trkpt>
      <trkpt lat="46.39327" lon="5.38368">
        <ele>430.4</ele>
        <time>2022-08-09T12:29:24Z</time>
      </trkpt>
      <trkpt lat="46.39287" lon="5.38352">
        <ele>430.4</ele>
        <time>2022-08-09T12:29:30Z</time>
      </trkpt>
      <trkpt lat="46.39249" lon="5.38337">
        <ele>431.6</ele>
        <time>2022-08-09T12:29:36Z</time>
      </trkpt>
      <trkpt lat="46.39238" lon="5.38332">
        <ele>432</ele>
        <time>2022-08-09T12:29:38Z</time>
      </trkpt>
      <trkpt lat="46.39208" lon="5.3832">
        <ele>432.2</ele>
        <time>2022-08-09T12:29:43Z</time>
      </trkpt>
      <trkpt lat="46.39152" lon="5.38296">
        <ele>432.8</ele>
        <time>2022-08-09T12:29:52Z</time>
      </trkpt>
      <trkpt lat="46.39145" lon="5.38294">
        <ele>432.8</ele>
        <time>2022-08-09T12:29:53Z</time>
      </trkpt>
      <trkpt lat="46.39099" lon="5.3828">
        <ele>432.6</ele>
        <time>2022-08-09T12:30:00Z</time>
      </trkpt>
      <trkpt lat="46.39045" lon="5.38271">
        <ele>432.4</ele>
        <time>2022-08-09T12:30:08Z</time>
      </trkpt>
      <trkpt lat="46.39038" lon="5.3827">
        <ele>432.4</ele>
        <time>2022-08-09T12:30:09Z</time>
      </trkpt>
      <trkpt lat="46.38993" lon="5.38264">
        <ele>433</ele>
        <time>2022-08-09T12:30:16Z</time>
      </trkpt>
      <trkpt lat="46.38968" lon="5.3826">
        <ele>433.2</ele>
        <time>2022-08-09T12:30:20Z</time>
      </trkpt>
      <trkpt lat="46.38943" lon="5.38256">
        <ele>433.6</ele>
        <time>2022-08-09T12:30:24Z</time>
      </trkpt>
      <trkpt lat="46.38885" lon="5.38246">
        <ele>434</ele>
        <time>2022-08-09T12:30:33Z</time>
      </trkpt>
      <trkpt lat="46.38878" lon="5.38245">
        <ele>434</ele>
        <time>2022-08-09T12:30:34Z</time>
      </trkpt>
      <trkpt lat="46.38825" lon="5.38236">
        <ele>434</ele>
        <time>2022-08-09T12:30:42Z</time>
      </trkpt>
      <trkpt lat="46.38771" lon="5.38228">
        <ele>434</ele>
        <time>2022-08-09T12:30:50Z</time>
      </trkpt>
      <trkpt lat="46.38758" lon="5.38226">
        <ele>434</ele>
        <time>2022-08-09T12:30:52Z</time>
      </trkpt>
      <trkpt lat="46.38703" lon="5.38218">
        <ele>433.6</ele>
        <time>2022-08-09T12:31:00Z</time>
      </trkpt>
      <trkpt lat="46.38658" lon="5.382">
        <ele>433.6</ele>
        <time>2022-08-09T12:31:07Z</time>
      </trkpt>
      <trkpt lat="46.38631" lon="5.38178">
        <ele>433.6</ele>
        <time>2022-08-09T12:31:12Z</time>
      </trkpt>
      <trkpt lat="46.38596" lon="5.38139">
        <ele>434.4</ele>
        <time>2022-08-09T12:31:20Z</time>
      </trkpt>
      <trkpt lat="46.38592" lon="5.38134">
        <ele>434.6</ele>
        <time>2022-08-09T12:31:21Z</time>
      </trkpt>
      <trkpt lat="46.38564" lon="5.38103">
        <ele>435.4</ele>
        <time>2022-08-09T12:31:28Z</time>
      </trkpt>
      <trkpt lat="46.38556" lon="5.38094">
        <ele>435.6</ele>
        <time>2022-08-09T12:31:30Z</time>
      </trkpt>
      <trkpt lat="46.38527" lon="5.3806">
        <ele>436.4</ele>
        <time>2022-08-09T12:31:38Z</time>
      </trkpt>
      <trkpt lat="46.38519" lon="5.38052">
        <ele>436.8</ele>
        <time>2022-08-09T12:31:40Z</time>
      </trkpt>
      <trkpt lat="46.38489" lon="5.38017">
        <ele>437.6</ele>
        <time>2022-08-09T12:31:49Z</time>
      </trkpt>
      <trkpt lat="46.38486" lon="5.38013">
        <ele>437.8</ele>
        <time>2022-08-09T12:31:50Z</time>
      </trkpt>
      <trkpt lat="46.3848" lon="5.38006">
        <ele>438</ele>
        <time>2022-08-09T12:31:52Z</time>
      </trkpt>
      <trkpt lat="46.38465" lon="5.37989">
        <ele>439.2</ele>
        <time>2022-08-09T12:31:57Z</time>
      </trkpt>
      <trkpt lat="46.38462" lon="5.37985">
        <ele>439.2</ele>
        <time>2022-08-09T12:31:58Z</time>
      </trkpt>
      <trkpt lat="46.38453" lon="5.37975">
        <ele>440.2</ele>
        <time>2022-08-09T12:32:01Z</time>
      </trkpt>
      <trkpt lat="46.38436" lon="5.37957">
        <ele>441.2</ele>
        <time>2022-08-09T12:32:07Z</time>
      </trkpt>
      <trkpt lat="46.3843" lon="5.37951">
        <ele>441.6</ele>
        <time>2022-08-09T12:32:09Z</time>
      </trkpt>
      <trkpt lat="46.38417" lon="5.37938">
        <ele>442.2</ele>
        <time>2022-08-09T12:32:14Z</time>
      </trkpt>
      <trkpt lat="46.38405" lon="5.37927">
        <ele>443.4</ele>
        <time>2022-08-09T12:32:18Z</time>
      </trkpt>
      <trkpt lat="46.3839" lon="5.37914">
        <ele>444.6</ele>
        <time>2022-08-09T12:32:23Z</time>
      </trkpt>
      <trkpt lat="46.38381" lon="5.37905">
        <ele>445</ele>
        <time>2022-08-09T12:32:26Z</time>
      </trkpt>
      <trkpt lat="46.38367" lon="5.37893">
        <ele>445.6</ele>
        <time>2022-08-09T12:32:31Z</time>
      </trkpt>
      <trkpt lat="46.3835" lon="5.37878">
        <ele>446.8</ele>
        <time>2022-08-09T12:32:37Z</time>
      </trkpt>
      <trkpt lat="46.38332" lon="5.37865">
        <ele>447.8</ele>
        <time>2022-08-09T12:32:43Z</time>
      </trkpt>
      <trkpt lat="46.38323" lon="5.37857">
        <ele>449</ele>
        <time>2022-08-09T12:32:46Z</time>
      </trkpt>
      <trkpt lat="46.3832" lon="5.37855">
        <ele>449</ele>
        <time>2022-08-09T12:32:47Z</time>
      </trkpt>
      <trkpt lat="46.38295" lon="5.3784">
        <ele>450</ele>
        <time>2022-08-09T12:32:55Z</time>
      </trkpt>
      <trkpt lat="46.38275" lon="5.37829">
        <ele>451.2</ele>
        <time>2022-08-09T12:33:01Z</time>
      </trkpt>
      <trkpt lat="46.38272" lon="5.37827">
        <ele>451.6</ele>
        <time>2022-08-09T12:33:02Z</time>
      </trkpt>
      <trkpt lat="46.38269" lon="5.37825">
        <ele>451.6</ele>
        <time>2022-08-09T12:33:03Z</time>
      </trkpt>
      <trkpt lat="46.38255" lon="5.37817">
        <ele>452.2</ele>
        <time>2022-08-09T12:33:07Z</time>
      </trkpt>
      <trkpt lat="46.3824" lon="5.37804">
        <ele>452.8</ele>
        <time>2022-08-09T12:33:12Z</time>
      </trkpt>
      <trkpt lat="46.38227" lon="5.37792">
        <ele>453.6</ele>
        <time>2022-08-09T12:33:16Z</time>
      </trkpt>
      <trkpt lat="46.38216" lon="5.3778">
        <ele>454</ele>
        <time>2022-08-09T12:33:19Z</time>
      </trkpt>
      <trkpt lat="46.38197" lon="5.37759">
        <ele>454.6</ele>
        <time>2022-08-09T12:33:24Z</time>
      </trkpt>
      <trkpt lat="46.38193" lon="5.37755">
        <ele>454.8</ele>
        <time>2022-08-09T12:33:25Z</time>
      </trkpt>
      <trkpt lat="46.38185" lon="5.37746">
        <ele>455.2</ele>
        <time>2022-08-09T12:33:27Z</time>
      </trkpt>
      <trkpt lat="46.38173" lon="5.37732">
        <ele>455.8</ele>
        <time>2022-08-09T12:33:30Z</time>
      </trkpt>
      <trkpt lat="46.38165" lon="5.37723">
        <ele>456.2</ele>
        <time>2022-08-09T12:33:32Z</time>
      </trkpt>
      <trkpt lat="46.3815" lon="5.37706">
        <ele>457</ele>
        <time>2022-08-09T12:33:36Z</time>
      </trkpt>
      <trkpt lat="46.38136" lon="5.3769">
        <ele>457.4</ele>
        <time>2022-08-09T12:33:40Z</time>
      </trkpt>
      <trkpt lat="46.38123" lon="5.37674">
        <ele>458.6</ele>
        <time>2022-08-09T12:33:44Z</time>
      </trkpt>
      <trkpt lat="46.38107" lon="5.37654">
        <ele>459.6</ele>
        <time>2022-08-09T12:33:49Z</time>
      </trkpt>
      <trkpt lat="46.38075" lon="5.37614">
        <ele>460.6</ele>
        <time>2022-08-09T12:33:59Z</time>
      </trkpt>
      <trkpt lat="46.38072" lon="5.3761">
        <ele>460.6</ele>
        <time>2022-08-09T12:34:00Z</time>
      </trkpt>
      <trkpt lat="46.38051" lon="5.37582">
        <ele>461.6</ele>
        <time>2022-08-09T12:34:07Z</time>
      </trkpt>
      <trkpt lat="46.38048" lon="5.37578">
        <ele>461.8</ele>
        <time>2022-08-09T12:34:08Z</time>
      </trkpt>
      <trkpt lat="46.38044" lon="5.37575">
        <ele>462</ele>
        <time>2022-08-09T12:34:09Z</time>
      </trkpt>
      <trkpt lat="46.38041" lon="5.37571">
        <ele>462.4</ele>
        <time>2022-08-09T12:34:10Z</time>
      </trkpt>
      <trkpt lat="46.38033" lon="5.37559">
        <ele>462.8</ele>
        <time>2022-08-09T12:34:13Z</time>
      </trkpt>
      <trkpt lat="46.38021" lon="5.37544">
        <ele>463.4</ele>
        <time>2022-08-09T12:34:17Z</time>
      </trkpt>
      <trkpt lat="46.38012" lon="5.37533">
        <ele>463.8</ele>
        <time>2022-08-09T12:34:20Z</time>
      </trkpt>
      <trkpt lat="46.37998" lon="5.37516">
        <ele>464.6</ele>
        <time>2022-08-09T12:34:25Z</time>
      </trkpt>
      <trkpt lat="46.37995" lon="5.37513">
        <ele>464.8</ele>
        <time>2022-08-09T12:34:26Z</time>
      </trkpt>
      <trkpt lat="46.37978" lon="5.37499">
        <ele>466</ele>
        <time>2022-08-09T12:34:31Z</time>
      </trkpt>
      <trkpt lat="46.3797" lon="5.37496">
        <ele>466.4</ele>
        <time>2022-08-09T12:34:33Z</time>
      </trkpt>
      <trkpt lat="46.37967" lon="5.37494">
        <ele>467</ele>
        <time>2022-08-09T12:34:34Z</time>
      </trkpt>
      <trkpt lat="46.37951" lon="5.37486">
        <ele>468.2</ele>
        <time>2022-08-09T12:34:38Z</time>
      </trkpt>
      <trkpt lat="46.37947" lon="5.37484">
        <ele>468.4</ele>
        <time>2022-08-09T12:34:39Z</time>
      </trkpt>
      <trkpt lat="46.37918" lon="5.37474">
        <ele>469.2</ele>
        <time>2022-08-09T12:34:46Z</time>
      </trkpt>
      <trkpt lat="46.37905" lon="5.3747">
        <ele>469.2</ele>
        <time>2022-08-09T12:34:49Z</time>
      </trkpt>
      <trkpt lat="46.37892" lon="5.37467">
        <ele>469.4</ele>
        <time>2022-08-09T12:34:53Z</time>
      </trkpt>
      <trkpt lat="46.37889" lon="5.37465">
        <ele>469.6</ele>
        <time>2022-08-09T12:34:57Z</time>
      </trkpt>
      <trkpt lat="46.37889" lon="5.37465">
        <ele>469.6</ele>
        <time>2022-08-09T12:34:59Z</time>
      </trkpt>
      <trkpt lat="46.37887" lon="5.37466">
        <ele>469.6</ele>
        <time>2022-08-09T12:35:39Z</time>
      </trkpt>
      <trkpt lat="46.37884" lon="5.37466">
        <ele>469.6</ele>
        <time>2022-08-09T12:35:40Z</time>
      </trkpt>
      <trkpt lat="46.37867" lon="5.37472">
        <ele>469.6</ele>
        <time>2022-08-09T12:35:44Z</time>
      </trkpt>
      <trkpt lat="46.37841" lon="5.37491">
        <ele>469</ele>
        <time>2022-08-09T12:35:48Z</time>
      </trkpt>
      <trkpt lat="46.37812" lon="5.37517">
        <ele>467.6</ele>
        <time>2022-08-09T12:35:52Z</time>
      </trkpt>
      <trkpt lat="46.37803" lon="5.37523">
        <ele>467.2</ele>
        <time>2022-08-09T12:35:53Z</time>
      </trkpt>
      <trkpt lat="46.37795" lon="5.37528">
        <ele>466.6</ele>
        <time>2022-08-09T12:35:54Z</time>
      </trkpt>
      <trkpt lat="46.37785" lon="5.37532">
        <ele>466.4</ele>
        <time>2022-08-09T12:35:55Z</time>
      </trkpt>
      <trkpt lat="46.37765" lon="5.37537">
        <ele>465.8</ele>
        <time>2022-08-09T12:35:57Z</time>
      </trkpt>
      <trkpt lat="46.37743" lon="5.37542">
        <ele>465</ele>
        <time>2022-08-09T12:35:59Z</time>
      </trkpt>
      <trkpt lat="46.37708" lon="5.37544">
        <ele>464</ele>
        <time>2022-08-09T12:36:02Z</time>
      </trkpt>
      <trkpt lat="46.37684" lon="5.37542">
        <ele>462.4</ele>
        <time>2022-08-09T12:36:04Z</time>
      </trkpt>
      <trkpt lat="46.37659" lon="5.37539">
        <ele>460.4</ele>
        <time>2022-08-09T12:36:06Z</time>
      </trkpt>
      <trkpt lat="46.37646" lon="5.37537">
        <ele>459.8</ele>
        <time>2022-08-09T12:36:07Z</time>
      </trkpt>
      <trkpt lat="46.37633" lon="5.37534">
        <ele>459.2</ele>
        <time>2022-08-09T12:36:08Z</time>
      </trkpt>
      <trkpt lat="46.37606" lon="5.37529">
        <ele>458</ele>
        <time>2022-08-09T12:36:10Z</time>
      </trkpt>
      <trkpt lat="46.37567" lon="5.37521">
        <ele>456.4</ele>
        <time>2022-08-09T12:36:13Z</time>
      </trkpt>
      <trkpt lat="46.37542" lon="5.37517">
        <ele>455.4</ele>
        <time>2022-08-09T12:36:15Z</time>
      </trkpt>
      <trkpt lat="46.37507" lon="5.37511">
        <ele>453.8</ele>
        <time>2022-08-09T12:36:18Z</time>
      </trkpt>
      <trkpt lat="46.37496" lon="5.37508">
        <ele>453</ele>
        <time>2022-08-09T12:36:19Z</time>
      </trkpt>
      <trkpt lat="46.37485" lon="5.37507">
        <ele>451.8</ele>
        <time>2022-08-09T12:36:20Z</time>
      </trkpt>
      <trkpt lat="46.37465" lon="5.37506">
        <ele>450.4</ele>
        <time>2022-08-09T12:36:22Z</time>
      </trkpt>
      <trkpt lat="46.37455" lon="5.37507">
        <ele>449.4</ele>
        <time>2022-08-09T12:36:23Z</time>
      </trkpt>
      <trkpt lat="46.37446" lon="5.37509">
        <ele>448</ele>
        <time>2022-08-09T12:36:24Z</time>
      </trkpt>
      <trkpt lat="46.37424" lon="5.37513">
        <ele>446</ele>
        <time>2022-08-09T12:36:27Z</time>
      </trkpt>
      <trkpt lat="46.37411" lon="5.37511">
        <ele>444.6</ele>
        <time>2022-08-09T12:36:30Z</time>
      </trkpt>
      <trkpt lat="46.37403" lon="5.37512">
        <ele>444</ele>
        <time>2022-08-09T12:36:32Z</time>
      </trkpt>
      <trkpt lat="46.37394" lon="5.37518">
        <ele>443.4</ele>
        <time>2022-08-09T12:36:34Z</time>
      </trkpt>
      <trkpt lat="46.37385" lon="5.37526">
        <ele>443</ele>
        <time>2022-08-09T12:36:36Z</time>
      </trkpt>
      <trkpt lat="46.3737" lon="5.37544">
        <ele>442.8</ele>
        <time>2022-08-09T12:36:40Z</time>
      </trkpt>
      <trkpt lat="46.3734" lon="5.37582">
        <ele>444.6</ele>
        <time>2022-08-09T12:36:49Z</time>
      </trkpt>
      <trkpt lat="46.37337" lon="5.37586">
        <ele>444.8</ele>
        <time>2022-08-09T12:36:50Z</time>
      </trkpt>
      <trkpt lat="46.37332" lon="5.37595">
        <ele>445.6</ele>
        <time>2022-08-09T12:36:52Z</time>
      </trkpt>
      <trkpt lat="46.37324" lon="5.3761">
        <ele>446.4</ele>
        <time>2022-08-09T12:36:55Z</time>
      </trkpt>
      <trkpt lat="46.37321" lon="5.37615">
        <ele>446.6</ele>
        <time>2022-08-09T12:36:56Z</time>
      </trkpt>
      <trkpt lat="46.37319" lon="5.3762">
        <ele>447</ele>
        <time>2022-08-09T12:36:57Z</time>
      </trkpt>
      <trkpt lat="46.37312" lon="5.37633">
        <ele>447.8</ele>
        <time>2022-08-09T12:37:00Z</time>
      </trkpt>
      <trkpt lat="46.37305" lon="5.37645">
        <ele>448.8</ele>
        <time>2022-08-09T12:37:03Z</time>
      </trkpt>
      <trkpt lat="46.37299" lon="5.37657">
        <ele>449.4</ele>
        <time>2022-08-09T12:37:06Z</time>
      </trkpt>
      <trkpt lat="46.37295" lon="5.37664">
        <ele>449.8</ele>
        <time>2022-08-09T12:37:08Z</time>
      </trkpt>
      <trkpt lat="46.37286" lon="5.37679">
        <ele>451</ele>
        <time>2022-08-09T12:37:12Z</time>
      </trkpt>
      <trkpt lat="46.37274" lon="5.37699">
        <ele>451.8</ele>
        <time>2022-08-09T12:37:17Z</time>
      </trkpt>
      <trkpt lat="46.37272" lon="5.37703">
        <ele>452</ele>
        <time>2022-08-09T12:37:18Z</time>
      </trkpt>
      <trkpt lat="46.37251" lon="5.3774">
        <ele>453</ele>
        <time>2022-08-09T12:37:26Z</time>
      </trkpt>
      <trkpt lat="46.37248" lon="5.37745">
        <ele>453.2</ele>
        <time>2022-08-09T12:37:27Z</time>
      </trkpt>
      <trkpt lat="46.37226" lon="5.37785">
        <ele>454</ele>
        <time>2022-08-09T12:37:35Z</time>
      </trkpt>
      <trkpt lat="46.3722" lon="5.37795">
        <ele>454.2</ele>
        <time>2022-08-09T12:37:37Z</time>
      </trkpt>
      <trkpt lat="46.37199" lon="5.37832">
        <ele>455.2</ele>
        <time>2022-08-09T12:37:44Z</time>
      </trkpt>
      <trkpt lat="46.37195" lon="5.37838">
        <ele>455.4</ele>
        <time>2022-08-09T12:37:45Z</time>
      </trkpt>
      <trkpt lat="46.37192" lon="5.37844">
        <ele>455.4</ele>
        <time>2022-08-09T12:37:46Z</time>
      </trkpt>
      <trkpt lat="46.37174" lon="5.37881">
        <ele>456.2</ele>
        <time>2022-08-09T12:37:52Z</time>
      </trkpt>
      <trkpt lat="46.37146" lon="5.37944">
        <ele>457</ele>
        <time>2022-08-09T12:38:01Z</time>
      </trkpt>
      <trkpt lat="46.37126" lon="5.37986">
        <ele>457.2</ele>
        <time>2022-08-09T12:38:07Z</time>
      </trkpt>
      <trkpt lat="46.37114" lon="5.38015">
        <ele>457.4</ele>
        <time>2022-08-09T12:38:11Z</time>
      </trkpt>
      <trkpt lat="46.37083" lon="5.38081">
        <ele>457.8</ele>
        <time>2022-08-09T12:38:20Z</time>
      </trkpt>
      <trkpt lat="46.37075" lon="5.38094">
        <ele>457.8</ele>
        <time>2022-08-09T12:38:22Z</time>
      </trkpt>
      <trkpt lat="46.37061" lon="5.38118">
        <ele>458.2</ele>
        <time>2022-08-09T12:38:26Z</time>
      </trkpt>
      <trkpt lat="46.37052" lon="5.38134">
        <ele>459</ele>
        <time>2022-08-09T12:38:29Z</time>
      </trkpt>
      <trkpt lat="46.37045" lon="5.38144">
        <ele>459.4</ele>
        <time>2022-08-09T12:38:31Z</time>
      </trkpt>
      <trkpt lat="46.37032" lon="5.38164">
        <ele>460.6</ele>
        <time>2022-08-09T12:38:35Z</time>
      </trkpt>
      <trkpt lat="46.37022" lon="5.38179">
        <ele>461.6</ele>
        <time>2022-08-09T12:38:38Z</time>
      </trkpt>
      <trkpt lat="46.37006" lon="5.38208">
        <ele>462.8</ele>
        <time>2022-08-09T12:38:43Z</time>
      </trkpt>
      <trkpt lat="46.36991" lon="5.38235">
        <ele>463.6</ele>
        <time>2022-08-09T12:38:48Z</time>
      </trkpt>
      <trkpt lat="46.36988" lon="5.38241">
        <ele>463.8</ele>
        <time>2022-08-09T12:38:49Z</time>
      </trkpt>
      <trkpt lat="46.36964" lon="5.38281">
        <ele>465</ele>
        <time>2022-08-09T12:38:56Z</time>
      </trkpt>
      <trkpt lat="46.36954" lon="5.38298">
        <ele>465</ele>
        <time>2022-08-09T12:38:59Z</time>
      </trkpt>
      <trkpt lat="46.36921" lon="5.38348">
        <ele>466</ele>
        <time>2022-08-09T12:39:08Z</time>
      </trkpt>
      <trkpt lat="46.36893" lon="5.38397">
        <ele>466.4</ele>
        <time>2022-08-09T12:39:16Z</time>
      </trkpt>
      <trkpt lat="46.36855" lon="5.38462">
        <ele>467</ele>
        <time>2022-08-09T12:39:27Z</time>
      </trkpt>
      <trkpt lat="46.36843" lon="5.3848">
        <ele>467</ele>
        <time>2022-08-09T12:39:30Z</time>
      </trkpt>
      <trkpt lat="46.36835" lon="5.38493">
        <ele>467.2</ele>
        <time>2022-08-09T12:39:32Z</time>
      </trkpt>
      <trkpt lat="46.36808" lon="5.38524">
        <ele>467</ele>
        <time>2022-08-09T12:39:37Z</time>
      </trkpt>
      <trkpt lat="46.36766" lon="5.38555">
        <ele>466.4</ele>
        <time>2022-08-09T12:39:43Z</time>
      </trkpt>
      <trkpt lat="46.36718" lon="5.38577">
        <ele>465.2</ele>
        <time>2022-08-09T12:39:49Z</time>
      </trkpt>
      <trkpt lat="46.36709" lon="5.38579">
        <ele>465</ele>
        <time>2022-08-09T12:39:50Z</time>
      </trkpt>
      <trkpt lat="46.3667" lon="5.38583">
        <ele>464</ele>
        <time>2022-08-09T12:39:54Z</time>
      </trkpt>
      <trkpt lat="46.3666" lon="5.38584">
        <ele>463.8</ele>
        <time>2022-08-09T12:39:55Z</time>
      </trkpt>
      <trkpt lat="46.36639" lon="5.38586">
        <ele>462.6</ele>
        <time>2022-08-09T12:39:57Z</time>
      </trkpt>
      <trkpt lat="46.36607" lon="5.38597">
        <ele>461.8</ele>
        <time>2022-08-09T12:40:00Z</time>
      </trkpt>
      <trkpt lat="46.36597" lon="5.38603">
        <ele>461.6</ele>
        <time>2022-08-09T12:40:01Z</time>
      </trkpt>
      <trkpt lat="46.36564" lon="5.3862">
        <ele>460</ele>
        <time>2022-08-09T12:40:04Z</time>
      </trkpt>
      <trkpt lat="46.36541" lon="5.38632">
        <ele>458.8</ele>
        <time>2022-08-09T12:40:06Z</time>
      </trkpt>
      <trkpt lat="46.36529" lon="5.38638">
        <ele>458.2</ele>
        <time>2022-08-09T12:40:07Z</time>
      </trkpt>
      <trkpt lat="46.36517" lon="5.38644">
        <ele>457.8</ele>
        <time>2022-08-09T12:40:08Z</time>
      </trkpt>
      <trkpt lat="46.36493" lon="5.38657">
        <ele>457</ele>
        <time>2022-08-09T12:40:10Z</time>
      </trkpt>
      <trkpt lat="46.3648" lon="5.38663">
        <ele>455.8</ele>
        <time>2022-08-09T12:40:11Z</time>
      </trkpt>
      <trkpt lat="46.36455" lon="5.38676">
        <ele>454.8</ele>
        <time>2022-08-09T12:40:13Z</time>
      </trkpt>
      <trkpt lat="46.36442" lon="5.38682">
        <ele>454.6</ele>
        <time>2022-08-09T12:40:14Z</time>
      </trkpt>
      <trkpt lat="46.36417" lon="5.38694">
        <ele>452.8</ele>
        <time>2022-08-09T12:40:16Z</time>
      </trkpt>
      <trkpt lat="46.3639" lon="5.38704">
        <ele>451.8</ele>
        <time>2022-08-09T12:40:18Z</time>
      </trkpt>
      <trkpt lat="46.36377" lon="5.38708">
        <ele>451.2</ele>
        <time>2022-08-09T12:40:19Z</time>
      </trkpt>
      <trkpt lat="46.36364" lon="5.3871">
        <ele>450.4</ele>
        <time>2022-08-09T12:40:20Z</time>
      </trkpt>
      <trkpt lat="46.36336" lon="5.38712">
        <ele>448.8</ele>
        <time>2022-08-09T12:40:22Z</time>
      </trkpt>
      <trkpt lat="46.36322" lon="5.38713">
        <ele>447.6</ele>
        <time>2022-08-09T12:40:23Z</time>
      </trkpt>
      <trkpt lat="46.36308" lon="5.38712">
        <ele>447.2</ele>
        <time>2022-08-09T12:40:24Z</time>
      </trkpt>
      <trkpt lat="46.36294" lon="5.38712">
        <ele>446.2</ele>
        <time>2022-08-09T12:40:25Z</time>
      </trkpt>
      <trkpt lat="46.36267" lon="5.38712">
        <ele>444.8</ele>
        <time>2022-08-09T12:40:27Z</time>
      </trkpt>
      <trkpt lat="46.36239" lon="5.38712">
        <ele>443.4</ele>
        <time>2022-08-09T12:40:29Z</time>
      </trkpt>
      <trkpt lat="46.36211" lon="5.38713">
        <ele>442.2</ele>
        <time>2022-08-09T12:40:31Z</time>
      </trkpt>
      <trkpt lat="46.36182" lon="5.38713">
        <ele>440.6</ele>
        <time>2022-08-09T12:40:33Z</time>
      </trkpt>
      <trkpt lat="46.36154" lon="5.38713">
        <ele>438.8</ele>
        <time>2022-08-09T12:40:35Z</time>
      </trkpt>
      <trkpt lat="46.36126" lon="5.38713">
        <ele>437.6</ele>
        <time>2022-08-09T12:40:37Z</time>
      </trkpt>
      <trkpt lat="46.36098" lon="5.38713">
        <ele>436.4</ele>
        <time>2022-08-09T12:40:39Z</time>
      </trkpt>
      <trkpt lat="46.36071" lon="5.38713">
        <ele>434.8</ele>
        <time>2022-08-09T12:40:41Z</time>
      </trkpt>
      <trkpt lat="46.36057" lon="5.38713">
        <ele>433.4</ele>
        <time>2022-08-09T12:40:42Z</time>
      </trkpt>
      <trkpt lat="46.36029" lon="5.38713">
        <ele>431.6</ele>
        <time>2022-08-09T12:40:44Z</time>
      </trkpt>
      <trkpt lat="46.36002" lon="5.38713">
        <ele>430.2</ele>
        <time>2022-08-09T12:40:46Z</time>
      </trkpt>
      <trkpt lat="46.35974" lon="5.38713">
        <ele>428.8</ele>
        <time>2022-08-09T12:40:48Z</time>
      </trkpt>
      <trkpt lat="46.35933" lon="5.38713">
        <ele>427</ele>
        <time>2022-08-09T12:40:51Z</time>
      </trkpt>
      <trkpt lat="46.35907" lon="5.38714">
        <ele>425.2</ele>
        <time>2022-08-09T12:40:53Z</time>
      </trkpt>
      <trkpt lat="46.3588" lon="5.38714">
        <ele>424</ele>
        <time>2022-08-09T12:40:55Z</time>
      </trkpt>
      <trkpt lat="46.35867" lon="5.38715">
        <ele>422.8</ele>
        <time>2022-08-09T12:40:56Z</time>
      </trkpt>
      <trkpt lat="46.3584" lon="5.38715">
        <ele>421.6</ele>
        <time>2022-08-09T12:40:58Z</time>
      </trkpt>
      <trkpt lat="46.35813" lon="5.38715">
        <ele>420</ele>
        <time>2022-08-09T12:41:00Z</time>
      </trkpt>
      <trkpt lat="46.358" lon="5.38715">
        <ele>419.8</ele>
        <time>2022-08-09T12:41:01Z</time>
      </trkpt>
      <trkpt lat="46.35786" lon="5.38714">
        <ele>418.2</ele>
        <time>2022-08-09T12:41:02Z</time>
      </trkpt>
      <trkpt lat="46.35758" lon="5.38713">
        <ele>416.6</ele>
        <time>2022-08-09T12:41:04Z</time>
      </trkpt>
      <trkpt lat="46.35731" lon="5.3871">
        <ele>415.2</ele>
        <time>2022-08-09T12:41:06Z</time>
      </trkpt>
      <trkpt lat="46.35717" lon="5.38709">
        <ele>414</ele>
        <time>2022-08-09T12:41:07Z</time>
      </trkpt>
      <trkpt lat="46.3569" lon="5.38707">
        <ele>412.6</ele>
        <time>2022-08-09T12:41:09Z</time>
      </trkpt>
      <trkpt lat="46.35662" lon="5.38708">
        <ele>411</ele>
        <time>2022-08-09T12:41:11Z</time>
      </trkpt>
      <trkpt lat="46.35635" lon="5.38713">
        <ele>409.6</ele>
        <time>2022-08-09T12:41:13Z</time>
      </trkpt>
      <trkpt lat="46.35608" lon="5.38719">
        <ele>408</ele>
        <time>2022-08-09T12:41:15Z</time>
      </trkpt>
      <trkpt lat="46.35581" lon="5.38724">
        <ele>406.4</ele>
        <time>2022-08-09T12:41:17Z</time>
      </trkpt>
      <trkpt lat="46.35568" lon="5.38726">
        <ele>406</ele>
        <time>2022-08-09T12:41:18Z</time>
      </trkpt>
      <trkpt lat="46.35555" lon="5.38727">
        <ele>405.2</ele>
        <time>2022-08-09T12:41:19Z</time>
      </trkpt>
      <trkpt lat="46.35529" lon="5.38728">
        <ele>403.4</ele>
        <time>2022-08-09T12:41:21Z</time>
      </trkpt>
      <trkpt lat="46.35516" lon="5.38728">
        <ele>402.4</ele>
        <time>2022-08-09T12:41:22Z</time>
      </trkpt>
      <trkpt lat="46.3549" lon="5.38727">
        <ele>400.8</ele>
        <time>2022-08-09T12:41:24Z</time>
      </trkpt>
      <trkpt lat="46.35451" lon="5.38728">
        <ele>399.8</ele>
        <time>2022-08-09T12:41:27Z</time>
      </trkpt>
      <trkpt lat="46.35438" lon="5.38728">
        <ele>398.2</ele>
        <time>2022-08-09T12:41:28Z</time>
      </trkpt>
      <trkpt lat="46.35425" lon="5.38729">
        <ele>397</ele>
        <time>2022-08-09T12:41:29Z</time>
      </trkpt>
      <trkpt lat="46.35401" lon="5.38733">
        <ele>395.8</ele>
        <time>2022-08-09T12:41:31Z</time>
      </trkpt>
      <trkpt lat="46.35377" lon="5.3874">
        <ele>394.8</ele>
        <time>2022-08-09T12:41:33Z</time>
      </trkpt>
      <trkpt lat="46.35354" lon="5.38748">
        <ele>393.6</ele>
        <time>2022-08-09T12:41:35Z</time>
      </trkpt>
      <trkpt lat="46.35343" lon="5.38753">
        <ele>393</ele>
        <time>2022-08-09T12:41:36Z</time>
      </trkpt>
      <trkpt lat="46.3532" lon="5.38765">
        <ele>392</ele>
        <time>2022-08-09T12:41:38Z</time>
      </trkpt>
      <trkpt lat="46.35297" lon="5.3878">
        <ele>391.2</ele>
        <time>2022-08-09T12:41:40Z</time>
      </trkpt>
      <trkpt lat="46.35286" lon="5.38789">
        <ele>390.8</ele>
        <time>2022-08-09T12:41:41Z</time>
      </trkpt>
      <trkpt lat="46.35263" lon="5.38806">
        <ele>388.8</ele>
        <time>2022-08-09T12:41:43Z</time>
      </trkpt>
      <trkpt lat="46.35241" lon="5.38824">
        <ele>387.2</ele>
        <time>2022-08-09T12:41:45Z</time>
      </trkpt>
      <trkpt lat="46.35219" lon="5.38842">
        <ele>385.8</ele>
        <time>2022-08-09T12:41:47Z</time>
      </trkpt>
      <trkpt lat="46.35209" lon="5.38852">
        <ele>385</ele>
        <time>2022-08-09T12:41:48Z</time>
      </trkpt>
      <trkpt lat="46.3519" lon="5.38873">
        <ele>384</ele>
        <time>2022-08-09T12:41:50Z</time>
      </trkpt>
      <trkpt lat="46.35173" lon="5.38894">
        <ele>382.8</ele>
        <time>2022-08-09T12:41:52Z</time>
      </trkpt>
      <trkpt lat="46.35149" lon="5.38923">
        <ele>380.6</ele>
        <time>2022-08-09T12:41:55Z</time>
      </trkpt>
      <trkpt lat="46.35135" lon="5.38941">
        <ele>379.6</ele>
        <time>2022-08-09T12:41:57Z</time>
      </trkpt>
      <trkpt lat="46.35128" lon="5.38948">
        <ele>379.2</ele>
        <time>2022-08-09T12:41:58Z</time>
      </trkpt>
      <trkpt lat="46.35121" lon="5.38956">
        <ele>378.6</ele>
        <time>2022-08-09T12:41:59Z</time>
      </trkpt>
      <trkpt lat="46.3511" lon="5.38969">
        <ele>378</ele>
        <time>2022-08-09T12:42:01Z</time>
      </trkpt>
      <trkpt lat="46.35098" lon="5.3898">
        <ele>377.2</ele>
        <time>2022-08-09T12:42:04Z</time>
      </trkpt>
      <trkpt lat="46.35091" lon="5.38985">
        <ele>376.8</ele>
        <time>2022-08-09T12:42:06Z</time>
      </trkpt>
      <trkpt lat="46.35086" lon="5.38987">
        <ele>376.2</ele>
        <time>2022-08-09T12:42:08Z</time>
      </trkpt>
      <trkpt lat="46.35077" lon="5.38986">
        <ele>376</ele>
        <time>2022-08-09T12:42:12Z</time>
      </trkpt>
      <trkpt lat="46.35076" lon="5.38984">
        <ele>376</ele>
        <time>2022-08-09T12:42:13Z</time>
      </trkpt>
      <trkpt lat="46.35069" lon="5.38966">
        <ele>376.8</ele>
        <time>2022-08-09T12:42:18Z</time>
      </trkpt>
      <trkpt lat="46.35055" lon="5.38958">
        <ele>377.6</ele>
        <time>2022-08-09T12:42:23Z</time>
      </trkpt>
      <trkpt lat="46.35048" lon="5.38955">
        <ele>378.2</ele>
        <time>2022-08-09T12:42:25Z</time>
      </trkpt>
      <trkpt lat="46.35033" lon="5.3895">
        <ele>378.6</ele>
        <time>2022-08-09T12:42:29Z</time>
      </trkpt>
      <trkpt lat="46.35024" lon="5.38952">
        <ele>378.8</ele>
        <time>2022-08-09T12:42:31Z</time>
      </trkpt>
      <trkpt lat="46.35015" lon="5.38958">
        <ele>379</ele>
        <time>2022-08-09T12:42:33Z</time>
      </trkpt>
      <trkpt lat="46.34995" lon="5.38974">
        <ele>379</ele>
        <time>2022-08-09T12:42:38Z</time>
      </trkpt>
      <trkpt lat="46.34991" lon="5.38976">
        <ele>379</ele>
        <time>2022-08-09T12:42:39Z</time>
      </trkpt>
      <trkpt lat="46.34983" lon="5.38979">
        <ele>379.2</ele>
        <time>2022-08-09T12:42:41Z</time>
      </trkpt>
      <trkpt lat="46.34963" lon="5.38987">
        <ele>379.6</ele>
        <time>2022-08-09T12:42:46Z</time>
      </trkpt>
      <trkpt lat="46.34943" lon="5.38997">
        <ele>380.2</ele>
        <time>2022-08-09T12:42:51Z</time>
      </trkpt>
      <trkpt lat="46.34934" lon="5.38999">
        <ele>380.4</ele>
        <time>2022-08-09T12:42:53Z</time>
      </trkpt>
      <trkpt lat="46.34895" lon="5.39013">
        <ele>381.6</ele>
        <time>2022-08-09T12:43:03Z</time>
      </trkpt>
      <trkpt lat="46.34876" lon="5.39019">
        <ele>382.6</ele>
        <time>2022-08-09T12:43:08Z</time>
      </trkpt>
      <trkpt lat="46.34862" lon="5.39023">
        <ele>383.4</ele>
        <time>2022-08-09T12:43:12Z</time>
      </trkpt>
      <trkpt lat="46.34852" lon="5.39025">
        <ele>384</ele>
        <time>2022-08-09T12:43:15Z</time>
      </trkpt>
      <trkpt lat="46.34838" lon="5.39029">
        <ele>385</ele>
        <time>2022-08-09T12:43:19Z</time>
      </trkpt>
      <trkpt lat="46.34831" lon="5.39031">
        <ele>385.6</ele>
        <time>2022-08-09T12:43:21Z</time>
      </trkpt>
      <trkpt lat="46.34817" lon="5.39036">
        <ele>386.4</ele>
        <time>2022-08-09T12:43:25Z</time>
      </trkpt>
      <trkpt lat="46.34804" lon="5.39046">
        <ele>387.6</ele>
        <time>2022-08-09T12:43:29Z</time>
      </trkpt>
      <trkpt lat="46.34792" lon="5.39066">
        <ele>389</ele>
        <time>2022-08-09T12:43:34Z</time>
      </trkpt>
      <trkpt lat="46.3479" lon="5.39071">
        <ele>389.4</ele>
        <time>2022-08-09T12:43:35Z</time>
      </trkpt>
      <trkpt lat="46.34788" lon="5.39082">
        <ele>390</ele>
        <time>2022-08-09T12:43:37Z</time>
      </trkpt>
      <trkpt lat="46.34785" lon="5.39099">
        <ele>391.2</ele>
        <time>2022-08-09T12:43:40Z</time>
      </trkpt>
      <trkpt lat="46.34784" lon="5.39105">
        <ele>391.4</ele>
        <time>2022-08-09T12:43:41Z</time>
      </trkpt>
      <trkpt lat="46.3478" lon="5.39139">
        <ele>392.2</ele>
        <time>2022-08-09T12:43:47Z</time>
      </trkpt>
      <trkpt lat="46.3478" lon="5.39145">
        <ele>392.4</ele>
        <time>2022-08-09T12:43:48Z</time>
      </trkpt>
      <trkpt lat="46.34779" lon="5.39153">
        <ele>393.2</ele>
        <time>2022-08-09T12:43:52Z</time>
      </trkpt>
      <trkpt lat="46.34779" lon="5.39153">
        <ele>393.6</ele>
        <time>2022-08-09T12:43:54Z</time>
      </trkpt>
      <trkpt lat="46.34774" lon="5.39157">
        <ele>397.6</ele>
        <time>2022-08-09T13:45:03Z</time>
      </trkpt>
      <trkpt lat="46.34775" lon="5.39153">
        <ele>399.4</ele>
        <time>2022-08-09T13:45:04Z</time>
      </trkpt>
      <trkpt lat="46.34781" lon="5.3915">
        <ele>399.2</ele>
        <time>2022-08-09T13:47:23Z</time>
      </trkpt>
      <trkpt lat="46.34782" lon="5.39147">
        <ele>399.2</ele>
        <time>2022-08-09T13:47:24Z</time>
      </trkpt>
      <trkpt lat="46.34782" lon="5.39133">
        <ele>399</ele>
        <time>2022-08-09T13:47:27Z</time>
      </trkpt>
      <trkpt lat="46.34784" lon="5.39127">
        <ele>399</ele>
        <time>2022-08-09T13:47:28Z</time>
      </trkpt>
      <trkpt lat="46.34791" lon="5.3909">
        <ele>398.8</ele>
        <time>2022-08-09T13:47:33Z</time>
      </trkpt>
      <trkpt lat="46.34799" lon="5.3906">
        <ele>398.6</ele>
        <time>2022-08-09T13:47:36Z</time>
      </trkpt>
      <trkpt lat="46.34804" lon="5.39051">
        <ele>398.4</ele>
        <time>2022-08-09T13:47:37Z</time>
      </trkpt>
      <trkpt lat="46.3481" lon="5.39043">
        <ele>398.4</ele>
        <time>2022-08-09T13:47:38Z</time>
      </trkpt>
      <trkpt lat="46.34818" lon="5.39039">
        <ele>398.2</ele>
        <time>2022-08-09T13:47:39Z</time>
      </trkpt>
      <trkpt lat="46.34825" lon="5.39036">
        <ele>398.2</ele>
        <time>2022-08-09T13:47:40Z</time>
      </trkpt>
      <trkpt lat="46.34843" lon="5.39032">
        <ele>397.4</ele>
        <time>2022-08-09T13:47:42Z</time>
      </trkpt>
      <trkpt lat="46.34853" lon="5.39029">
        <ele>397</ele>
        <time>2022-08-09T13:47:43Z</time>
      </trkpt>
      <trkpt lat="46.34884" lon="5.39021">
        <ele>396.2</ele>
        <time>2022-08-09T13:47:46Z</time>
      </trkpt>
      <trkpt lat="46.34905" lon="5.39015">
        <ele>395</ele>
        <time>2022-08-09T13:47:48Z</time>
      </trkpt>
      <trkpt lat="46.34926" lon="5.39008">
        <ele>393.8</ele>
        <time>2022-08-09T13:47:50Z</time>
      </trkpt>
      <trkpt lat="46.34957" lon="5.38995">
        <ele>392</ele>
        <time>2022-08-09T13:47:53Z</time>
      </trkpt>
      <trkpt lat="46.34987" lon="5.3898">
        <ele>390.4</ele>
        <time>2022-08-09T13:47:56Z</time>
      </trkpt>
      <trkpt lat="46.35022" lon="5.38959">
        <ele>389.2</ele>
        <time>2022-08-09T13:48:00Z</time>
      </trkpt>
      <trkpt lat="46.35029" lon="5.38956">
        <ele>389</ele>
        <time>2022-08-09T13:48:01Z</time>
      </trkpt>
      <trkpt lat="46.35037" lon="5.38956">
        <ele>388.8</ele>
        <time>2022-08-09T13:48:02Z</time>
      </trkpt>
      <trkpt lat="46.35043" lon="5.38957">
        <ele>388.6</ele>
        <time>2022-08-09T13:48:03Z</time>
      </trkpt>
      <trkpt lat="46.35059" lon="5.38963">
        <ele>388</ele>
        <time>2022-08-09T13:48:06Z</time>
      </trkpt>
      <trkpt lat="46.35068" lon="5.38966">
        <ele>387.4</ele>
        <time>2022-08-09T13:48:10Z</time>
      </trkpt>
      <trkpt lat="46.35071" lon="5.38969">
        <ele>387.2</ele>
        <time>2022-08-09T13:48:12Z</time>
      </trkpt>
      <trkpt lat="46.35071" lon="5.38971">
        <ele>387.2</ele>
        <time>2022-08-09T13:48:13Z</time>
      </trkpt>
      <trkpt lat="46.35071" lon="5.38973">
        <ele>387</ele>
        <time>2022-08-09T13:48:14Z</time>
      </trkpt>
      <trkpt lat="46.35074" lon="5.3899">
        <ele>385.8</ele>
        <time>2022-08-09T13:48:19Z</time>
      </trkpt>
      <trkpt lat="46.35074" lon="5.38996">
        <ele>385.8</ele>
        <time>2022-08-09T13:48:20Z</time>
      </trkpt>
      <trkpt lat="46.35074" lon="5.3901">
        <ele>385.6</ele>
        <time>2022-08-09T13:48:22Z</time>
      </trkpt>
      <trkpt lat="46.35075" lon="5.39028">
        <ele>385.2</ele>
        <time>2022-08-09T13:48:24Z</time>
      </trkpt>
      <trkpt lat="46.35075" lon="5.39052">
        <ele>384.6</ele>
        <time>2022-08-09T13:48:26Z</time>
      </trkpt>
      <trkpt lat="46.35074" lon="5.39075">
        <ele>383.4</ele>
        <time>2022-08-09T13:48:28Z</time>
      </trkpt>
      <trkpt lat="46.35072" lon="5.39121">
        <ele>382</ele>
        <time>2022-08-09T13:48:31Z</time>
      </trkpt>
      <trkpt lat="46.35071" lon="5.39167">
        <ele>380.6</ele>
        <time>2022-08-09T13:48:34Z</time>
      </trkpt>
      <trkpt lat="46.35072" lon="5.39197">
        <ele>379.8</ele>
        <time>2022-08-09T13:48:36Z</time>
      </trkpt>
      <trkpt lat="46.35073" lon="5.39212">
        <ele>379.4</ele>
        <time>2022-08-09T13:48:37Z</time>
      </trkpt>
      <trkpt lat="46.35076" lon="5.39257">
        <ele>377.8</ele>
        <time>2022-08-09T13:48:40Z</time>
      </trkpt>
      <trkpt lat="46.35081" lon="5.39303">
        <ele>376.6</ele>
        <time>2022-08-09T13:48:43Z</time>
      </trkpt>
      <trkpt lat="46.35083" lon="5.39333">
        <ele>376.2</ele>
        <time>2022-08-09T13:48:45Z</time>
      </trkpt>
      <trkpt lat="46.35082" lon="5.39363">
        <ele>375.6</ele>
        <time>2022-08-09T13:48:47Z</time>
      </trkpt>
      <trkpt lat="46.35079" lon="5.39407">
        <ele>374.8</ele>
        <time>2022-08-09T13:48:50Z</time>
      </trkpt>
      <trkpt lat="46.35078" lon="5.39436">
        <ele>374.4</ele>
        <time>2022-08-09T13:48:52Z</time>
      </trkpt>
      <trkpt lat="46.35077" lon="5.39478">
        <ele>374</ele>
        <time>2022-08-09T13:48:55Z</time>
      </trkpt>
      <trkpt lat="46.35077" lon="5.39491">
        <ele>373.8</ele>
        <time>2022-08-09T13:48:56Z</time>
      </trkpt>
      <trkpt lat="46.35081" lon="5.39573">
        <ele>373.4</ele>
        <time>2022-08-09T13:49:02Z</time>
      </trkpt>
      <trkpt lat="46.35082" lon="5.39587">
        <ele>373.4</ele>
        <time>2022-08-09T13:49:03Z</time>
      </trkpt>
      <trkpt lat="46.35081" lon="5.39668">
        <ele>373.6</ele>
        <time>2022-08-09T13:49:09Z</time>
      </trkpt>
      <trkpt lat="46.35078" lon="5.39694">
        <ele>373.2</ele>
        <time>2022-08-09T13:49:11Z</time>
      </trkpt>
      <trkpt lat="46.35079" lon="5.3972">
        <ele>373.2</ele>
        <time>2022-08-09T13:49:13Z</time>
      </trkpt>
      <trkpt lat="46.35081" lon="5.39733">
        <ele>373.2</ele>
        <time>2022-08-09T13:49:14Z</time>
      </trkpt>
      <trkpt lat="46.35083" lon="5.39746">
        <ele>373.2</ele>
        <time>2022-08-09T13:49:15Z</time>
      </trkpt>
      <trkpt lat="46.35096" lon="5.39792">
        <ele>373.2</ele>
        <time>2022-08-09T13:49:19Z</time>
      </trkpt>
      <trkpt lat="46.35121" lon="5.39857">
        <ele>373.4</ele>
        <time>2022-08-09T13:49:25Z</time>
      </trkpt>
      <trkpt lat="46.35152" lon="5.39927">
        <ele>373</ele>
        <time>2022-08-09T13:49:32Z</time>
      </trkpt>
      <trkpt lat="46.35164" lon="5.39949">
        <ele>372.6</ele>
        <time>2022-08-09T13:49:34Z</time>
      </trkpt>
      <trkpt lat="46.35171" lon="5.39958">
        <ele>372.2</ele>
        <time>2022-08-09T13:49:35Z</time>
      </trkpt>
      <trkpt lat="46.35205" lon="5.40017">
        <ele>371.4</ele>
        <time>2022-08-09T13:49:41Z</time>
      </trkpt>
      <trkpt lat="46.3521" lon="5.40027">
        <ele>371.2</ele>
        <time>2022-08-09T13:49:42Z</time>
      </trkpt>
      <trkpt lat="46.35225" lon="5.40058">
        <ele>371</ele>
        <time>2022-08-09T13:49:45Z</time>
      </trkpt>
      <trkpt lat="46.35236" lon="5.40076">
        <ele>370.8</ele>
        <time>2022-08-09T13:49:47Z</time>
      </trkpt>
      <trkpt lat="46.35261" lon="5.4011">
        <ele>370.6</ele>
        <time>2022-08-09T13:49:51Z</time>
      </trkpt>
      <trkpt lat="46.35266" lon="5.4012">
        <ele>370.8</ele>
        <time>2022-08-09T13:49:52Z</time>
      </trkpt>
      <trkpt lat="46.35273" lon="5.40142">
        <ele>370.8</ele>
        <time>2022-08-09T13:49:54Z</time>
      </trkpt>
      <trkpt lat="46.35276" lon="5.40154">
        <ele>370.8</ele>
        <time>2022-08-09T13:49:55Z</time>
      </trkpt>
      <trkpt lat="46.35277" lon="5.40166">
        <ele>370.8</ele>
        <time>2022-08-09T13:49:56Z</time>
      </trkpt>
      <trkpt lat="46.35277" lon="5.40205">
        <ele>370.8</ele>
        <time>2022-08-09T13:49:59Z</time>
      </trkpt>
      <trkpt lat="46.35282" lon="5.40288">
        <ele>370</ele>
        <time>2022-08-09T13:50:05Z</time>
      </trkpt>
      <trkpt lat="46.35284" lon="5.40315">
        <ele>369.6</ele>
        <time>2022-08-09T13:50:07Z</time>
      </trkpt>
      <trkpt lat="46.35287" lon="5.40341">
        <ele>369.4</ele>
        <time>2022-08-09T13:50:09Z</time>
      </trkpt>
      <trkpt lat="46.35293" lon="5.40365">
        <ele>369</ele>
        <time>2022-08-09T13:50:11Z</time>
      </trkpt>
      <trkpt lat="46.35299" lon="5.40375">
        <ele>369</ele>
        <time>2022-08-09T13:50:12Z</time>
      </trkpt>
      <trkpt lat="46.35305" lon="5.40383">
        <ele>368.8</ele>
        <time>2022-08-09T13:50:13Z</time>
      </trkpt>
      <trkpt lat="46.35313" lon="5.40388">
        <ele>368.8</ele>
        <time>2022-08-09T13:50:14Z</time>
      </trkpt>
      <trkpt lat="46.35321" lon="5.40392">
        <ele>368.8</ele>
        <time>2022-08-09T13:50:15Z</time>
      </trkpt>
      <trkpt lat="46.35353" lon="5.40403">
        <ele>368.8</ele>
        <time>2022-08-09T13:50:19Z</time>
      </trkpt>
      <trkpt lat="46.35379" lon="5.40417">
        <ele>368.6</ele>
        <time>2022-08-09T13:50:23Z</time>
      </trkpt>
      <trkpt lat="46.35384" lon="5.40423">
        <ele>368.6</ele>
        <time>2022-08-09T13:50:24Z</time>
      </trkpt>
      <trkpt lat="46.35388" lon="5.4043">
        <ele>368.6</ele>
        <time>2022-08-09T13:50:25Z</time>
      </trkpt>
      <trkpt lat="46.35392" lon="5.40438">
        <ele>368.8</ele>
        <time>2022-08-09T13:50:26Z</time>
      </trkpt>
      <trkpt lat="46.35394" lon="5.40447">
        <ele>369</ele>
        <time>2022-08-09T13:50:27Z</time>
      </trkpt>
      <trkpt lat="46.35398" lon="5.40475">
        <ele>369.2</ele>
        <time>2022-08-09T13:50:30Z</time>
      </trkpt>
      <trkpt lat="46.35404" lon="5.40517">
        <ele>370.2</ele>
        <time>2022-08-09T13:50:34Z</time>
      </trkpt>
      <trkpt lat="46.35404" lon="5.40526">
        <ele>370.4</ele>
        <time>2022-08-09T13:50:35Z</time>
      </trkpt>
      <trkpt lat="46.35405" lon="5.40539">
        <ele>370.4</ele>
        <time>2022-08-09T13:50:36Z</time>
      </trkpt>
      <trkpt lat="46.35404" lon="5.40557">
        <ele>370.4</ele>
        <time>2022-08-09T13:50:38Z</time>
      </trkpt>
      <trkpt lat="46.35402" lon="5.40569">
        <ele>370.4</ele>
        <time>2022-08-09T13:50:39Z</time>
      </trkpt>
      <trkpt lat="46.35396" lon="5.40611">
        <ele>370.6</ele>
        <time>2022-08-09T13:50:44Z</time>
      </trkpt>
      <trkpt lat="46.35394" lon="5.4062">
        <ele>370.6</ele>
        <time>2022-08-09T13:50:45Z</time>
      </trkpt>
      <trkpt lat="46.35391" lon="5.40644">
        <ele>371.2</ele>
        <time>2022-08-09T13:50:48Z</time>
      </trkpt>
      <trkpt lat="46.35389" lon="5.40652">
        <ele>371.2</ele>
        <time>2022-08-09T13:50:49Z</time>
      </trkpt>
      <trkpt lat="46.35387" lon="5.40659">
        <ele>371.4</ele>
        <time>2022-08-09T13:50:50Z</time>
      </trkpt>
      <trkpt lat="46.35385" lon="5.40665">
        <ele>371.6</ele>
        <time>2022-08-09T13:50:51Z</time>
      </trkpt>
      <trkpt lat="46.35379" lon="5.40676">
        <ele>372.4</ele>
        <time>2022-08-09T13:50:53Z</time>
      </trkpt>
      <trkpt lat="46.35375" lon="5.40681">
        <ele>372.6</ele>
        <time>2022-08-09T13:50:54Z</time>
      </trkpt>
      <trkpt lat="46.35371" lon="5.40685">
        <ele>372.8</ele>
        <time>2022-08-09T13:50:55Z</time>
      </trkpt>
      <trkpt lat="46.35354" lon="5.40697">
        <ele>373.2</ele>
        <time>2022-08-09T13:50:59Z</time>
      </trkpt>
      <trkpt lat="46.3535" lon="5.40699">
        <ele>374</ele>
        <time>2022-08-09T13:51:00Z</time>
      </trkpt>
      <trkpt lat="46.35334" lon="5.4071">
        <ele>375.2</ele>
        <time>2022-08-09T13:51:04Z</time>
      </trkpt>
      <trkpt lat="46.35327" lon="5.40717">
        <ele>375.6</ele>
        <time>2022-08-09T13:51:06Z</time>
      </trkpt>
      <trkpt lat="46.35322" lon="5.40726">
        <ele>375.8</ele>
        <time>2022-08-09T13:51:08Z</time>
      </trkpt>
      <trkpt lat="46.35319" lon="5.4073">
        <ele>376.4</ele>
        <time>2022-08-09T13:51:09Z</time>
      </trkpt>
      <trkpt lat="46.35315" lon="5.4074">
        <ele>376.8</ele>
        <time>2022-08-09T13:51:11Z</time>
      </trkpt>
      <trkpt lat="46.35313" lon="5.40745">
        <ele>377</ele>
        <time>2022-08-09T13:51:12Z</time>
      </trkpt>
      <trkpt lat="46.35312" lon="5.40755">
        <ele>377.6</ele>
        <time>2022-08-09T13:51:14Z</time>
      </trkpt>
      <trkpt lat="46.35313" lon="5.40761">
        <ele>377.8</ele>
        <time>2022-08-09T13:51:15Z</time>
      </trkpt>
      <trkpt lat="46.35321" lon="5.40772">
        <ele>379</ele>
        <time>2022-08-09T13:51:18Z</time>
      </trkpt>
      <trkpt lat="46.35335" lon="5.40783">
        <ele>380.2</ele>
        <time>2022-08-09T13:51:22Z</time>
      </trkpt>
      <trkpt lat="46.35341" lon="5.40788">
        <ele>380.6</ele>
        <time>2022-08-09T13:51:24Z</time>
      </trkpt>
      <trkpt lat="46.35344" lon="5.40788">
        <ele>381</ele>
        <time>2022-08-09T13:51:25Z</time>
      </trkpt>
      <trkpt lat="46.35347" lon="5.40788">
        <ele>381.2</ele>
        <time>2022-08-09T13:51:26Z</time>
      </trkpt>
      <trkpt lat="46.35365" lon="5.40782">
        <ele>381.6</ele>
        <time>2022-08-09T13:51:30Z</time>
      </trkpt>
      <trkpt lat="46.354" lon="5.40777">
        <ele>381.6</ele>
        <time>2022-08-09T13:51:36Z</time>
      </trkpt>
      <trkpt lat="46.35413" lon="5.40771">
        <ele>381.6</ele>
        <time>2022-08-09T13:51:38Z</time>
      </trkpt>
      <trkpt lat="46.35424" lon="5.40763">
        <ele>381.4</ele>
        <time>2022-08-09T13:51:40Z</time>
      </trkpt>
      <trkpt lat="46.35454" lon="5.40745">
        <ele>380.4</ele>
        <time>2022-08-09T13:51:44Z</time>
      </trkpt>
      <trkpt lat="46.35462" lon="5.40743">
        <ele>380.2</ele>
        <time>2022-08-09T13:51:45Z</time>
      </trkpt>
      <trkpt lat="46.35468" lon="5.40742">
        <ele>379.6</ele>
        <time>2022-08-09T13:51:46Z</time>
      </trkpt>
      <trkpt lat="46.35503" lon="5.40742">
        <ele>378.6</ele>
        <time>2022-08-09T13:51:50Z</time>
      </trkpt>
      <trkpt lat="46.35538" lon="5.40742">
        <ele>377.4</ele>
        <time>2022-08-09T13:51:54Z</time>
      </trkpt>
      <trkpt lat="46.35545" lon="5.40744">
        <ele>377.2</ele>
        <time>2022-08-09T13:51:55Z</time>
      </trkpt>
      <trkpt lat="46.35582" lon="5.40756">
        <ele>376</ele>
        <time>2022-08-09T13:51:59Z</time>
      </trkpt>
      <trkpt lat="46.3559" lon="5.4076">
        <ele>375.6</ele>
        <time>2022-08-09T13:52:00Z</time>
      </trkpt>
      <trkpt lat="46.35599" lon="5.40764">
        <ele>375</ele>
        <time>2022-08-09T13:52:01Z</time>
      </trkpt>
      <trkpt lat="46.35605" lon="5.40766">
        <ele>375</ele>
        <time>2022-08-09T13:52:02Z</time>
      </trkpt>
      <trkpt lat="46.35648" lon="5.40777">
        <ele>373.6</ele>
        <time>2022-08-09T13:52:07Z</time>
      </trkpt>
      <trkpt lat="46.3569" lon="5.40778">
        <ele>373.4</ele>
        <time>2022-08-09T13:52:12Z</time>
      </trkpt>
      <trkpt lat="46.35743" lon="5.40763">
        <ele>373</ele>
        <time>2022-08-09T13:52:19Z</time>
      </trkpt>
      <trkpt lat="46.35763" lon="5.4075">
        <ele>372.6</ele>
        <time>2022-08-09T13:52:22Z</time>
      </trkpt>
      <trkpt lat="46.3577" lon="5.40748">
        <ele>372.6</ele>
        <time>2022-08-09T13:52:23Z</time>
      </trkpt>
      <trkpt lat="46.35775" lon="5.40748">
        <ele>372.6</ele>
        <time>2022-08-09T13:52:24Z</time>
      </trkpt>
      <trkpt lat="46.35824" lon="5.40755">
        <ele>372.2</ele>
        <time>2022-08-09T13:52:31Z</time>
      </trkpt>
      <trkpt lat="46.3588" lon="5.40772">
        <ele>372.4</ele>
        <time>2022-08-09T13:52:40Z</time>
      </trkpt>
      <trkpt lat="46.35886" lon="5.40773">
        <ele>372.4</ele>
        <time>2022-08-09T13:52:41Z</time>
      </trkpt>
      <trkpt lat="46.35922" lon="5.40786">
        <ele>372.4</ele>
        <time>2022-08-09T13:52:47Z</time>
      </trkpt>
      <trkpt lat="46.35928" lon="5.4079">
        <ele>372.4</ele>
        <time>2022-08-09T13:52:48Z</time>
      </trkpt>
      <trkpt lat="46.35933" lon="5.40795">
        <ele>372.4</ele>
        <time>2022-08-09T13:52:49Z</time>
      </trkpt>
      <trkpt lat="46.35951" lon="5.40819">
        <ele>372.8</ele>
        <time>2022-08-09T13:52:53Z</time>
      </trkpt>
      <trkpt lat="46.35987" lon="5.40854">
        <ele>373.4</ele>
        <time>2022-08-09T13:53:00Z</time>
      </trkpt>
      <trkpt lat="46.35992" lon="5.40859">
        <ele>373.6</ele>
        <time>2022-08-09T13:53:01Z</time>
      </trkpt>
      <trkpt lat="46.35996" lon="5.40865">
        <ele>373.8</ele>
        <time>2022-08-09T13:53:02Z</time>
      </trkpt>
      <trkpt lat="46.36001" lon="5.40872">
        <ele>373.8</ele>
        <time>2022-08-09T13:53:03Z</time>
      </trkpt>
      <trkpt lat="46.36008" lon="5.40886">
        <ele>374</ele>
        <time>2022-08-09T13:53:05Z</time>
      </trkpt>
      <trkpt lat="46.36019" lon="5.40906">
        <ele>374.4</ele>
        <time>2022-08-09T13:53:08Z</time>
      </trkpt>
      <trkpt lat="46.36023" lon="5.40912">
        <ele>374.4</ele>
        <time>2022-08-09T13:53:09Z</time>
      </trkpt>
      <trkpt lat="46.36028" lon="5.40917">
        <ele>374.4</ele>
        <time>2022-08-09T13:53:10Z</time>
      </trkpt>
      <trkpt lat="46.36055" lon="5.40932">
        <ele>374.2</ele>
        <time>2022-08-09T13:53:15Z</time>
      </trkpt>
      <trkpt lat="46.36088" lon="5.40947">
        <ele>374</ele>
        <time>2022-08-09T13:53:21Z</time>
      </trkpt>
      <trkpt lat="46.36093" lon="5.40948">
        <ele>374</ele>
        <time>2022-08-09T13:53:22Z</time>
      </trkpt>
      <trkpt lat="46.36128" lon="5.40944">
        <ele>374.6</ele>
        <time>2022-08-09T13:53:28Z</time>
      </trkpt>
      <trkpt lat="46.36161" lon="5.40949">
        <ele>374.8</ele>
        <time>2022-08-09T13:53:34Z</time>
      </trkpt>
      <trkpt lat="46.36166" lon="5.40951">
        <ele>375</ele>
        <time>2022-08-09T13:53:35Z</time>
      </trkpt>
      <trkpt lat="46.36216" lon="5.40964">
        <ele>375.4</ele>
        <time>2022-08-09T13:53:44Z</time>
      </trkpt>
      <trkpt lat="46.36256" lon="5.40966">
        <ele>375.8</ele>
        <time>2022-08-09T13:53:51Z</time>
      </trkpt>
      <trkpt lat="46.36273" lon="5.40961">
        <ele>376</ele>
        <time>2022-08-09T13:53:54Z</time>
      </trkpt>
      <trkpt lat="46.3629" lon="5.40954">
        <ele>376.2</ele>
        <time>2022-08-09T13:53:57Z</time>
      </trkpt>
      <trkpt lat="46.36318" lon="5.40941">
        <ele>376.8</ele>
        <time>2022-08-09T13:54:02Z</time>
      </trkpt>
      <trkpt lat="46.36336" lon="5.40938">
        <ele>377</ele>
        <time>2022-08-09T13:54:05Z</time>
      </trkpt>
      <trkpt lat="46.36341" lon="5.40938">
        <ele>377</ele>
        <time>2022-08-09T13:54:06Z</time>
      </trkpt>
      <trkpt lat="46.36364" lon="5.40938">
        <ele>377.6</ele>
        <time>2022-08-09T13:54:10Z</time>
      </trkpt>
      <trkpt lat="46.36392" lon="5.4094">
        <ele>377.8</ele>
        <time>2022-08-09T13:54:15Z</time>
      </trkpt>
      <trkpt lat="46.36409" lon="5.40941">
        <ele>378</ele>
        <time>2022-08-09T13:54:18Z</time>
      </trkpt>
      <trkpt lat="46.36427" lon="5.40943">
        <ele>378.4</ele>
        <time>2022-08-09T13:54:21Z</time>
      </trkpt>
      <trkpt lat="46.36444" lon="5.40948">
        <ele>378.6</ele>
        <time>2022-08-09T13:54:24Z</time>
      </trkpt>
      <trkpt lat="46.36467" lon="5.40954">
        <ele>379.2</ele>
        <time>2022-08-09T13:54:28Z</time>
      </trkpt>
      <trkpt lat="46.36497" lon="5.40956">
        <ele>379.6</ele>
        <time>2022-08-09T13:54:33Z</time>
      </trkpt>
      <trkpt lat="46.36551" lon="5.40959">
        <ele>379.6</ele>
        <time>2022-08-09T13:54:42Z</time>
      </trkpt>
      <trkpt lat="46.3659" lon="5.40961">
        <ele>380.2</ele>
        <time>2022-08-09T13:54:49Z</time>
      </trkpt>
      <trkpt lat="46.36601" lon="5.40962">
        <ele>380.4</ele>
        <time>2022-08-09T13:54:51Z</time>
      </trkpt>
      <trkpt lat="46.36623" lon="5.40965">
        <ele>381.2</ele>
        <time>2022-08-09T13:54:55Z</time>
      </trkpt>
      <trkpt lat="46.36645" lon="5.40971">
        <ele>381.4</ele>
        <time>2022-08-09T13:54:59Z</time>
      </trkpt>
      <trkpt lat="46.36669" lon="5.40981">
        <ele>382.2</ele>
        <time>2022-08-09T13:55:04Z</time>
      </trkpt>
      <trkpt lat="46.36691" lon="5.40987">
        <ele>382.6</ele>
        <time>2022-08-09T13:55:08Z</time>
      </trkpt>
      <trkpt lat="46.36697" lon="5.40987">
        <ele>382.8</ele>
        <time>2022-08-09T13:55:09Z</time>
      </trkpt>
      <trkpt lat="46.36708" lon="5.40988">
        <ele>383.2</ele>
        <time>2022-08-09T13:55:11Z</time>
      </trkpt>
      <trkpt lat="46.36719" lon="5.4099">
        <ele>383.6</ele>
        <time>2022-08-09T13:55:13Z</time>
      </trkpt>
      <trkpt lat="46.36732" lon="5.40992">
        <ele>384.2</ele>
        <time>2022-08-09T13:55:16Z</time>
      </trkpt>
      <trkpt lat="46.36744" lon="5.40992">
        <ele>385</ele>
        <time>2022-08-09T13:55:18Z</time>
      </trkpt>
      <trkpt lat="46.3675" lon="5.40992">
        <ele>385.4</ele>
        <time>2022-08-09T13:55:19Z</time>
      </trkpt>
      <trkpt lat="46.36757" lon="5.40992">
        <ele>385.4</ele>
        <time>2022-08-09T13:55:20Z</time>
      </trkpt>
      <trkpt lat="46.36778" lon="5.40995">
        <ele>386</ele>
        <time>2022-08-09T13:55:24Z</time>
      </trkpt>
      <trkpt lat="46.36789" lon="5.40996">
        <ele>386.4</ele>
        <time>2022-08-09T13:55:26Z</time>
      </trkpt>
      <trkpt lat="46.36823" lon="5.40996">
        <ele>387.4</ele>
        <time>2022-08-09T13:55:32Z</time>
      </trkpt>
      <trkpt lat="46.36828" lon="5.40995">
        <ele>387.4</ele>
        <time>2022-08-09T13:55:33Z</time>
      </trkpt>
      <trkpt lat="46.36859" lon="5.40994">
        <ele>388.8</ele>
        <time>2022-08-09T13:55:39Z</time>
      </trkpt>
      <trkpt lat="46.36865" lon="5.40994">
        <ele>389</ele>
        <time>2022-08-09T13:55:40Z</time>
      </trkpt>
      <trkpt lat="46.36914" lon="5.40999">
        <ele>389.6</ele>
        <time>2022-08-09T13:55:49Z</time>
      </trkpt>
      <trkpt lat="46.3695" lon="5.40995">
        <ele>389.4</ele>
        <time>2022-08-09T13:55:55Z</time>
      </trkpt>
      <trkpt lat="46.37006" lon="5.40975">
        <ele>388.6</ele>
        <time>2022-08-09T13:56:04Z</time>
      </trkpt>
      <trkpt lat="46.37036" lon="5.40966">
        <ele>388.4</ele>
        <time>2022-08-09T13:56:09Z</time>
      </trkpt>
      <trkpt lat="46.37052" lon="5.40964">
        <ele>388.8</ele>
        <time>2022-08-09T13:56:12Z</time>
      </trkpt>
      <trkpt lat="46.37057" lon="5.40965">
        <ele>389</ele>
        <time>2022-08-09T13:56:13Z</time>
      </trkpt>
      <trkpt lat="46.37068" lon="5.40969">
        <ele>389.2</ele>
        <time>2022-08-09T13:56:15Z</time>
      </trkpt>
      <trkpt lat="46.37079" lon="5.40975">
        <ele>389.4</ele>
        <time>2022-08-09T13:56:17Z</time>
      </trkpt>
      <trkpt lat="46.37096" lon="5.40983">
        <ele>389.8</ele>
        <time>2022-08-09T13:56:20Z</time>
      </trkpt>
      <trkpt lat="46.37115" lon="5.4099">
        <ele>390</ele>
        <time>2022-08-09T13:56:23Z</time>
      </trkpt>
      <trkpt lat="46.37166" lon="5.4101">
        <ele>389.8</ele>
        <time>2022-08-09T13:56:31Z</time>
      </trkpt>
      <trkpt lat="46.37192" lon="5.41022">
        <ele>389.8</ele>
        <time>2022-08-09T13:56:36Z</time>
      </trkpt>
      <trkpt lat="46.37224" lon="5.41038">
        <ele>391</ele>
        <time>2022-08-09T13:56:43Z</time>
      </trkpt>
      <trkpt lat="46.3725" lon="5.41047">
        <ele>392</ele>
        <time>2022-08-09T13:56:49Z</time>
      </trkpt>
      <trkpt lat="46.37263" lon="5.41052">
        <ele>392.8</ele>
        <time>2022-08-09T13:56:52Z</time>
      </trkpt>
      <trkpt lat="46.37267" lon="5.41053">
        <ele>393</ele>
        <time>2022-08-09T13:56:53Z</time>
      </trkpt>
      <trkpt lat="46.37291" lon="5.41058">
        <ele>394.2</ele>
        <time>2022-08-09T13:56:59Z</time>
      </trkpt>
      <trkpt lat="46.37295" lon="5.41059">
        <ele>394.4</ele>
        <time>2022-08-09T13:57:00Z</time>
      </trkpt>
      <trkpt lat="46.37316" lon="5.41064">
        <ele>395.2</ele>
        <time>2022-08-09T13:57:05Z</time>
      </trkpt>
      <trkpt lat="46.37328" lon="5.41067">
        <ele>396</ele>
        <time>2022-08-09T13:57:08Z</time>
      </trkpt>
      <trkpt lat="46.3734" lon="5.41067">
        <ele>396.6</ele>
        <time>2022-08-09T13:57:11Z</time>
      </trkpt>
      <trkpt lat="46.37347" lon="5.41064">
        <ele>397.2</ele>
        <time>2022-08-09T13:57:13Z</time>
      </trkpt>
      <trkpt lat="46.37358" lon="5.41055">
        <ele>397.8</ele>
        <time>2022-08-09T13:57:16Z</time>
      </trkpt>
      <trkpt lat="46.37369" lon="5.41043">
        <ele>398.4</ele>
        <time>2022-08-09T13:57:19Z</time>
      </trkpt>
      <trkpt lat="46.37372" lon="5.41038">
        <ele>398.6</ele>
        <time>2022-08-09T13:57:20Z</time>
      </trkpt>
      <trkpt lat="46.37378" lon="5.41026">
        <ele>398.8</ele>
        <time>2022-08-09T13:57:22Z</time>
      </trkpt>
      <trkpt lat="46.37381" lon="5.41019">
        <ele>399</ele>
        <time>2022-08-09T13:57:23Z</time>
      </trkpt>
      <trkpt lat="46.3739" lon="5.40995">
        <ele>399</ele>
        <time>2022-08-09T13:57:26Z</time>
      </trkpt>
      <trkpt lat="46.37391" lon="5.40984">
        <ele>399</ele>
        <time>2022-08-09T13:57:27Z</time>
      </trkpt>
      <trkpt lat="46.3739" lon="5.40974">
        <ele>399</ele>
        <time>2022-08-09T13:57:28Z</time>
      </trkpt>
      <trkpt lat="46.37386" lon="5.40953">
        <ele>398.6</ele>
        <time>2022-08-09T13:57:30Z</time>
      </trkpt>
      <trkpt lat="46.3738" lon="5.40927">
        <ele>397.8</ele>
        <time>2022-08-09T13:57:32Z</time>
      </trkpt>
      <trkpt lat="46.37375" lon="5.40906">
        <ele>396.4</ele>
        <time>2022-08-09T13:57:34Z</time>
      </trkpt>
      <trkpt lat="46.37372" lon="5.40891">
        <ele>395.8</ele>
        <time>2022-08-09T13:57:35Z</time>
      </trkpt>
      <trkpt lat="46.37368" lon="5.4087">
        <ele>395.2</ele>
        <time>2022-08-09T13:57:37Z</time>
      </trkpt>
      <trkpt lat="46.37368" lon="5.40855">
        <ele>394.8</ele>
        <time>2022-08-09T13:57:38Z</time>
      </trkpt>
      <trkpt lat="46.37368" lon="5.40844">
        <ele>394.4</ele>
        <time>2022-08-09T13:57:39Z</time>
      </trkpt>
      <trkpt lat="46.37371" lon="5.40835">
        <ele>394</ele>
        <time>2022-08-09T13:57:40Z</time>
      </trkpt>
      <trkpt lat="46.37377" lon="5.40824">
        <ele>393.8</ele>
        <time>2022-08-09T13:57:41Z</time>
      </trkpt>
      <trkpt lat="46.37384" lon="5.40819">
        <ele>393</ele>
        <time>2022-08-09T13:57:42Z</time>
      </trkpt>
      <trkpt lat="46.37393" lon="5.40817">
        <ele>392.6</ele>
        <time>2022-08-09T13:57:43Z</time>
      </trkpt>
      <trkpt lat="46.3741" lon="5.40814">
        <ele>392</ele>
        <time>2022-08-09T13:57:45Z</time>
      </trkpt>
      <trkpt lat="46.37419" lon="5.4081">
        <ele>391.6</ele>
        <time>2022-08-09T13:57:46Z</time>
      </trkpt>
      <trkpt lat="46.37427" lon="5.40805">
        <ele>390.6</ele>
        <time>2022-08-09T13:57:47Z</time>
      </trkpt>
      <trkpt lat="46.37435" lon="5.40799">
        <ele>390.2</ele>
        <time>2022-08-09T13:57:48Z</time>
      </trkpt>
      <trkpt lat="46.37457" lon="5.40779">
        <ele>389.2</ele>
        <time>2022-08-09T13:57:51Z</time>
      </trkpt>
      <trkpt lat="46.37464" lon="5.40773">
        <ele>388.8</ele>
        <time>2022-08-09T13:57:52Z</time>
      </trkpt>
      <trkpt lat="46.37471" lon="5.40769">
        <ele>388.4</ele>
        <time>2022-08-09T13:57:53Z</time>
      </trkpt>
      <trkpt lat="46.37479" lon="5.40765">
        <ele>388</ele>
        <time>2022-08-09T13:57:54Z</time>
      </trkpt>
      <trkpt lat="46.3751" lon="5.40755">
        <ele>387.8</ele>
        <time>2022-08-09T13:57:58Z</time>
      </trkpt>
      <trkpt lat="46.37549" lon="5.40747">
        <ele>387.4</ele>
        <time>2022-08-09T13:58:03Z</time>
      </trkpt>
      <trkpt lat="46.37564" lon="5.40747">
        <ele>387.2</ele>
        <time>2022-08-09T13:58:05Z</time>
      </trkpt>
      <trkpt lat="46.37579" lon="5.40749">
        <ele>387</ele>
        <time>2022-08-09T13:58:07Z</time>
      </trkpt>
      <trkpt lat="46.37629" lon="5.40756">
        <ele>386.4</ele>
        <time>2022-08-09T13:58:14Z</time>
      </trkpt>
      <trkpt lat="46.37642" lon="5.40757">
        <ele>386.2</ele>
        <time>2022-08-09T13:58:16Z</time>
      </trkpt>
      <trkpt lat="46.37655" lon="5.40753">
        <ele>386.2</ele>
        <time>2022-08-09T13:58:18Z</time>
      </trkpt>
      <trkpt lat="46.37672" lon="5.40737">
        <ele>385.8</ele>
        <time>2022-08-09T13:58:21Z</time>
      </trkpt>
      <trkpt lat="46.37677" lon="5.4073">
        <ele>385.8</ele>
        <time>2022-08-09T13:58:22Z</time>
      </trkpt>
      <trkpt lat="46.37716" lon="5.40678">
        <ele>384.8</ele>
        <time>2022-08-09T13:58:29Z</time>
      </trkpt>
      <trkpt lat="46.37721" lon="5.40671">
        <ele>384.6</ele>
        <time>2022-08-09T13:58:30Z</time>
      </trkpt>
      <trkpt lat="46.37742" lon="5.40634">
        <ele>384.2</ele>
        <time>2022-08-09T13:58:35Z</time>
      </trkpt>
      <trkpt lat="46.37764" lon="5.40567">
        <ele>383.6</ele>
        <time>2022-08-09T13:58:43Z</time>
      </trkpt>
      <trkpt lat="46.37767" lon="5.40559">
        <ele>383.6</ele>
        <time>2022-08-09T13:58:44Z</time>
      </trkpt>
      <trkpt lat="46.3778" lon="5.40522">
        <ele>383.6</ele>
        <time>2022-08-09T13:58:49Z</time>
      </trkpt>
      <trkpt lat="46.37796" lon="5.40481">
        <ele>384</ele>
        <time>2022-08-09T13:58:55Z</time>
      </trkpt>
      <trkpt lat="46.378" lon="5.40475">
        <ele>384</ele>
        <time>2022-08-09T13:58:56Z</time>
      </trkpt>
      <trkpt lat="46.3782" lon="5.40452">
        <ele>384.2</ele>
        <time>2022-08-09T13:59:00Z</time>
      </trkpt>
      <trkpt lat="46.37825" lon="5.40448">
        <ele>384.2</ele>
        <time>2022-08-09T13:59:01Z</time>
      </trkpt>
      <trkpt lat="46.37865" lon="5.40417">
        <ele>383.4</ele>
        <time>2022-08-09T13:59:08Z</time>
      </trkpt>
      <trkpt lat="46.37905" lon="5.40385">
        <ele>382.8</ele>
        <time>2022-08-09T13:59:14Z</time>
      </trkpt>
      <trkpt lat="46.37931" lon="5.40362">
        <ele>382.4</ele>
        <time>2022-08-09T13:59:18Z</time>
      </trkpt>
      <trkpt lat="46.37956" lon="5.40336">
        <ele>381.8</ele>
        <time>2022-08-09T13:59:22Z</time>
      </trkpt>
      <trkpt lat="46.37961" lon="5.40328">
        <ele>381.6</ele>
        <time>2022-08-09T13:59:23Z</time>
      </trkpt>
      <trkpt lat="46.37992" lon="5.4027">
        <ele>380.8</ele>
        <time>2022-08-09T13:59:30Z</time>
      </trkpt>
      <trkpt lat="46.3801" lon="5.40219">
        <ele>380.6</ele>
        <time>2022-08-09T13:59:36Z</time>
      </trkpt>
      <trkpt lat="46.38014" lon="5.40191">
        <ele>380.6</ele>
        <time>2022-08-09T13:59:39Z</time>
      </trkpt>
      <trkpt lat="46.38024" lon="5.40145">
        <ele>380.6</ele>
        <time>2022-08-09T13:59:44Z</time>
      </trkpt>
      <trkpt lat="46.38041" lon="5.40084">
        <ele>381</ele>
        <time>2022-08-09T13:59:51Z</time>
      </trkpt>
      <trkpt lat="46.38046" lon="5.4004">
        <ele>381.4</ele>
        <time>2022-08-09T13:59:56Z</time>
      </trkpt>
      <trkpt lat="46.38047" lon="5.39973">
        <ele>381</ele>
        <time>2022-08-09T14:00:03Z</time>
      </trkpt>
      <trkpt lat="46.38049" lon="5.39945">
        <ele>381</ele>
        <time>2022-08-09T14:00:06Z</time>
      </trkpt>
      <trkpt lat="46.38053" lon="5.39936">
        <ele>381</ele>
        <time>2022-08-09T14:00:07Z</time>
      </trkpt>
      <trkpt lat="46.38058" lon="5.3993">
        <ele>380.8</ele>
        <time>2022-08-09T14:00:08Z</time>
      </trkpt>
      <trkpt lat="46.3807" lon="5.39923">
        <ele>380.8</ele>
        <time>2022-08-09T14:00:10Z</time>
      </trkpt>
      <trkpt lat="46.38077" lon="5.3992">
        <ele>380.8</ele>
        <time>2022-08-09T14:00:11Z</time>
      </trkpt>
      <trkpt lat="46.38095" lon="5.39908">
        <ele>380.4</ele>
        <time>2022-08-09T14:00:14Z</time>
      </trkpt>
      <trkpt lat="46.38127" lon="5.39875">
        <ele>380.2</ele>
        <time>2022-08-09T14:00:20Z</time>
      </trkpt>
      <trkpt lat="46.38132" lon="5.3987">
        <ele>380.2</ele>
        <time>2022-08-09T14:00:21Z</time>
      </trkpt>
      <trkpt lat="46.38144" lon="5.39862">
        <ele>380.4</ele>
        <time>2022-08-09T14:00:23Z</time>
      </trkpt>
      <trkpt lat="46.3815" lon="5.39859">
        <ele>380.4</ele>
        <time>2022-08-09T14:00:24Z</time>
      </trkpt>
      <trkpt lat="46.38156" lon="5.39858">
        <ele>380.6</ele>
        <time>2022-08-09T14:00:25Z</time>
      </trkpt>
      <trkpt lat="46.38168" lon="5.39859">
        <ele>381</ele>
        <time>2022-08-09T14:00:27Z</time>
      </trkpt>
      <trkpt lat="46.38174" lon="5.3986">
        <ele>381</ele>
        <time>2022-08-09T14:00:28Z</time>
      </trkpt>
      <trkpt lat="46.38208" lon="5.3987">
        <ele>381.4</ele>
        <time>2022-08-09T14:00:34Z</time>
      </trkpt>
      <trkpt lat="46.38223" lon="5.39876">
        <ele>381.6</ele>
        <time>2022-08-09T14:00:37Z</time>
      </trkpt>
      <trkpt lat="46.38229" lon="5.39878">
        <ele>381.6</ele>
        <time>2022-08-09T14:00:38Z</time>
      </trkpt>
      <trkpt lat="46.38259" lon="5.39886">
        <ele>382.4</ele>
        <time>2022-08-09T14:00:44Z</time>
      </trkpt>
      <trkpt lat="46.38264" lon="5.39886">
        <ele>382.6</ele>
        <time>2022-08-09T14:00:45Z</time>
      </trkpt>
      <trkpt lat="46.38269" lon="5.39886">
        <ele>382.6</ele>
        <time>2022-08-09T14:00:46Z</time>
      </trkpt>
      <trkpt lat="46.38285" lon="5.39885">
        <ele>383.4</ele>
        <time>2022-08-09T14:00:49Z</time>
      </trkpt>
      <trkpt lat="46.38295" lon="5.39888">
        <ele>383.8</ele>
        <time>2022-08-09T14:00:51Z</time>
      </trkpt>
      <trkpt lat="46.38312" lon="5.399">
        <ele>384.6</ele>
        <time>2022-08-09T14:00:55Z</time>
      </trkpt>
      <trkpt lat="46.38317" lon="5.399">
        <ele>384.8</ele>
        <time>2022-08-09T14:00:56Z</time>
      </trkpt>
      <trkpt lat="46.38321" lon="5.39898">
        <ele>385.2</ele>
        <time>2022-08-09T14:00:57Z</time>
      </trkpt>
      <trkpt lat="46.38327" lon="5.39891">
        <ele>385.2</ele>
        <time>2022-08-09T14:00:59Z</time>
      </trkpt>
      <trkpt lat="46.38342" lon="5.39875">
        <ele>386.4</ele>
        <time>2022-08-09T14:01:04Z</time>
      </trkpt>
      <trkpt lat="46.38347" lon="5.39869">
        <ele>387</ele>
        <time>2022-08-09T14:01:06Z</time>
      </trkpt>
      <trkpt lat="46.3835" lon="5.39867">
        <ele>387.4</ele>
        <time>2022-08-09T14:01:07Z</time>
      </trkpt>
      <trkpt lat="46.38363" lon="5.3986">
        <ele>388.4</ele>
        <time>2022-08-09T14:01:11Z</time>
      </trkpt>
      <trkpt lat="46.38366" lon="5.39858">
        <ele>388.6</ele>
        <time>2022-08-09T14:01:12Z</time>
      </trkpt>
      <trkpt lat="46.38376" lon="5.39854">
        <ele>389.6</ele>
        <time>2022-08-09T14:01:15Z</time>
      </trkpt>
      <trkpt lat="46.38396" lon="5.39845">
        <ele>390.8</ele>
        <time>2022-08-09T14:01:21Z</time>
      </trkpt>
      <trkpt lat="46.38412" lon="5.39837">
        <ele>391.4</ele>
        <time>2022-08-09T14:01:25Z</time>
      </trkpt>
      <trkpt lat="46.38424" lon="5.39833">
        <ele>391.8</ele>
        <time>2022-08-09T14:01:28Z</time>
      </trkpt>
      <trkpt lat="46.38437" lon="5.39829">
        <ele>392</ele>
        <time>2022-08-09T14:01:31Z</time>
      </trkpt>
      <trkpt lat="46.38449" lon="5.39826">
        <ele>392.4</ele>
        <time>2022-08-09T14:01:34Z</time>
      </trkpt>
      <trkpt lat="46.38453" lon="5.39826">
        <ele>392.8</ele>
        <time>2022-08-09T14:01:35Z</time>
      </trkpt>
      <trkpt lat="46.38456" lon="5.39827">
        <ele>392.8</ele>
        <time>2022-08-09T14:01:36Z</time>
      </trkpt>
      <trkpt lat="46.38461" lon="5.39827">
        <ele>393</ele>
        <time>2022-08-09T14:01:37Z</time>
      </trkpt>
      <trkpt lat="46.38483" lon="5.39825">
        <ele>393</ele>
        <time>2022-08-09T14:01:43Z</time>
      </trkpt>
      <trkpt lat="46.38499" lon="5.39826">
        <ele>393.8</ele>
        <time>2022-08-09T14:01:47Z</time>
      </trkpt>
      <trkpt lat="46.38514" lon="5.3983">
        <ele>394.2</ele>
        <time>2022-08-09T14:01:51Z</time>
      </trkpt>
      <trkpt lat="46.38531" lon="5.39832">
        <ele>395</ele>
        <time>2022-08-09T14:01:55Z</time>
      </trkpt>
      <trkpt lat="46.38542" lon="5.39833">
        <ele>395.4</ele>
        <time>2022-08-09T14:01:58Z</time>
      </trkpt>
      <trkpt lat="46.38549" lon="5.39834">
        <ele>396</ele>
        <time>2022-08-09T14:02:02Z</time>
      </trkpt>
      <trkpt lat="46.38549" lon="5.39834">
        <ele>396</ele>
        <time>2022-08-09T14:02:03Z</time>
      </trkpt>
      <trkpt lat="46.38556" lon="5.39834">
        <ele>396.8</ele>
        <time>2022-08-09T14:02:12Z</time>
      </trkpt>
      <trkpt lat="46.38565" lon="5.39835">
        <ele>396.8</ele>
        <time>2022-08-09T14:02:14Z</time>
      </trkpt>
      <trkpt lat="46.38596" lon="5.39839">
        <ele>397.2</ele>
        <time>2022-08-09T14:02:20Z</time>
      </trkpt>
      <trkpt lat="46.38601" lon="5.39839">
        <ele>397.4</ele>
        <time>2022-08-09T14:02:21Z</time>
      </trkpt>
      <trkpt lat="46.38629" lon="5.39841">
        <ele>397.6</ele>
        <time>2022-08-09T14:02:26Z</time>
      </trkpt>
      <trkpt lat="46.38644" lon="5.39842">
        <ele>397.6</ele>
        <time>2022-08-09T14:02:29Z</time>
      </trkpt>
      <trkpt lat="46.3869" lon="5.39848">
        <ele>397.2</ele>
        <time>2022-08-09T14:02:37Z</time>
      </trkpt>
      <trkpt lat="46.38736" lon="5.39852">
        <ele>397</ele>
        <time>2022-08-09T14:02:44Z</time>
      </trkpt>
      <trkpt lat="46.38778" lon="5.39855">
        <ele>396.2</ele>
        <time>2022-08-09T14:02:50Z</time>
      </trkpt>
      <trkpt lat="46.38793" lon="5.39856">
        <ele>396</ele>
        <time>2022-08-09T14:02:52Z</time>
      </trkpt>
      <trkpt lat="46.38835" lon="5.39858">
        <ele>395.2</ele>
        <time>2022-08-09T14:02:58Z</time>
      </trkpt>
      <trkpt lat="46.38848" lon="5.39859">
        <ele>395</ele>
        <time>2022-08-09T14:03:00Z</time>
      </trkpt>
      <trkpt lat="46.38891" lon="5.39861">
        <ele>395.2</ele>
        <time>2022-08-09T14:03:07Z</time>
      </trkpt>
      <trkpt lat="46.38897" lon="5.39861">
        <ele>395.2</ele>
        <time>2022-08-09T14:03:08Z</time>
      </trkpt>
      <trkpt lat="46.38952" lon="5.39863">
        <ele>395.8</ele>
        <time>2022-08-09T14:03:17Z</time>
      </trkpt>
      <trkpt lat="46.39006" lon="5.39873">
        <ele>395.8</ele>
        <time>2022-08-09T14:03:25Z</time>
      </trkpt>
      <trkpt lat="46.39059" lon="5.39881">
        <ele>395.4</ele>
        <time>2022-08-09T14:03:33Z</time>
      </trkpt>
      <trkpt lat="46.39114" lon="5.3989">
        <ele>395.8</ele>
        <time>2022-08-09T14:03:42Z</time>
      </trkpt>
      <trkpt lat="46.39119" lon="5.3989">
        <ele>395.8</ele>
        <time>2022-08-09T14:03:43Z</time>
      </trkpt>
      <trkpt lat="46.3917" lon="5.39898">
        <ele>396</ele>
        <time>2022-08-09T14:03:52Z</time>
      </trkpt>
      <trkpt lat="46.39222" lon="5.39907">
        <ele>396.4</ele>
        <time>2022-08-09T14:04:02Z</time>
      </trkpt>
      <trkpt lat="46.39276" lon="5.39915">
        <ele>396.8</ele>
        <time>2022-08-09T14:04:12Z</time>
      </trkpt>
      <trkpt lat="46.3932" lon="5.39923">
        <ele>397.2</ele>
        <time>2022-08-09T14:04:20Z</time>
      </trkpt>
      <trkpt lat="46.39325" lon="5.39924">
        <ele>397.4</ele>
        <time>2022-08-09T14:04:21Z</time>
      </trkpt>
      <trkpt lat="46.39377" lon="5.39933">
        <ele>397.2</ele>
        <time>2022-08-09T14:04:30Z</time>
      </trkpt>
      <trkpt lat="46.39424" lon="5.39941">
        <ele>397.2</ele>
        <time>2022-08-09T14:04:38Z</time>
      </trkpt>
      <trkpt lat="46.3948" lon="5.39949">
        <ele>397.8</ele>
        <time>2022-08-09T14:04:48Z</time>
      </trkpt>
      <trkpt lat="46.39486" lon="5.3995">
        <ele>398</ele>
        <time>2022-08-09T14:04:49Z</time>
      </trkpt>
      <trkpt lat="46.39496" lon="5.39952">
        <ele>398.2</ele>
        <time>2022-08-09T14:04:51Z</time>
      </trkpt>
      <trkpt lat="46.39547" lon="5.39954">
        <ele>399.2</ele>
        <time>2022-08-09T14:05:00Z</time>
      </trkpt>
      <trkpt lat="46.39565" lon="5.39954">
        <ele>399.4</ele>
        <time>2022-08-09T14:05:03Z</time>
      </trkpt>
      <trkpt lat="46.39602" lon="5.39953">
        <ele>400</ele>
        <time>2022-08-09T14:05:09Z</time>
      </trkpt>
      <trkpt lat="46.39655" lon="5.39946">
        <ele>400</ele>
        <time>2022-08-09T14:05:18Z</time>
      </trkpt>
      <trkpt lat="46.39661" lon="5.39945">
        <ele>400</ele>
        <time>2022-08-09T14:05:19Z</time>
      </trkpt>
      <trkpt lat="46.3972" lon="5.39935">
        <ele>400.4</ele>
        <time>2022-08-09T14:05:29Z</time>
      </trkpt>
      <trkpt lat="46.39726" lon="5.39934">
        <ele>400.4</ele>
        <time>2022-08-09T14:05:30Z</time>
      </trkpt>
      <trkpt lat="46.39784" lon="5.39924">
        <ele>400.4</ele>
        <time>2022-08-09T14:05:40Z</time>
      </trkpt>
      <trkpt lat="46.398" lon="5.39922">
        <ele>400.6</ele>
        <time>2022-08-09T14:05:43Z</time>
      </trkpt>
      <trkpt lat="46.39838" lon="5.39915">
        <ele>401.2</ele>
        <time>2022-08-09T14:05:50Z</time>
      </trkpt>
      <trkpt lat="46.39872" lon="5.39911">
        <ele>401.6</ele>
        <time>2022-08-09T14:05:56Z</time>
      </trkpt>
      <trkpt lat="46.39895" lon="5.39909">
        <ele>401.8</ele>
        <time>2022-08-09T14:06:00Z</time>
      </trkpt>
      <trkpt lat="46.39945" lon="5.3991">
        <ele>401.6</ele>
        <time>2022-08-09T14:06:08Z</time>
      </trkpt>
      <trkpt lat="46.40005" lon="5.39913">
        <ele>401</ele>
        <time>2022-08-09T14:06:18Z</time>
      </trkpt>
      <trkpt lat="46.40055" lon="5.3991">
        <ele>401.4</ele>
        <time>2022-08-09T14:06:27Z</time>
      </trkpt>
      <trkpt lat="46.4009" lon="5.39893">
        <ele>401.8</ele>
        <time>2022-08-09T14:06:34Z</time>
      </trkpt>
      <trkpt lat="46.40112" lon="5.39877">
        <ele>402.8</ele>
        <time>2022-08-09T14:06:39Z</time>
      </trkpt>
      <trkpt lat="46.40138" lon="5.39858">
        <ele>403.2</ele>
        <time>2022-08-09T14:06:45Z</time>
      </trkpt>
      <trkpt lat="46.40175" lon="5.39835">
        <ele>403.8</ele>
        <time>2022-08-09T14:06:53Z</time>
      </trkpt>
      <trkpt lat="46.40186" lon="5.3983">
        <ele>404</ele>
        <time>2022-08-09T14:06:55Z</time>
      </trkpt>
      <trkpt lat="46.40233" lon="5.39824">
        <ele>404.6</ele>
        <time>2022-08-09T14:07:03Z</time>
      </trkpt>
      <trkpt lat="46.40277" lon="5.39829">
        <ele>404.4</ele>
        <time>2022-08-09T14:07:10Z</time>
      </trkpt>
      <trkpt lat="46.40283" lon="5.39832">
        <ele>404.4</ele>
        <time>2022-08-09T14:07:11Z</time>
      </trkpt>
      <trkpt lat="46.40309" lon="5.39849">
        <ele>404</ele>
        <time>2022-08-09T14:07:16Z</time>
      </trkpt>
      <trkpt lat="46.40337" lon="5.39864">
        <ele>404.4</ele>
        <time>2022-08-09T14:07:22Z</time>
      </trkpt>
      <trkpt lat="46.40375" lon="5.39876">
        <ele>404.6</ele>
        <time>2022-08-09T14:07:30Z</time>
      </trkpt>
      <trkpt lat="46.40414" lon="5.3989">
        <ele>405</ele>
        <time>2022-08-09T14:07:38Z</time>
      </trkpt>
      <trkpt lat="46.40444" lon="5.399">
        <ele>405.4</ele>
        <time>2022-08-09T14:07:44Z</time>
      </trkpt>
      <trkpt lat="46.40483" lon="5.39914">
        <ele>406</ele>
        <time>2022-08-09T14:07:52Z</time>
      </trkpt>
      <trkpt lat="46.40487" lon="5.39916">
        <ele>406.2</ele>
        <time>2022-08-09T14:07:53Z</time>
      </trkpt>
      <trkpt lat="46.40522" lon="5.39939">
        <ele>406.8</ele>
        <time>2022-08-09T14:08:01Z</time>
      </trkpt>
      <trkpt lat="46.40533" lon="5.39949">
        <ele>407</ele>
        <time>2022-08-09T14:08:04Z</time>
      </trkpt>
      <trkpt lat="46.40562" lon="5.39974">
        <ele>407.8</ele>
        <time>2022-08-09T14:08:11Z</time>
      </trkpt>
      <trkpt lat="46.40579" lon="5.39988">
        <ele>408</ele>
        <time>2022-08-09T14:08:15Z</time>
      </trkpt>
      <trkpt lat="46.40589" lon="5.39993">
        <ele>408.2</ele>
        <time>2022-08-09T14:08:17Z</time>
      </trkpt>
      <trkpt lat="46.40594" lon="5.39995">
        <ele>408.2</ele>
        <time>2022-08-09T14:08:18Z</time>
      </trkpt>
      <trkpt lat="46.40635" lon="5.40005">
        <ele>408.4</ele>
        <time>2022-08-09T14:08:26Z</time>
      </trkpt>
      <trkpt lat="46.40666" lon="5.40024">
        <ele>408.4</ele>
        <time>2022-08-09T14:08:32Z</time>
      </trkpt>
      <trkpt lat="46.40703" lon="5.4005">
        <ele>408.4</ele>
        <time>2022-08-09T14:08:39Z</time>
      </trkpt>
      <trkpt lat="46.4075" lon="5.40081">
        <ele>408.8</ele>
        <time>2022-08-09T14:08:48Z</time>
      </trkpt>
      <trkpt lat="46.40766" lon="5.40091">
        <ele>409.2</ele>
        <time>2022-08-09T14:08:51Z</time>
      </trkpt>
      <trkpt lat="46.40781" lon="5.40101">
        <ele>409.4</ele>
        <time>2022-08-09T14:08:54Z</time>
      </trkpt>
      <trkpt lat="46.40806" lon="5.40119">
        <ele>410</ele>
        <time>2022-08-09T14:08:59Z</time>
      </trkpt>
      <trkpt lat="46.40815" lon="5.40127">
        <ele>410</ele>
        <time>2022-08-09T14:09:01Z</time>
      </trkpt>
      <trkpt lat="46.40831" lon="5.40134">
        <ele>410.2</ele>
        <time>2022-08-09T14:09:04Z</time>
      </trkpt>
      <trkpt lat="46.40842" lon="5.40137">
        <ele>410.2</ele>
        <time>2022-08-09T14:09:06Z</time>
      </trkpt>
      <trkpt lat="46.40847" lon="5.40139">
        <ele>410.4</ele>
        <time>2022-08-09T14:09:07Z</time>
      </trkpt>
      <trkpt lat="46.4088" lon="5.40143">
        <ele>411</ele>
        <time>2022-08-09T14:09:13Z</time>
      </trkpt>
      <trkpt lat="46.40895" lon="5.40146">
        <ele>411.4</ele>
        <time>2022-08-09T14:09:16Z</time>
      </trkpt>
      <trkpt lat="46.40916" lon="5.40151">
        <ele>411.8</ele>
        <time>2022-08-09T14:09:20Z</time>
      </trkpt>
      <trkpt lat="46.40937" lon="5.40155">
        <ele>412.4</ele>
        <time>2022-08-09T14:09:24Z</time>
      </trkpt>
      <trkpt lat="46.40962" lon="5.4016">
        <ele>413.4</ele>
        <time>2022-08-09T14:09:29Z</time>
      </trkpt>
      <trkpt lat="46.40967" lon="5.40161">
        <ele>413.4</ele>
        <time>2022-08-09T14:09:30Z</time>
      </trkpt>
      <trkpt lat="46.41003" lon="5.40171">
        <ele>414.4</ele>
        <time>2022-08-09T14:09:37Z</time>
      </trkpt>
      <trkpt lat="46.41008" lon="5.40172">
        <ele>414.6</ele>
        <time>2022-08-09T14:09:38Z</time>
      </trkpt>
      <trkpt lat="46.41052" lon="5.40181">
        <ele>414.2</ele>
        <time>2022-08-09T14:09:46Z</time>
      </trkpt>
      <trkpt lat="46.41093" lon="5.40187">
        <ele>414.4</ele>
        <time>2022-08-09T14:09:54Z</time>
      </trkpt>
      <trkpt lat="46.41124" lon="5.4018">
        <ele>414.8</ele>
        <time>2022-08-09T14:10:00Z</time>
      </trkpt>
      <trkpt lat="46.41171" lon="5.40157">
        <ele>415.2</ele>
        <time>2022-08-09T14:10:09Z</time>
      </trkpt>
      <trkpt lat="46.41181" lon="5.40151">
        <ele>415.6</ele>
        <time>2022-08-09T14:10:11Z</time>
      </trkpt>
      <trkpt lat="46.41207" lon="5.40138">
        <ele>416</ele>
        <time>2022-08-09T14:10:16Z</time>
      </trkpt>
      <trkpt lat="46.41255" lon="5.40121">
        <ele>416.2</ele>
        <time>2022-08-09T14:10:25Z</time>
      </trkpt>
      <trkpt lat="46.41291" lon="5.40117">
        <ele>416.8</ele>
        <time>2022-08-09T14:10:32Z</time>
      </trkpt>
      <trkpt lat="46.41306" lon="5.40115">
        <ele>417.2</ele>
        <time>2022-08-09T14:10:35Z</time>
      </trkpt>
      <trkpt lat="46.41346" lon="5.40116">
        <ele>418</ele>
        <time>2022-08-09T14:10:43Z</time>
      </trkpt>
      <trkpt lat="46.41369" lon="5.40116">
        <ele>418.8</ele>
        <time>2022-08-09T14:10:48Z</time>
      </trkpt>
      <trkpt lat="46.41379" lon="5.40117">
        <ele>419.2</ele>
        <time>2022-08-09T14:10:50Z</time>
      </trkpt>
      <trkpt lat="46.41405" lon="5.40118">
        <ele>420</ele>
        <time>2022-08-09T14:10:56Z</time>
      </trkpt>
      <trkpt lat="46.41421" lon="5.40117">
        <ele>420.2</ele>
        <time>2022-08-09T14:11:00Z</time>
      </trkpt>
      <trkpt lat="46.4145" lon="5.40115">
        <ele>421</ele>
        <time>2022-08-09T14:11:07Z</time>
      </trkpt>
      <trkpt lat="46.41454" lon="5.40115">
        <ele>421</ele>
        <time>2022-08-09T14:11:08Z</time>
      </trkpt>
      <trkpt lat="46.41486" lon="5.40112">
        <ele>421.8</ele>
        <time>2022-08-09T14:11:16Z</time>
      </trkpt>
      <trkpt lat="46.41498" lon="5.40112">
        <ele>422.2</ele>
        <time>2022-08-09T14:11:19Z</time>
      </trkpt>
      <trkpt lat="46.41514" lon="5.4011">
        <ele>423.2</ele>
        <time>2022-08-09T14:11:23Z</time>
      </trkpt>
      <trkpt lat="46.41526" lon="5.40109">
        <ele>423.4</ele>
        <time>2022-08-09T14:11:26Z</time>
      </trkpt>
      <trkpt lat="46.41554" lon="5.40106">
        <ele>424.2</ele>
        <time>2022-08-09T14:11:33Z</time>
      </trkpt>
      <trkpt lat="46.41566" lon="5.40105">
        <ele>424.4</ele>
        <time>2022-08-09T14:11:36Z</time>
      </trkpt>
      <trkpt lat="46.41581" lon="5.40101">
        <ele>425.4</ele>
        <time>2022-08-09T14:11:40Z</time>
      </trkpt>
      <trkpt lat="46.41604" lon="5.40093">
        <ele>426</ele>
        <time>2022-08-09T14:11:46Z</time>
      </trkpt>
      <trkpt lat="46.41626" lon="5.40084">
        <ele>426.4</ele>
        <time>2022-08-09T14:11:52Z</time>
      </trkpt>
      <trkpt lat="46.41629" lon="5.40082">
        <ele>426.4</ele>
        <time>2022-08-09T14:11:53Z</time>
      </trkpt>
      <trkpt lat="46.41646" lon="5.40071">
        <ele>427.4</ele>
        <time>2022-08-09T14:11:58Z</time>
      </trkpt>
      <trkpt lat="46.4165" lon="5.40069">
        <ele>427.6</ele>
        <time>2022-08-09T14:11:59Z</time>
      </trkpt>
      <trkpt lat="46.41666" lon="5.40056">
        <ele>428.4</ele>
        <time>2022-08-09T14:12:04Z</time>
      </trkpt>
      <trkpt lat="46.41669" lon="5.40053">
        <ele>429</ele>
        <time>2022-08-09T14:12:05Z</time>
      </trkpt>
      <trkpt lat="46.41691" lon="5.40037">
        <ele>430</ele>
        <time>2022-08-09T14:12:12Z</time>
      </trkpt>
      <trkpt lat="46.41701" lon="5.40032">
        <ele>430.6</ele>
        <time>2022-08-09T14:12:15Z</time>
      </trkpt>
      <trkpt lat="46.41708" lon="5.40029">
        <ele>431.2</ele>
        <time>2022-08-09T14:12:17Z</time>
      </trkpt>
      <trkpt lat="46.41728" lon="5.40023">
        <ele>432.4</ele>
        <time>2022-08-09T14:12:23Z</time>
      </trkpt>
      <trkpt lat="46.41732" lon="5.40023">
        <ele>432.8</ele>
        <time>2022-08-09T14:12:24Z</time>
      </trkpt>
      <trkpt lat="46.4175" lon="5.40022">
        <ele>433.8</ele>
        <time>2022-08-09T14:12:29Z</time>
      </trkpt>
      <trkpt lat="46.41768" lon="5.40027">
        <ele>434.6</ele>
        <time>2022-08-09T14:12:34Z</time>
      </trkpt>
      <trkpt lat="46.41775" lon="5.40029">
        <ele>434.8</ele>
        <time>2022-08-09T14:12:36Z</time>
      </trkpt>
      <trkpt lat="46.41793" lon="5.40034">
        <ele>436</ele>
        <time>2022-08-09T14:12:41Z</time>
      </trkpt>
      <trkpt lat="46.41803" lon="5.40037">
        <ele>436.6</ele>
        <time>2022-08-09T14:12:44Z</time>
      </trkpt>
      <trkpt lat="46.41818" lon="5.40042">
        <ele>437.2</ele>
        <time>2022-08-09T14:12:48Z</time>
      </trkpt>
      <trkpt lat="46.41838" lon="5.40048">
        <ele>437.6</ele>
        <time>2022-08-09T14:12:54Z</time>
      </trkpt>
      <trkpt lat="46.41852" lon="5.40051">
        <ele>438.2</ele>
        <time>2022-08-09T14:12:58Z</time>
      </trkpt>
      <trkpt lat="46.41865" lon="5.40054">
        <ele>439.6</ele>
        <time>2022-08-09T14:13:02Z</time>
      </trkpt>
      <trkpt lat="46.41872" lon="5.40056">
        <ele>439.6</ele>
        <time>2022-08-09T14:13:04Z</time>
      </trkpt>
      <trkpt lat="46.41889" lon="5.40058">
        <ele>440.6</ele>
        <time>2022-08-09T14:13:09Z</time>
      </trkpt>
      <trkpt lat="46.41917" lon="5.40059">
        <ele>441.4</ele>
        <time>2022-08-09T14:13:17Z</time>
      </trkpt>
      <trkpt lat="46.4192" lon="5.40059">
        <ele>441.8</ele>
        <time>2022-08-09T14:13:18Z</time>
      </trkpt>
      <trkpt lat="46.41935" lon="5.40058">
        <ele>442.8</ele>
        <time>2022-08-09T14:13:22Z</time>
      </trkpt>
      <trkpt lat="46.41953" lon="5.40056">
        <ele>443.8</ele>
        <time>2022-08-09T14:13:27Z</time>
      </trkpt>
      <trkpt lat="46.4196" lon="5.40055">
        <ele>444</ele>
        <time>2022-08-09T14:13:29Z</time>
      </trkpt>
      <trkpt lat="46.4198" lon="5.40056">
        <ele>444.8</ele>
        <time>2022-08-09T14:13:35Z</time>
      </trkpt>
      <trkpt lat="46.41998" lon="5.40059">
        <ele>445.8</ele>
        <time>2022-08-09T14:13:40Z</time>
      </trkpt>
      <trkpt lat="46.42002" lon="5.4006">
        <ele>446</ele>
        <time>2022-08-09T14:13:41Z</time>
      </trkpt>
      <trkpt lat="46.42019" lon="5.40063">
        <ele>447</ele>
        <time>2022-08-09T14:13:46Z</time>
      </trkpt>
      <trkpt lat="46.42023" lon="5.40064">
        <ele>447.2</ele>
        <time>2022-08-09T14:13:47Z</time>
      </trkpt>
      <trkpt lat="46.4204" lon="5.40068">
        <ele>448</ele>
        <time>2022-08-09T14:13:52Z</time>
      </trkpt>
      <trkpt lat="46.42044" lon="5.4007">
        <ele>448.2</ele>
        <time>2022-08-09T14:13:53Z</time>
      </trkpt>
      <trkpt lat="46.42062" lon="5.40077">
        <ele>449.2</ele>
        <time>2022-08-09T14:13:58Z</time>
      </trkpt>
      <trkpt lat="46.42069" lon="5.40079">
        <ele>449.4</ele>
        <time>2022-08-09T14:14:00Z</time>
      </trkpt>
      <trkpt lat="46.42086" lon="5.40084">
        <ele>450.2</ele>
        <time>2022-08-09T14:14:05Z</time>
      </trkpt>
      <trkpt lat="46.42108" lon="5.40088">
        <ele>451.2</ele>
        <time>2022-08-09T14:14:11Z</time>
      </trkpt>
      <trkpt lat="46.42116" lon="5.40089">
        <ele>451.6</ele>
        <time>2022-08-09T14:14:13Z</time>
      </trkpt>
      <trkpt lat="46.42136" lon="5.40086">
        <ele>452.4</ele>
        <time>2022-08-09T14:14:18Z</time>
      </trkpt>
      <trkpt lat="46.42139" lon="5.40085">
        <ele>452.6</ele>
        <time>2022-08-09T14:14:19Z</time>
      </trkpt>
      <trkpt lat="46.42158" lon="5.40079">
        <ele>453.4</ele>
        <time>2022-08-09T14:14:24Z</time>
      </trkpt>
      <trkpt lat="46.42165" lon="5.40077">
        <ele>453.8</ele>
        <time>2022-08-09T14:14:26Z</time>
      </trkpt>
      <trkpt lat="46.42187" lon="5.40069">
        <ele>454.6</ele>
        <time>2022-08-09T14:14:32Z</time>
      </trkpt>
      <trkpt lat="46.42211" lon="5.40061">
        <ele>455.8</ele>
        <time>2022-08-09T14:14:38Z</time>
      </trkpt>
      <trkpt lat="46.42215" lon="5.4006">
        <ele>456</ele>
        <time>2022-08-09T14:14:39Z</time>
      </trkpt>
      <trkpt lat="46.42243" lon="5.40052">
        <ele>456.8</ele>
        <time>2022-08-09T14:14:45Z</time>
      </trkpt>
      <trkpt lat="46.42253" lon="5.40049">
        <ele>457</ele>
        <time>2022-08-09T14:14:47Z</time>
      </trkpt>
      <trkpt lat="46.42305" lon="5.40033">
        <ele>457.6</ele>
        <time>2022-08-09T14:14:58Z</time>
      </trkpt>
      <trkpt lat="46.42349" lon="5.40019">
        <ele>457.8</ele>
        <time>2022-08-09T14:15:07Z</time>
      </trkpt>
      <trkpt lat="46.42353" lon="5.40017">
        <ele>458</ele>
        <time>2022-08-09T14:15:08Z</time>
      </trkpt>
      <trkpt lat="46.42379" lon="5.40007">
        <ele>459</ele>
        <time>2022-08-09T14:15:14Z</time>
      </trkpt>
      <trkpt lat="46.42386" lon="5.40003">
        <ele>459.4</ele>
        <time>2022-08-09T14:15:16Z</time>
      </trkpt>
      <trkpt lat="46.42392" lon="5.39993">
        <ele>459.8</ele>
        <time>2022-08-09T14:15:18Z</time>
      </trkpt>
      <trkpt lat="46.42393" lon="5.39986">
        <ele>460</ele>
        <time>2022-08-09T14:15:19Z</time>
      </trkpt>
      <trkpt lat="46.42394" lon="5.39979">
        <ele>460</ele>
        <time>2022-08-09T14:15:20Z</time>
      </trkpt>
      <trkpt lat="46.42395" lon="5.39946">
        <ele>460.6</ele>
        <time>2022-08-09T14:15:24Z</time>
      </trkpt>
      <trkpt lat="46.42396" lon="5.39921">
        <ele>461</ele>
        <time>2022-08-09T14:15:27Z</time>
      </trkpt>
      <trkpt lat="46.42396" lon="5.39876">
        <ele>461.6</ele>
        <time>2022-08-09T14:15:33Z</time>
      </trkpt>
      <trkpt lat="46.42397" lon="5.3984">
        <ele>461.8</ele>
        <time>2022-08-09T14:15:38Z</time>
      </trkpt>
      <trkpt lat="46.42397" lon="5.39825">
        <ele>462.2</ele>
        <time>2022-08-09T14:15:40Z</time>
      </trkpt>
      <trkpt lat="46.42399" lon="5.39811">
        <ele>462.8</ele>
        <time>2022-08-09T14:15:42Z</time>
      </trkpt>
      <trkpt lat="46.42404" lon="5.398">
        <ele>463.2</ele>
        <time>2022-08-09T14:15:44Z</time>
      </trkpt>
      <trkpt lat="46.42409" lon="5.39797">
        <ele>463.2</ele>
        <time>2022-08-09T14:15:45Z</time>
      </trkpt>
      <trkpt lat="46.42414" lon="5.39795">
        <ele>463.4</ele>
        <time>2022-08-09T14:15:46Z</time>
      </trkpt>
      <trkpt lat="46.42419" lon="5.39795">
        <ele>463.6</ele>
        <time>2022-08-09T14:15:47Z</time>
      </trkpt>
      <trkpt lat="46.42425" lon="5.39796">
        <ele>463.6</ele>
        <time>2022-08-09T14:15:48Z</time>
      </trkpt>
      <trkpt lat="46.42448" lon="5.39802">
        <ele>463.8</ele>
        <time>2022-08-09T14:15:52Z</time>
      </trkpt>
      <trkpt lat="46.4246" lon="5.39809">
        <ele>463.8</ele>
        <time>2022-08-09T14:15:54Z</time>
      </trkpt>
      <trkpt lat="46.4247" lon="5.3982">
        <ele>464</ele>
        <time>2022-08-09T14:15:56Z</time>
      </trkpt>
      <trkpt lat="46.42474" lon="5.39826">
        <ele>464</ele>
        <time>2022-08-09T14:15:57Z</time>
      </trkpt>
      <trkpt lat="46.425" lon="5.39863">
        <ele>463.8</ele>
        <time>2022-08-09T14:16:03Z</time>
      </trkpt>
      <trkpt lat="46.42504" lon="5.39869">
        <ele>463.8</ele>
        <time>2022-08-09T14:16:04Z</time>
      </trkpt>
      <trkpt lat="46.42523" lon="5.39887">
        <ele>463.8</ele>
        <time>2022-08-09T14:16:08Z</time>
      </trkpt>
      <trkpt lat="46.42557" lon="5.39913">
        <ele>463.8</ele>
        <time>2022-08-09T14:16:15Z</time>
      </trkpt>
      <trkpt lat="46.42589" lon="5.39937">
        <ele>464.4</ele>
        <time>2022-08-09T14:16:22Z</time>
      </trkpt>
      <trkpt lat="46.42625" lon="5.39956">
        <ele>464.2</ele>
        <time>2022-08-09T14:16:30Z</time>
      </trkpt>
      <trkpt lat="46.4267" lon="5.39978">
        <ele>464.6</ele>
        <time>2022-08-09T14:16:40Z</time>
      </trkpt>
      <trkpt lat="46.42705" lon="5.39994">
        <ele>465</ele>
        <time>2022-08-09T14:16:47Z</time>
      </trkpt>
      <trkpt lat="46.42755" lon="5.40015">
        <ele>465.2</ele>
        <time>2022-08-09T14:16:57Z</time>
      </trkpt>
      <trkpt lat="46.42764" lon="5.40019">
        <ele>465.4</ele>
        <time>2022-08-09T14:16:59Z</time>
      </trkpt>
      <trkpt lat="46.42797" lon="5.40031">
        <ele>465.4</ele>
        <time>2022-08-09T14:17:06Z</time>
      </trkpt>
      <trkpt lat="46.42801" lon="5.40032">
        <ele>465.4</ele>
        <time>2022-08-09T14:17:07Z</time>
      </trkpt>
      <trkpt lat="46.42836" lon="5.40044">
        <ele>465.4</ele>
        <time>2022-08-09T14:17:13Z</time>
      </trkpt>
      <trkpt lat="46.42876" lon="5.40055">
        <ele>465</ele>
        <time>2022-08-09T14:17:20Z</time>
      </trkpt>
      <trkpt lat="46.42916" lon="5.40058">
        <ele>465.2</ele>
        <time>2022-08-09T14:17:28Z</time>
      </trkpt>
      <trkpt lat="46.42953" lon="5.40061">
        <ele>465.8</ele>
        <time>2022-08-09T14:17:36Z</time>
      </trkpt>
      <trkpt lat="46.42981" lon="5.40066">
        <ele>466.8</ele>
        <time>2022-08-09T14:17:42Z</time>
      </trkpt>
      <trkpt lat="46.42995" lon="5.40069">
        <ele>467.4</ele>
        <time>2022-08-09T14:17:45Z</time>
      </trkpt>
      <trkpt lat="46.43009" lon="5.40072">
        <ele>467.8</ele>
        <time>2022-08-09T14:17:48Z</time>
      </trkpt>
      <trkpt lat="46.43035" lon="5.40077">
        <ele>468</ele>
        <time>2022-08-09T14:17:54Z</time>
      </trkpt>
      <trkpt lat="46.43058" lon="5.40078">
        <ele>468</ele>
        <time>2022-08-09T14:17:59Z</time>
      </trkpt>
      <trkpt lat="46.43091" lon="5.4008">
        <ele>467.6</ele>
        <time>2022-08-09T14:18:05Z</time>
      </trkpt>
      <trkpt lat="46.43125" lon="5.40089">
        <ele>466.8</ele>
        <time>2022-08-09T14:18:10Z</time>
      </trkpt>
      <trkpt lat="46.43145" lon="5.40091">
        <ele>466.4</ele>
        <time>2022-08-09T14:18:13Z</time>
      </trkpt>
      <trkpt lat="46.43171" lon="5.40094">
        <ele>465.8</ele>
        <time>2022-08-09T14:18:17Z</time>
      </trkpt>
      <trkpt lat="46.43201" lon="5.40107">
        <ele>466</ele>
        <time>2022-08-09T14:18:22Z</time>
      </trkpt>
      <trkpt lat="46.4322" lon="5.40118">
        <ele>466</ele>
        <time>2022-08-09T14:18:25Z</time>
      </trkpt>
      <trkpt lat="46.4324" lon="5.40123">
        <ele>466</ele>
        <time>2022-08-09T14:18:28Z</time>
      </trkpt>
      <trkpt lat="46.43273" lon="5.40121">
        <ele>465.4</ele>
        <time>2022-08-09T14:18:33Z</time>
      </trkpt>
      <trkpt lat="46.43279" lon="5.4012">
        <ele>465.2</ele>
        <time>2022-08-09T14:18:34Z</time>
      </trkpt>
      <trkpt lat="46.43332" lon="5.40117">
        <ele>464.4</ele>
        <time>2022-08-09T14:18:42Z</time>
      </trkpt>
      <trkpt lat="46.43383" lon="5.40124">
        <ele>464.2</ele>
        <time>2022-08-09T14:18:50Z</time>
      </trkpt>
      <trkpt lat="46.43436" lon="5.40143">
        <ele>464.6</ele>
        <time>2022-08-09T14:18:58Z</time>
      </trkpt>
      <trkpt lat="46.43448" lon="5.40148">
        <ele>464.4</ele>
        <time>2022-08-09T14:19:00Z</time>
      </trkpt>
      <trkpt lat="46.43489" lon="5.4017">
        <ele>464.2</ele>
        <time>2022-08-09T14:19:07Z</time>
      </trkpt>
      <trkpt lat="46.43524" lon="5.40175">
        <ele>464.8</ele>
        <time>2022-08-09T14:19:13Z</time>
      </trkpt>
      <trkpt lat="46.43564" lon="5.40179">
        <ele>465.4</ele>
        <time>2022-08-09T14:19:20Z</time>
      </trkpt>
      <trkpt lat="46.4357" lon="5.40181">
        <ele>465.4</ele>
        <time>2022-08-09T14:19:21Z</time>
      </trkpt>
      <trkpt lat="46.43608" lon="5.4019">
        <ele>465.2</ele>
        <time>2022-08-09T14:19:27Z</time>
      </trkpt>
      <trkpt lat="46.43648" lon="5.40187">
        <ele>465.2</ele>
        <time>2022-08-09T14:19:34Z</time>
      </trkpt>
      <trkpt lat="46.43691" lon="5.40181">
        <ele>466</ele>
        <time>2022-08-09T14:19:42Z</time>
      </trkpt>
      <trkpt lat="46.43722" lon="5.40176">
        <ele>466.4</ele>
        <time>2022-08-09T14:19:48Z</time>
      </trkpt>
      <trkpt lat="46.43742" lon="5.40172">
        <ele>466.6</ele>
        <time>2022-08-09T14:19:52Z</time>
      </trkpt>
      <trkpt lat="46.43778" lon="5.40164">
        <ele>467.2</ele>
        <time>2022-08-09T14:19:58Z</time>
      </trkpt>
      <trkpt lat="46.43817" lon="5.4015">
        <ele>467.2</ele>
        <time>2022-08-09T14:20:05Z</time>
      </trkpt>
      <trkpt lat="46.43861" lon="5.40136">
        <ele>467.4</ele>
        <time>2022-08-09T14:20:12Z</time>
      </trkpt>
      <trkpt lat="46.43868" lon="5.40133">
        <ele>467.2</ele>
        <time>2022-08-09T14:20:13Z</time>
      </trkpt>
      <trkpt lat="46.43881" lon="5.40124">
        <ele>466.8</ele>
        <time>2022-08-09T14:20:15Z</time>
      </trkpt>
      <trkpt lat="46.43887" lon="5.40119">
        <ele>466.8</ele>
        <time>2022-08-09T14:20:16Z</time>
      </trkpt>
      <trkpt lat="46.43927" lon="5.40089">
        <ele>466</ele>
        <time>2022-08-09T14:20:23Z</time>
      </trkpt>
      <trkpt lat="46.43939" lon="5.40086">
        <ele>466.2</ele>
        <time>2022-08-09T14:20:25Z</time>
      </trkpt>
      <trkpt lat="46.43953" lon="5.40086">
        <ele>466.4</ele>
        <time>2022-08-09T14:20:27Z</time>
      </trkpt>
      <trkpt lat="46.43998" lon="5.40084">
        <ele>465.8</ele>
        <time>2022-08-09T14:20:33Z</time>
      </trkpt>
      <trkpt lat="46.44038" lon="5.40076">
        <ele>465.6</ele>
        <time>2022-08-09T14:20:39Z</time>
      </trkpt>
      <trkpt lat="46.44089" lon="5.40062">
        <ele>466.6</ele>
        <time>2022-08-09T14:20:47Z</time>
      </trkpt>
      <trkpt lat="46.4413" lon="5.40049">
        <ele>467</ele>
        <time>2022-08-09T14:20:54Z</time>
      </trkpt>
      <trkpt lat="46.44135" lon="5.40046">
        <ele>467.2</ele>
        <time>2022-08-09T14:20:55Z</time>
      </trkpt>
      <trkpt lat="46.4416" lon="5.40024">
        <ele>467.2</ele>
        <time>2022-08-09T14:21:00Z</time>
      </trkpt>
      <trkpt lat="46.4419" lon="5.39998">
        <ele>468.2</ele>
        <time>2022-08-09T14:21:06Z</time>
      </trkpt>
      <trkpt lat="46.44204" lon="5.39985">
        <ele>468.4</ele>
        <time>2022-08-09T14:21:09Z</time>
      </trkpt>
      <trkpt lat="46.44244" lon="5.39957">
        <ele>468.8</ele>
        <time>2022-08-09T14:21:16Z</time>
      </trkpt>
      <trkpt lat="46.44282" lon="5.39954">
        <ele>468.8</ele>
        <time>2022-08-09T14:21:22Z</time>
      </trkpt>
      <trkpt lat="46.44309" lon="5.39953">
        <ele>469.4</ele>
        <time>2022-08-09T14:21:27Z</time>
      </trkpt>
      <trkpt lat="46.44332" lon="5.39953">
        <ele>470.6</ele>
        <time>2022-08-09T14:21:32Z</time>
      </trkpt>
      <trkpt lat="46.44341" lon="5.39953">
        <ele>471.2</ele>
        <time>2022-08-09T14:21:34Z</time>
      </trkpt>
      <trkpt lat="46.44346" lon="5.39953">
        <ele>471.6</ele>
        <time>2022-08-09T14:21:35Z</time>
      </trkpt>
      <trkpt lat="46.4439" lon="5.39952">
        <ele>472.6</ele>
        <time>2022-08-09T14:21:44Z</time>
      </trkpt>
      <trkpt lat="46.4442" lon="5.3995">
        <ele>472.8</ele>
        <time>2022-08-09T14:21:49Z</time>
      </trkpt>
      <trkpt lat="46.44457" lon="5.39937">
        <ele>471.6</ele>
        <time>2022-08-09T14:21:55Z</time>
      </trkpt>
      <trkpt lat="46.445" lon="5.39915">
        <ele>471.6</ele>
        <time>2022-08-09T14:22:03Z</time>
      </trkpt>
      <trkpt lat="46.44546" lon="5.39893">
        <ele>472.8</ele>
        <time>2022-08-09T14:22:12Z</time>
      </trkpt>
      <trkpt lat="46.44596" lon="5.39864">
        <ele>473</ele>
        <time>2022-08-09T14:22:21Z</time>
      </trkpt>
      <trkpt lat="46.44626" lon="5.39827">
        <ele>473.4</ele>
        <time>2022-08-09T14:22:28Z</time>
      </trkpt>
      <trkpt lat="46.44648" lon="5.39807">
        <ele>473.4</ele>
        <time>2022-08-09T14:22:32Z</time>
      </trkpt>
      <trkpt lat="46.44657" lon="5.39802">
        <ele>473.4</ele>
        <time>2022-08-09T14:22:33Z</time>
      </trkpt>
      <trkpt lat="46.44665" lon="5.39799">
        <ele>473.4</ele>
        <time>2022-08-09T14:22:34Z</time>
      </trkpt>
      <trkpt lat="46.44681" lon="5.39796">
        <ele>473.4</ele>
        <time>2022-08-09T14:22:36Z</time>
      </trkpt>
      <trkpt lat="46.44689" lon="5.39796">
        <ele>473.2</ele>
        <time>2022-08-09T14:22:37Z</time>
      </trkpt>
      <trkpt lat="46.44724" lon="5.39799">
        <ele>472.2</ele>
        <time>2022-08-09T14:22:42Z</time>
      </trkpt>
      <trkpt lat="46.4475" lon="5.39799">
        <ele>472.4</ele>
        <time>2022-08-09T14:22:47Z</time>
      </trkpt>
      <trkpt lat="46.44763" lon="5.39799">
        <ele>472.8</ele>
        <time>2022-08-09T14:22:50Z</time>
      </trkpt>
      <trkpt lat="46.44779" lon="5.39798">
        <ele>473.4</ele>
        <time>2022-08-09T14:22:53Z</time>
      </trkpt>
      <trkpt lat="46.44784" lon="5.39797">
        <ele>474</ele>
        <time>2022-08-09T14:22:54Z</time>
      </trkpt>
      <trkpt lat="46.44796" lon="5.39793">
        <ele>474.4</ele>
        <time>2022-08-09T14:22:56Z</time>
      </trkpt>
      <trkpt lat="46.44809" lon="5.39787">
        <ele>474.6</ele>
        <time>2022-08-09T14:22:58Z</time>
      </trkpt>
      <trkpt lat="46.44816" lon="5.39783">
        <ele>474.6</ele>
        <time>2022-08-09T14:22:59Z</time>
      </trkpt>
      <trkpt lat="46.44836" lon="5.39767">
        <ele>474.6</ele>
        <time>2022-08-09T14:23:02Z</time>
      </trkpt>
      <trkpt lat="46.44864" lon="5.39754">
        <ele>474</ele>
        <time>2022-08-09T14:23:06Z</time>
      </trkpt>
      <trkpt lat="46.44878" lon="5.39751">
        <ele>473.8</ele>
        <time>2022-08-09T14:23:08Z</time>
      </trkpt>
      <trkpt lat="46.44896" lon="5.3975">
        <ele>473.8</ele>
        <time>2022-08-09T14:23:11Z</time>
      </trkpt>
      <trkpt lat="46.44932" lon="5.39739">
        <ele>475</ele>
        <time>2022-08-09T14:23:18Z</time>
      </trkpt>
      <trkpt lat="46.44938" lon="5.39738">
        <ele>475</ele>
        <time>2022-08-09T14:23:19Z</time>
      </trkpt>
      <trkpt lat="46.4497" lon="5.39729">
        <ele>475</ele>
        <time>2022-08-09T14:23:24Z</time>
      </trkpt>
      <trkpt lat="46.44976" lon="5.39726">
        <ele>475</ele>
        <time>2022-08-09T14:23:25Z</time>
      </trkpt>
      <trkpt lat="46.44992" lon="5.39712">
        <ele>475</ele>
        <time>2022-08-09T14:23:28Z</time>
      </trkpt>
      <trkpt lat="46.45027" lon="5.39675">
        <ele>475.6</ele>
        <time>2022-08-09T14:23:36Z</time>
      </trkpt>
      <trkpt lat="46.45045" lon="5.3966">
        <ele>476</ele>
        <time>2022-08-09T14:23:40Z</time>
      </trkpt>
      <trkpt lat="46.45062" lon="5.39647">
        <ele>476.8</ele>
        <time>2022-08-09T14:23:44Z</time>
      </trkpt>
      <trkpt lat="46.45071" lon="5.3964">
        <ele>477.2</ele>
        <time>2022-08-09T14:23:46Z</time>
      </trkpt>
      <trkpt lat="46.45101" lon="5.39618">
        <ele>478.2</ele>
        <time>2022-08-09T14:23:53Z</time>
      </trkpt>
      <trkpt lat="46.45106" lon="5.39616">
        <ele>478.2</ele>
        <time>2022-08-09T14:23:54Z</time>
      </trkpt>
      <trkpt lat="46.45138" lon="5.39595">
        <ele>478.8</ele>
        <time>2022-08-09T14:24:01Z</time>
      </trkpt>
      <trkpt lat="46.45144" lon="5.39593">
        <ele>479.2</ele>
        <time>2022-08-09T14:24:04Z</time>
      </trkpt>
      <trkpt lat="46.45144" lon="5.39593">
        <ele>479.2</ele>
        <time>2022-08-09T14:24:06Z</time>
      </trkpt>
      <trkpt lat="46.45147" lon="5.39594">
        <ele>479.2</ele>
        <time>2022-08-09T14:24:17Z</time>
      </trkpt>
      <trkpt lat="46.45164" lon="5.39587">
        <ele>479.2</ele>
        <time>2022-08-09T14:24:22Z</time>
      </trkpt>
      <trkpt lat="46.45188" lon="5.39576">
        <ele>479.2</ele>
        <time>2022-08-09T14:24:26Z</time>
      </trkpt>
      <trkpt lat="46.45224" lon="5.3956">
        <ele>478.6</ele>
        <time>2022-08-09T14:24:31Z</time>
      </trkpt>
      <trkpt lat="46.45256" lon="5.3954">
        <ele>478</ele>
        <time>2022-08-09T14:24:35Z</time>
      </trkpt>
      <trkpt lat="46.45263" lon="5.39533">
        <ele>477.8</ele>
        <time>2022-08-09T14:24:36Z</time>
      </trkpt>
      <trkpt lat="46.45277" lon="5.39519">
        <ele>477</ele>
        <time>2022-08-09T14:24:38Z</time>
      </trkpt>
      <trkpt lat="46.45302" lon="5.39487">
        <ele>476</ele>
        <time>2022-08-09T14:24:42Z</time>
      </trkpt>
      <trkpt lat="46.4533" lon="5.39432">
        <ele>475</ele>
        <time>2022-08-09T14:24:48Z</time>
      </trkpt>
      <trkpt lat="46.45334" lon="5.39422">
        <ele>474.8</ele>
        <time>2022-08-09T14:24:49Z</time>
      </trkpt>
      <trkpt lat="46.45357" lon="5.39357">
        <ele>474.2</ele>
        <time>2022-08-09T14:24:55Z</time>
      </trkpt>
      <trkpt lat="46.45362" lon="5.39345">
        <ele>473.8</ele>
        <time>2022-08-09T14:24:56Z</time>
      </trkpt>
      <trkpt lat="46.45375" lon="5.39308">
        <ele>472.6</ele>
        <time>2022-08-09T14:24:59Z</time>
      </trkpt>
      <trkpt lat="46.45379" lon="5.39296">
        <ele>472.4</ele>
        <time>2022-08-09T14:25:00Z</time>
      </trkpt>
      <trkpt lat="46.45392" lon="5.39259">
        <ele>471.6</ele>
        <time>2022-08-09T14:25:03Z</time>
      </trkpt>
      <trkpt lat="46.45404" lon="5.39222">
        <ele>470</ele>
        <time>2022-08-09T14:25:06Z</time>
      </trkpt>
      <trkpt lat="46.45421" lon="5.39178">
        <ele>469</ele>
        <time>2022-08-09T14:25:10Z</time>
      </trkpt>
      <trkpt lat="46.45425" lon="5.39167">
        <ele>468.8</ele>
        <time>2022-08-09T14:25:11Z</time>
      </trkpt>
      <trkpt lat="46.45439" lon="5.39125">
        <ele>467.6</ele>
        <time>2022-08-09T14:25:15Z</time>
      </trkpt>
      <trkpt lat="46.45444" lon="5.39111">
        <ele>467.6</ele>
        <time>2022-08-09T14:25:16Z</time>
      </trkpt>
      <trkpt lat="46.4545" lon="5.39103">
        <ele>467.4</ele>
        <time>2022-08-09T14:25:17Z</time>
      </trkpt>
      <trkpt lat="46.45457" lon="5.39096">
        <ele>467.2</ele>
        <time>2022-08-09T14:25:18Z</time>
      </trkpt>
      <trkpt lat="46.45466" lon="5.39092">
        <ele>467</ele>
        <time>2022-08-09T14:25:19Z</time>
      </trkpt>
      <trkpt lat="46.45477" lon="5.39092">
        <ele>466.8</ele>
        <time>2022-08-09T14:25:20Z</time>
      </trkpt>
      <trkpt lat="46.45484" lon="5.39096">
        <ele>466.8</ele>
        <time>2022-08-09T14:25:21Z</time>
      </trkpt>
      <trkpt lat="46.45492" lon="5.39104">
        <ele>466.6</ele>
        <time>2022-08-09T14:25:22Z</time>
      </trkpt>
      <trkpt lat="46.45503" lon="5.39117">
        <ele>466.4</ele>
        <time>2022-08-09T14:25:24Z</time>
      </trkpt>
      <trkpt lat="46.45534" lon="5.39148">
        <ele>466.4</ele>
        <time>2022-08-09T14:25:29Z</time>
      </trkpt>
      <trkpt lat="46.45565" lon="5.39178">
        <ele>466.6</ele>
        <time>2022-08-09T14:25:35Z</time>
      </trkpt>
      <trkpt lat="46.45593" lon="5.39208">
        <ele>468</ele>
        <time>2022-08-09T14:25:42Z</time>
      </trkpt>
      <trkpt lat="46.45598" lon="5.39213">
        <ele>468.2</ele>
        <time>2022-08-09T14:25:43Z</time>
      </trkpt>
      <trkpt lat="46.45615" lon="5.39231">
        <ele>469</ele>
        <time>2022-08-09T14:25:48Z</time>
      </trkpt>
      <trkpt lat="46.45622" lon="5.39239">
        <ele>469.4</ele>
        <time>2022-08-09T14:25:50Z</time>
      </trkpt>
      <trkpt lat="46.45641" lon="5.39258">
        <ele>470.4</ele>
        <time>2022-08-09T14:25:55Z</time>
      </trkpt>
      <trkpt lat="46.45648" lon="5.39266">
        <ele>470.8</ele>
        <time>2022-08-09T14:25:57Z</time>
      </trkpt>
      <trkpt lat="46.45651" lon="5.3927">
        <ele>471</ele>
        <time>2022-08-09T14:25:58Z</time>
      </trkpt>
      <trkpt lat="46.45657" lon="5.39277">
        <ele>471.4</ele>
        <time>2022-08-09T14:26:00Z</time>
      </trkpt>
      <trkpt lat="46.45665" lon="5.39285">
        <ele>471.8</ele>
        <time>2022-08-09T14:26:02Z</time>
      </trkpt>
      <trkpt lat="46.45668" lon="5.39289">
        <ele>472</ele>
        <time>2022-08-09T14:26:03Z</time>
      </trkpt>
      <trkpt lat="46.45675" lon="5.39296">
        <ele>472.6</ele>
        <time>2022-08-09T14:26:05Z</time>
      </trkpt>
      <trkpt lat="46.4569" lon="5.39313">
        <ele>473.6</ele>
        <time>2022-08-09T14:26:10Z</time>
      </trkpt>
      <trkpt lat="46.45699" lon="5.39323">
        <ele>474</ele>
        <time>2022-08-09T14:26:13Z</time>
      </trkpt>
      <trkpt lat="46.45711" lon="5.39335">
        <ele>474.8</ele>
        <time>2022-08-09T14:26:17Z</time>
      </trkpt>
      <trkpt lat="46.4572" lon="5.39345">
        <ele>475.2</ele>
        <time>2022-08-09T14:26:20Z</time>
      </trkpt>
      <trkpt lat="46.45731" lon="5.39357">
        <ele>476</ele>
        <time>2022-08-09T14:26:24Z</time>
      </trkpt>
      <trkpt lat="46.45743" lon="5.39371">
        <ele>477</ele>
        <time>2022-08-09T14:26:29Z</time>
      </trkpt>
      <trkpt lat="46.45756" lon="5.394">
        <ele>478</ele>
        <time>2022-08-09T14:26:37Z</time>
      </trkpt>
      <trkpt lat="46.45758" lon="5.39405">
        <ele>478.2</ele>
        <time>2022-08-09T14:26:38Z</time>
      </trkpt>
      <trkpt lat="46.45765" lon="5.39429">
        <ele>479.4</ele>
        <time>2022-08-09T14:26:44Z</time>
      </trkpt>
      <trkpt lat="46.45766" lon="5.39433">
        <ele>479.8</ele>
        <time>2022-08-09T14:26:45Z</time>
      </trkpt>
      <trkpt lat="46.4577" lon="5.39458">
        <ele>480.8</ele>
        <time>2022-08-09T14:26:50Z</time>
      </trkpt>
      <trkpt lat="46.45772" lon="5.39473">
        <ele>480.8</ele>
        <time>2022-08-09T14:26:53Z</time>
      </trkpt>
      <trkpt lat="46.45772" lon="5.39482">
        <ele>480.8</ele>
        <time>2022-08-09T14:26:55Z</time>
      </trkpt>
      <trkpt lat="46.45769" lon="5.39503">
        <ele>481.6</ele>
        <time>2022-08-09T14:26:59Z</time>
      </trkpt>
      <trkpt lat="46.45768" lon="5.39508">
        <ele>481.6</ele>
        <time>2022-08-09T14:27:00Z</time>
      </trkpt>
      <trkpt lat="46.45766" lon="5.39529">
        <ele>482.4</ele>
        <time>2022-08-09T14:27:04Z</time>
      </trkpt>
      <trkpt lat="46.45763" lon="5.3954">
        <ele>482.8</ele>
        <time>2022-08-09T14:27:06Z</time>
      </trkpt>
      <trkpt lat="46.45759" lon="5.39559">
        <ele>483.4</ele>
        <time>2022-08-09T14:27:09Z</time>
      </trkpt>
      <trkpt lat="46.45759" lon="5.3957">
        <ele>483.6</ele>
        <time>2022-08-09T14:27:11Z</time>
      </trkpt>
      <trkpt lat="46.45759" lon="5.39578">
        <ele>483.8</ele>
        <time>2022-08-09T14:27:12Z</time>
      </trkpt>
      <trkpt lat="46.4576" lon="5.39611">
        <ele>484.2</ele>
        <time>2022-08-09T14:27:17Z</time>
      </trkpt>
      <trkpt lat="46.45764" lon="5.39636">
        <ele>484.4</ele>
        <time>2022-08-09T14:27:21Z</time>
      </trkpt>
      <trkpt lat="46.45767" lon="5.39649">
        <ele>484.8</ele>
        <time>2022-08-09T14:27:23Z</time>
      </trkpt>
      <trkpt lat="46.45768" lon="5.39653">
        <ele>485</ele>
        <time>2022-08-09T14:27:24Z</time>
      </trkpt>
      <trkpt lat="46.45784" lon="5.3969">
        <ele>485.8</ele>
        <time>2022-08-09T14:27:31Z</time>
      </trkpt>
      <trkpt lat="46.45789" lon="5.39699">
        <ele>486</ele>
        <time>2022-08-09T14:27:33Z</time>
      </trkpt>
      <trkpt lat="46.45795" lon="5.39707">
        <ele>486.4</ele>
        <time>2022-08-09T14:27:35Z</time>
      </trkpt>
      <trkpt lat="46.45806" lon="5.3972">
        <ele>486.6</ele>
        <time>2022-08-09T14:27:38Z</time>
      </trkpt>
      <trkpt lat="46.4581" lon="5.39725">
        <ele>486.8</ele>
        <time>2022-08-09T14:27:39Z</time>
      </trkpt>
      <trkpt lat="46.45817" lon="5.3973">
        <ele>487.2</ele>
        <time>2022-08-09T14:27:41Z</time>
      </trkpt>
      <trkpt lat="46.45827" lon="5.39736">
        <ele>487.4</ele>
        <time>2022-08-09T14:27:43Z</time>
      </trkpt>
      <trkpt lat="46.45848" lon="5.39752">
        <ele>488.4</ele>
        <time>2022-08-09T14:27:48Z</time>
      </trkpt>
      <trkpt lat="46.45869" lon="5.3977">
        <ele>489</ele>
        <time>2022-08-09T14:27:53Z</time>
      </trkpt>
      <trkpt lat="46.45877" lon="5.39777">
        <ele>489.2</ele>
        <time>2022-08-09T14:27:55Z</time>
      </trkpt>
      <trkpt lat="46.45886" lon="5.39785">
        <ele>489.4</ele>
        <time>2022-08-09T14:27:57Z</time>
      </trkpt>
      <trkpt lat="46.45901" lon="5.39798">
        <ele>489.8</ele>
        <time>2022-08-09T14:28:00Z</time>
      </trkpt>
      <trkpt lat="46.45942" lon="5.39833">
        <ele>490.4</ele>
        <time>2022-08-09T14:28:09Z</time>
      </trkpt>
      <trkpt lat="46.45947" lon="5.39837">
        <ele>490.6</ele>
        <time>2022-08-09T14:28:10Z</time>
      </trkpt>
      <trkpt lat="46.45984" lon="5.39867">
        <ele>490.4</ele>
        <time>2022-08-09T14:28:18Z</time>
      </trkpt>
      <trkpt lat="46.46029" lon="5.39905">
        <ele>491.4</ele>
        <time>2022-08-09T14:28:27Z</time>
      </trkpt>
      <trkpt lat="46.46073" lon="5.39943">
        <ele>492</ele>
        <time>2022-08-09T14:28:36Z</time>
      </trkpt>
      <trkpt lat="46.46082" lon="5.3995">
        <ele>492.4</ele>
        <time>2022-08-09T14:28:38Z</time>
      </trkpt>
      <trkpt lat="46.46105" lon="5.3997">
        <ele>493.2</ele>
        <time>2022-08-09T14:28:43Z</time>
      </trkpt>
      <trkpt lat="46.46124" lon="5.39986">
        <ele>493.4</ele>
        <time>2022-08-09T14:28:47Z</time>
      </trkpt>
      <trkpt lat="46.46144" lon="5.40004">
        <ele>493.8</ele>
        <time>2022-08-09T14:28:51Z</time>
      </trkpt>
      <trkpt lat="46.46154" lon="5.40012">
        <ele>493.8</ele>
        <time>2022-08-09T14:28:53Z</time>
      </trkpt>
      <trkpt lat="46.46171" lon="5.40033">
        <ele>494</ele>
        <time>2022-08-09T14:28:57Z</time>
      </trkpt>
      <trkpt lat="46.46178" lon="5.40046">
        <ele>494</ele>
        <time>2022-08-09T14:28:59Z</time>
      </trkpt>
      <trkpt lat="46.46186" lon="5.40065">
        <ele>494.2</ele>
        <time>2022-08-09T14:29:02Z</time>
      </trkpt>
      <trkpt lat="46.46191" lon="5.40087">
        <ele>494.2</ele>
        <time>2022-08-09T14:29:05Z</time>
      </trkpt>
      <trkpt lat="46.46192" lon="5.40094">
        <ele>494.6</ele>
        <time>2022-08-09T14:29:06Z</time>
      </trkpt>
      <trkpt lat="46.46194" lon="5.40109">
        <ele>495.4</ele>
        <time>2022-08-09T14:29:08Z</time>
      </trkpt>
      <trkpt lat="46.46194" lon="5.40116">
        <ele>495.6</ele>
        <time>2022-08-09T14:29:09Z</time>
      </trkpt>
      <trkpt lat="46.46195" lon="5.40135">
        <ele>496.4</ele>
        <time>2022-08-09T14:29:12Z</time>
      </trkpt>
      <trkpt lat="46.46197" lon="5.4014">
        <ele>496.6</ele>
        <time>2022-08-09T14:29:13Z</time>
      </trkpt>
      <trkpt lat="46.46201" lon="5.40143">
        <ele>496.6</ele>
        <time>2022-08-09T14:29:14Z</time>
      </trkpt>
      <trkpt lat="46.46205" lon="5.40143">
        <ele>496.8</ele>
        <time>2022-08-09T14:29:15Z</time>
      </trkpt>
      <trkpt lat="46.4621" lon="5.40141">
        <ele>496.8</ele>
        <time>2022-08-09T14:29:16Z</time>
      </trkpt>
      <trkpt lat="46.46235" lon="5.40115">
        <ele>496.8</ele>
        <time>2022-08-09T14:29:22Z</time>
      </trkpt>
      <trkpt lat="46.46239" lon="5.40111">
        <ele>496.8</ele>
        <time>2022-08-09T14:29:23Z</time>
      </trkpt>
      <trkpt lat="46.46261" lon="5.40096">
        <ele>497</ele>
        <time>2022-08-09T14:29:28Z</time>
      </trkpt>
      <trkpt lat="46.46271" lon="5.40094">
        <ele>497.2</ele>
        <time>2022-08-09T14:29:30Z</time>
      </trkpt>
      <trkpt lat="46.46283" lon="5.40095">
        <ele>497.6</ele>
        <time>2022-08-09T14:29:33Z</time>
      </trkpt>
      <trkpt lat="46.46287" lon="5.40095">
        <ele>497.8</ele>
        <time>2022-08-09T14:29:34Z</time>
      </trkpt>
      <trkpt lat="46.46306" lon="5.40098">
        <ele>498.6</ele>
        <time>2022-08-09T14:29:39Z</time>
      </trkpt>
      <trkpt lat="46.46314" lon="5.40098">
        <ele>499</ele>
        <time>2022-08-09T14:29:41Z</time>
      </trkpt>
      <trkpt lat="46.46331" lon="5.40097">
        <ele>500</ele>
        <time>2022-08-09T14:29:45Z</time>
      </trkpt>
      <trkpt lat="46.46334" lon="5.40097">
        <ele>500.4</ele>
        <time>2022-08-09T14:29:46Z</time>
      </trkpt>
      <trkpt lat="46.46355" lon="5.40094">
        <ele>501</ele>
        <time>2022-08-09T14:29:51Z</time>
      </trkpt>
      <trkpt lat="46.46379" lon="5.4009">
        <ele>501.4</ele>
        <time>2022-08-09T14:29:57Z</time>
      </trkpt>
      <trkpt lat="46.4639" lon="5.40088">
        <ele>502.2</ele>
        <time>2022-08-09T14:30:00Z</time>
      </trkpt>
      <trkpt lat="46.46426" lon="5.40081">
        <ele>503.2</ele>
        <time>2022-08-09T14:30:09Z</time>
      </trkpt>
      <trkpt lat="46.46445" lon="5.40077">
        <ele>504.6</ele>
        <time>2022-08-09T14:30:14Z</time>
      </trkpt>
      <trkpt lat="46.4646" lon="5.40075">
        <ele>505.4</ele>
        <time>2022-08-09T14:30:18Z</time>
      </trkpt>
      <trkpt lat="46.46474" lon="5.40074">
        <ele>505.6</ele>
        <time>2022-08-09T14:30:21Z</time>
      </trkpt>
      <trkpt lat="46.46504" lon="5.40075">
        <ele>506.4</ele>
        <time>2022-08-09T14:30:28Z</time>
      </trkpt>
      <trkpt lat="46.46513" lon="5.40078">
        <ele>506.6</ele>
        <time>2022-08-09T14:30:30Z</time>
      </trkpt>
      <trkpt lat="46.46537" lon="5.4009">
        <ele>507.2</ele>
        <time>2022-08-09T14:30:36Z</time>
      </trkpt>
      <trkpt lat="46.46552" lon="5.40098">
        <ele>507.6</ele>
        <time>2022-08-09T14:30:40Z</time>
      </trkpt>
      <trkpt lat="46.46576" lon="5.4011">
        <ele>508</ele>
        <time>2022-08-09T14:30:46Z</time>
      </trkpt>
      <trkpt lat="46.46595" lon="5.4012">
        <ele>508.6</ele>
        <time>2022-08-09T14:30:51Z</time>
      </trkpt>
      <trkpt lat="46.46621" lon="5.40133">
        <ele>510</ele>
        <time>2022-08-09T14:30:58Z</time>
      </trkpt>
      <trkpt lat="46.46638" lon="5.40142">
        <ele>511.2</ele>
        <time>2022-08-09T14:31:03Z</time>
      </trkpt>
      <trkpt lat="46.46654" lon="5.40151">
        <ele>512.2</ele>
        <time>2022-08-09T14:31:08Z</time>
      </trkpt>
      <trkpt lat="46.46675" lon="5.40162">
        <ele>513.4</ele>
        <time>2022-08-09T14:31:15Z</time>
      </trkpt>
      <trkpt lat="46.46684" lon="5.40167">
        <ele>513.8</ele>
        <time>2022-08-09T14:31:18Z</time>
      </trkpt>
      <trkpt lat="46.46696" lon="5.40172">
        <ele>514.6</ele>
        <time>2022-08-09T14:31:22Z</time>
      </trkpt>
      <trkpt lat="46.46707" lon="5.40178">
        <ele>516.2</ele>
        <time>2022-08-09T14:31:26Z</time>
      </trkpt>
      <trkpt lat="46.46713" lon="5.40181">
        <ele>516.8</ele>
        <time>2022-08-09T14:31:28Z</time>
      </trkpt>
      <trkpt lat="46.46725" lon="5.40187">
        <ele>517.2</ele>
        <time>2022-08-09T14:31:32Z</time>
      </trkpt>
      <trkpt lat="46.46728" lon="5.40188">
        <ele>517.2</ele>
        <time>2022-08-09T14:31:33Z</time>
      </trkpt>
      <trkpt lat="46.46738" lon="5.40191">
        <ele>517.4</ele>
        <time>2022-08-09T14:31:36Z</time>
      </trkpt>
      <trkpt lat="46.46758" lon="5.40202">
        <ele>518.2</ele>
        <time>2022-08-09T14:31:43Z</time>
      </trkpt>
      <trkpt lat="46.46767" lon="5.40207">
        <ele>518.4</ele>
        <time>2022-08-09T14:31:46Z</time>
      </trkpt>
      <trkpt lat="46.46779" lon="5.40214">
        <ele>519.4</ele>
        <time>2022-08-09T14:31:50Z</time>
      </trkpt>
      <trkpt lat="46.46794" lon="5.40221">
        <ele>520.6</ele>
        <time>2022-08-09T14:31:55Z</time>
      </trkpt>
      <trkpt lat="46.46806" lon="5.40228">
        <ele>521.8</ele>
        <time>2022-08-09T14:31:59Z</time>
      </trkpt>
      <trkpt lat="46.46821" lon="5.40235">
        <ele>522.6</ele>
        <time>2022-08-09T14:32:04Z</time>
      </trkpt>
      <trkpt lat="46.46827" lon="5.40238">
        <ele>522.8</ele>
        <time>2022-08-09T14:32:06Z</time>
      </trkpt>
      <trkpt lat="46.46842" lon="5.40246">
        <ele>524</ele>
        <time>2022-08-09T14:32:11Z</time>
      </trkpt>
      <trkpt lat="46.46855" lon="5.40252">
        <ele>524.6</ele>
        <time>2022-08-09T14:32:15Z</time>
      </trkpt>
      <trkpt lat="46.46859" lon="5.40253">
        <ele>524.6</ele>
        <time>2022-08-09T14:32:16Z</time>
      </trkpt>
      <trkpt lat="46.46871" lon="5.4026">
        <ele>525</ele>
        <time>2022-08-09T14:32:20Z</time>
      </trkpt>
      <trkpt lat="46.46883" lon="5.40267">
        <ele>525.4</ele>
        <time>2022-08-09T14:32:24Z</time>
      </trkpt>
      <trkpt lat="46.46903" lon="5.40276">
        <ele>526</ele>
        <time>2022-08-09T14:32:29Z</time>
      </trkpt>
      <trkpt lat="46.46918" lon="5.40284">
        <ele>527.2</ele>
        <time>2022-08-09T14:32:33Z</time>
      </trkpt>
      <trkpt lat="46.46939" lon="5.40296">
        <ele>528</ele>
        <time>2022-08-09T14:32:39Z</time>
      </trkpt>
      <trkpt lat="46.46949" lon="5.40301">
        <ele>528.4</ele>
        <time>2022-08-09T14:32:42Z</time>
      </trkpt>
      <trkpt lat="46.46968" lon="5.40309">
        <ele>529.4</ele>
        <time>2022-08-09T14:32:47Z</time>
      </trkpt>
      <trkpt lat="46.46979" lon="5.40313">
        <ele>530.2</ele>
        <time>2022-08-09T14:32:50Z</time>
      </trkpt>
      <trkpt lat="46.46983" lon="5.40314">
        <ele>530.6</ele>
        <time>2022-08-09T14:32:51Z</time>
      </trkpt>
      <trkpt lat="46.47004" lon="5.40321">
        <ele>531.8</ele>
        <time>2022-08-09T14:32:56Z</time>
      </trkpt>
      <trkpt lat="46.47007" lon="5.40322">
        <ele>531.6</ele>
        <time>2022-08-09T14:32:57Z</time>
      </trkpt>
      <trkpt lat="46.47033" lon="5.40325">
        <ele>532</ele>
        <time>2022-08-09T14:33:03Z</time>
      </trkpt>
      <trkpt lat="46.47061" lon="5.40326">
        <ele>532</ele>
        <time>2022-08-09T14:33:08Z</time>
      </trkpt>
      <trkpt lat="46.47102" lon="5.4033">
        <ele>532</ele>
        <time>2022-08-09T14:33:14Z</time>
      </trkpt>
      <trkpt lat="46.47138" lon="5.40337">
        <ele>529.8</ele>
        <time>2022-08-09T14:33:19Z</time>
      </trkpt>
      <trkpt lat="46.47145" lon="5.40339">
        <ele>529.4</ele>
        <time>2022-08-09T14:33:20Z</time>
      </trkpt>
      <trkpt lat="46.47153" lon="5.40341">
        <ele>528.8</ele>
        <time>2022-08-09T14:33:21Z</time>
      </trkpt>
      <trkpt lat="46.47185" lon="5.40354">
        <ele>527.8</ele>
        <time>2022-08-09T14:33:25Z</time>
      </trkpt>
      <trkpt lat="46.47193" lon="5.40359">
        <ele>527.4</ele>
        <time>2022-08-09T14:33:26Z</time>
      </trkpt>
      <trkpt lat="46.472" lon="5.40367">
        <ele>527.2</ele>
        <time>2022-08-09T14:33:27Z</time>
      </trkpt>
      <trkpt lat="46.47207" lon="5.40375">
        <ele>527.2</ele>
        <time>2022-08-09T14:33:28Z</time>
      </trkpt>
      <trkpt lat="46.47228" lon="5.40402">
        <ele>525</ele>
        <time>2022-08-09T14:33:31Z</time>
      </trkpt>
      <trkpt lat="46.47236" lon="5.40411">
        <ele>524.6</ele>
        <time>2022-08-09T14:33:32Z</time>
      </trkpt>
      <trkpt lat="46.47254" lon="5.40424">
        <ele>524</ele>
        <time>2022-08-09T14:33:34Z</time>
      </trkpt>
      <trkpt lat="46.47273" lon="5.40435">
        <ele>523.6</ele>
        <time>2022-08-09T14:33:36Z</time>
      </trkpt>
      <trkpt lat="46.47283" lon="5.4044">
        <ele>523.2</ele>
        <time>2022-08-09T14:33:37Z</time>
      </trkpt>
      <trkpt lat="46.47303" lon="5.40444">
        <ele>522.2</ele>
        <time>2022-08-09T14:33:39Z</time>
      </trkpt>
      <trkpt lat="46.47323" lon="5.40449">
        <ele>521</ele>
        <time>2022-08-09T14:33:41Z</time>
      </trkpt>
      <trkpt lat="46.47344" lon="5.40452">
        <ele>519.4</ele>
        <time>2022-08-09T14:33:43Z</time>
      </trkpt>
      <trkpt lat="46.47354" lon="5.40453">
        <ele>519</ele>
        <time>2022-08-09T14:33:44Z</time>
      </trkpt>
      <trkpt lat="46.47364" lon="5.40454">
        <ele>518.4</ele>
        <time>2022-08-09T14:33:45Z</time>
      </trkpt>
      <trkpt lat="46.47386" lon="5.40458">
        <ele>517.4</ele>
        <time>2022-08-09T14:33:47Z</time>
      </trkpt>
      <trkpt lat="46.47406" lon="5.40455">
        <ele>516.4</ele>
        <time>2022-08-09T14:33:49Z</time>
      </trkpt>
      <trkpt lat="46.47417" lon="5.40453">
        <ele>516</ele>
        <time>2022-08-09T14:33:50Z</time>
      </trkpt>
      <trkpt lat="46.47459" lon="5.40452">
        <ele>514.4</ele>
        <time>2022-08-09T14:33:54Z</time>
      </trkpt>
      <trkpt lat="46.4748" lon="5.40457">
        <ele>513.2</ele>
        <time>2022-08-09T14:33:56Z</time>
      </trkpt>
      <trkpt lat="46.47499" lon="5.4047">
        <ele>512</ele>
        <time>2022-08-09T14:33:58Z</time>
      </trkpt>
      <trkpt lat="46.47516" lon="5.40485">
        <ele>510.8</ele>
        <time>2022-08-09T14:34:00Z</time>
      </trkpt>
      <trkpt lat="46.47521" lon="5.40489">
        <ele>510.2</ele>
        <time>2022-08-09T14:34:01Z</time>
      </trkpt>
      <trkpt lat="46.47526" lon="5.4049">
        <ele>509.6</ele>
        <time>2022-08-09T14:34:02Z</time>
      </trkpt>
      <trkpt lat="46.47531" lon="5.40487">
        <ele>509.4</ele>
        <time>2022-08-09T14:34:03Z</time>
      </trkpt>
      <trkpt lat="46.47537" lon="5.40479">
        <ele>508.2</ele>
        <time>2022-08-09T14:34:04Z</time>
      </trkpt>
      <trkpt lat="46.47541" lon="5.40467">
        <ele>507.8</ele>
        <time>2022-08-09T14:34:05Z</time>
      </trkpt>
      <trkpt lat="46.47542" lon="5.40437">
        <ele>507.2</ele>
        <time>2022-08-09T14:34:07Z</time>
      </trkpt>
      <trkpt lat="46.47534" lon="5.40408">
        <ele>505.6</ele>
        <time>2022-08-09T14:34:09Z</time>
      </trkpt>
      <trkpt lat="46.47528" lon="5.40393">
        <ele>505.4</ele>
        <time>2022-08-09T14:34:10Z</time>
      </trkpt>
      <trkpt lat="46.47524" lon="5.40379">
        <ele>505</ele>
        <time>2022-08-09T14:34:11Z</time>
      </trkpt>
      <trkpt lat="46.47524" lon="5.40348">
        <ele>504.4</ele>
        <time>2022-08-09T14:34:13Z</time>
      </trkpt>
      <trkpt lat="46.47533" lon="5.4032">
        <ele>503.4</ele>
        <time>2022-08-09T14:34:15Z</time>
      </trkpt>
      <trkpt lat="46.4754" lon="5.40307">
        <ele>502.6</ele>
        <time>2022-08-09T14:34:16Z</time>
      </trkpt>
      <trkpt lat="46.47556" lon="5.40285">
        <ele>501.8</ele>
        <time>2022-08-09T14:34:18Z</time>
      </trkpt>
      <trkpt lat="46.47566" lon="5.40276">
        <ele>501.4</ele>
        <time>2022-08-09T14:34:19Z</time>
      </trkpt>
      <trkpt lat="46.47576" lon="5.40269">
        <ele>501</ele>
        <time>2022-08-09T14:34:20Z</time>
      </trkpt>
      <trkpt lat="46.47597" lon="5.40261">
        <ele>499.4</ele>
        <time>2022-08-09T14:34:22Z</time>
      </trkpt>
      <trkpt lat="46.47608" lon="5.40259">
        <ele>498</ele>
        <time>2022-08-09T14:34:23Z</time>
      </trkpt>
      <trkpt lat="46.4763" lon="5.40253">
        <ele>496.4</ele>
        <time>2022-08-09T14:34:25Z</time>
      </trkpt>
      <trkpt lat="46.47651" lon="5.40248">
        <ele>495.6</ele>
        <time>2022-08-09T14:34:27Z</time>
      </trkpt>
      <trkpt lat="46.47662" lon="5.40248">
        <ele>495.4</ele>
        <time>2022-08-09T14:34:28Z</time>
      </trkpt>
      <trkpt lat="46.47673" lon="5.40248">
        <ele>495</ele>
        <time>2022-08-09T14:34:29Z</time>
      </trkpt>
      <trkpt lat="46.47684" lon="5.40245">
        <ele>494.6</ele>
        <time>2022-08-09T14:34:30Z</time>
      </trkpt>
      <trkpt lat="46.47694" lon="5.40242">
        <ele>494.4</ele>
        <time>2022-08-09T14:34:31Z</time>
      </trkpt>
      <trkpt lat="46.47703" lon="5.40236">
        <ele>494</ele>
        <time>2022-08-09T14:34:32Z</time>
      </trkpt>
      <trkpt lat="46.47714" lon="5.40216">
        <ele>493</ele>
        <time>2022-08-09T14:34:34Z</time>
      </trkpt>
      <trkpt lat="46.47717" lon="5.40203">
        <ele>492.6</ele>
        <time>2022-08-09T14:34:35Z</time>
      </trkpt>
      <trkpt lat="46.4772" lon="5.4019">
        <ele>491.6</ele>
        <time>2022-08-09T14:34:36Z</time>
      </trkpt>
      <trkpt lat="46.47726" lon="5.40178">
        <ele>491.2</ele>
        <time>2022-08-09T14:34:37Z</time>
      </trkpt>
      <trkpt lat="46.47734" lon="5.40169">
        <ele>491</ele>
        <time>2022-08-09T14:34:38Z</time>
      </trkpt>
      <trkpt lat="46.47742" lon="5.40161">
        <ele>490.4</ele>
        <time>2022-08-09T14:34:39Z</time>
      </trkpt>
      <trkpt lat="46.4775" lon="5.40151">
        <ele>490.2</ele>
        <time>2022-08-09T14:34:40Z</time>
      </trkpt>
      <trkpt lat="46.47763" lon="5.40111">
        <ele>489</ele>
        <time>2022-08-09T14:34:43Z</time>
      </trkpt>
      <trkpt lat="46.47765" lon="5.4008">
        <ele>488</ele>
        <time>2022-08-09T14:34:45Z</time>
      </trkpt>
      <trkpt lat="46.47765" lon="5.40068">
        <ele>487.6</ele>
        <time>2022-08-09T14:34:46Z</time>
      </trkpt>
      <trkpt lat="46.47764" lon="5.4005">
        <ele>487.4</ele>
        <time>2022-08-09T14:34:47Z</time>
      </trkpt>
      <trkpt lat="46.47768" lon="5.40027">
        <ele>486.2</ele>
        <time>2022-08-09T14:34:49Z</time>
      </trkpt>
      <trkpt lat="46.47772" lon="5.40017">
        <ele>485</ele>
        <time>2022-08-09T14:34:50Z</time>
      </trkpt>
      <trkpt lat="46.4778" lon="5.40009">
        <ele>484.2</ele>
        <time>2022-08-09T14:34:51Z</time>
      </trkpt>
      <trkpt lat="46.47789" lon="5.40004">
        <ele>484</ele>
        <time>2022-08-09T14:34:52Z</time>
      </trkpt>
      <trkpt lat="46.47825" lon="5.39985">
        <ele>482.6</ele>
        <time>2022-08-09T14:34:56Z</time>
      </trkpt>
      <trkpt lat="46.47845" lon="5.39973">
        <ele>481</ele>
        <time>2022-08-09T14:34:58Z</time>
      </trkpt>
      <trkpt lat="46.47867" lon="5.3996">
        <ele>479.6</ele>
        <time>2022-08-09T14:35:00Z</time>
      </trkpt>
      <trkpt lat="46.47886" lon="5.39949">
        <ele>478.8</ele>
        <time>2022-08-09T14:35:02Z</time>
      </trkpt>
      <trkpt lat="46.47896" lon="5.39942">
        <ele>478.4</ele>
        <time>2022-08-09T14:35:03Z</time>
      </trkpt>
      <trkpt lat="46.47917" lon="5.3993">
        <ele>476.8</ele>
        <time>2022-08-09T14:35:05Z</time>
      </trkpt>
      <trkpt lat="46.4794" lon="5.39919">
        <ele>475.2</ele>
        <time>2022-08-09T14:35:07Z</time>
      </trkpt>
      <trkpt lat="46.4796" lon="5.39909">
        <ele>474</ele>
        <time>2022-08-09T14:35:09Z</time>
      </trkpt>
      <trkpt lat="46.47979" lon="5.39899">
        <ele>473.2</ele>
        <time>2022-08-09T14:35:11Z</time>
      </trkpt>
      <trkpt lat="46.47987" lon="5.39896">
        <ele>473</ele>
        <time>2022-08-09T14:35:12Z</time>
      </trkpt>
      <trkpt lat="46.48005" lon="5.39888">
        <ele>472.4</ele>
        <time>2022-08-09T14:35:14Z</time>
      </trkpt>
      <trkpt lat="46.48025" lon="5.39887">
        <ele>472.2</ele>
        <time>2022-08-09T14:35:16Z</time>
      </trkpt>
      <trkpt lat="46.48051" lon="5.39902">
        <ele>471.8</ele>
        <time>2022-08-09T14:35:19Z</time>
      </trkpt>
      <trkpt lat="46.48067" lon="5.3991">
        <ele>471.6</ele>
        <time>2022-08-09T14:35:21Z</time>
      </trkpt>
      <trkpt lat="46.48082" lon="5.39914">
        <ele>471.4</ele>
        <time>2022-08-09T14:35:23Z</time>
      </trkpt>
      <trkpt lat="46.48121" lon="5.39909">
        <ele>471.6</ele>
        <time>2022-08-09T14:35:28Z</time>
      </trkpt>
      <trkpt lat="46.48159" lon="5.39891">
        <ele>471.8</ele>
        <time>2022-08-09T14:35:33Z</time>
      </trkpt>
      <trkpt lat="46.48187" lon="5.39871">
        <ele>471.6</ele>
        <time>2022-08-09T14:35:37Z</time>
      </trkpt>
      <trkpt lat="46.48191" lon="5.39865">
        <ele>471.4</ele>
        <time>2022-08-09T14:35:38Z</time>
      </trkpt>
      <trkpt lat="46.48196" lon="5.39856">
        <ele>471.2</ele>
        <time>2022-08-09T14:35:39Z</time>
      </trkpt>
      <trkpt lat="46.48198" lon="5.39843">
        <ele>470.8</ele>
        <time>2022-08-09T14:35:40Z</time>
      </trkpt>
      <trkpt lat="46.48197" lon="5.3983">
        <ele>470.8</ele>
        <time>2022-08-09T14:35:41Z</time>
      </trkpt>
      <trkpt lat="46.48193" lon="5.39809">
        <ele>470.4</ele>
        <time>2022-08-09T14:35:43Z</time>
      </trkpt>
      <trkpt lat="46.48183" lon="5.39752">
        <ele>469.8</ele>
        <time>2022-08-09T14:35:48Z</time>
      </trkpt>
      <trkpt lat="46.48178" lon="5.39719">
        <ele>469.4</ele>
        <time>2022-08-09T14:35:51Z</time>
      </trkpt>
      <trkpt lat="46.48176" lon="5.397">
        <ele>469.2</ele>
        <time>2022-08-09T14:35:53Z</time>
      </trkpt>
      <trkpt lat="46.48177" lon="5.39661">
        <ele>468.8</ele>
        <time>2022-08-09T14:35:56Z</time>
      </trkpt>
      <trkpt lat="46.48179" lon="5.39649">
        <ele>468.6</ele>
        <time>2022-08-09T14:35:57Z</time>
      </trkpt>
      <trkpt lat="46.48183" lon="5.39636">
        <ele>468.4</ele>
        <time>2022-08-09T14:35:58Z</time>
      </trkpt>
      <trkpt lat="46.48187" lon="5.39624">
        <ele>468.2</ele>
        <time>2022-08-09T14:35:59Z</time>
      </trkpt>
      <trkpt lat="46.48197" lon="5.396">
        <ele>467.6</ele>
        <time>2022-08-09T14:36:01Z</time>
      </trkpt>
      <trkpt lat="46.48206" lon="5.39574">
        <ele>466.2</ele>
        <time>2022-08-09T14:36:03Z</time>
      </trkpt>
      <trkpt lat="46.4821" lon="5.3956">
        <ele>465.8</ele>
        <time>2022-08-09T14:36:04Z</time>
      </trkpt>
      <trkpt lat="46.48214" lon="5.39545">
        <ele>465.2</ele>
        <time>2022-08-09T14:36:05Z</time>
      </trkpt>
      <trkpt lat="46.4822" lon="5.39517">
        <ele>464.4</ele>
        <time>2022-08-09T14:36:07Z</time>
      </trkpt>
      <trkpt lat="46.48224" lon="5.39504">
        <ele>463.6</ele>
        <time>2022-08-09T14:36:08Z</time>
      </trkpt>
      <trkpt lat="46.48229" lon="5.39492">
        <ele>463.2</ele>
        <time>2022-08-09T14:36:09Z</time>
      </trkpt>
      <trkpt lat="46.48235" lon="5.39482">
        <ele>461.4</ele>
        <time>2022-08-09T14:36:10Z</time>
      </trkpt>
      <trkpt lat="46.48241" lon="5.39474">
        <ele>460.8</ele>
        <time>2022-08-09T14:36:11Z</time>
      </trkpt>
      <trkpt lat="46.48249" lon="5.39468">
        <ele>460.2</ele>
        <time>2022-08-09T14:36:12Z</time>
      </trkpt>
      <trkpt lat="46.48257" lon="5.39465">
        <ele>459</ele>
        <time>2022-08-09T14:36:13Z</time>
      </trkpt>
      <trkpt lat="46.48265" lon="5.39465">
        <ele>458.2</ele>
        <time>2022-08-09T14:36:14Z</time>
      </trkpt>
      <trkpt lat="46.48272" lon="5.39466">
        <ele>456.8</ele>
        <time>2022-08-09T14:36:15Z</time>
      </trkpt>
      <trkpt lat="46.48283" lon="5.39466">
        <ele>456</ele>
        <time>2022-08-09T14:36:16Z</time>
      </trkpt>
      <trkpt lat="46.48293" lon="5.39463">
        <ele>455</ele>
        <time>2022-08-09T14:36:17Z</time>
      </trkpt>
      <trkpt lat="46.48308" lon="5.39452">
        <ele>453.8</ele>
        <time>2022-08-09T14:36:19Z</time>
      </trkpt>
      <trkpt lat="46.48311" lon="5.39437">
        <ele>453</ele>
        <time>2022-08-09T14:36:20Z</time>
      </trkpt>
      <trkpt lat="46.48313" lon="5.39423">
        <ele>452.4</ele>
        <time>2022-08-09T14:36:21Z</time>
      </trkpt>
      <trkpt lat="46.48319" lon="5.39394">
        <ele>451.6</ele>
        <time>2022-08-09T14:36:23Z</time>
      </trkpt>
      <trkpt lat="46.48321" lon="5.39382">
        <ele>450.8</ele>
        <time>2022-08-09T14:36:24Z</time>
      </trkpt>
      <trkpt lat="46.48327" lon="5.39366">
        <ele>450.2</ele>
        <time>2022-08-09T14:36:25Z</time>
      </trkpt>
      <trkpt lat="46.48332" lon="5.39357">
        <ele>450</ele>
        <time>2022-08-09T14:36:26Z</time>
      </trkpt>
      <trkpt lat="46.48338" lon="5.39345">
        <ele>449.6</ele>
        <time>2022-08-09T14:36:27Z</time>
      </trkpt>
      <trkpt lat="46.48354" lon="5.39325">
        <ele>448.6</ele>
        <time>2022-08-09T14:36:29Z</time>
      </trkpt>
      <trkpt lat="46.48363" lon="5.3932">
        <ele>447.8</ele>
        <time>2022-08-09T14:36:30Z</time>
      </trkpt>
      <trkpt lat="46.48373" lon="5.39318">
        <ele>446.8</ele>
        <time>2022-08-09T14:36:31Z</time>
      </trkpt>
      <trkpt lat="46.48383" lon="5.39318">
        <ele>446</ele>
        <time>2022-08-09T14:36:32Z</time>
      </trkpt>
      <trkpt lat="46.48391" lon="5.39319">
        <ele>445.6</ele>
        <time>2022-08-09T14:36:33Z</time>
      </trkpt>
      <trkpt lat="46.48414" lon="5.39325">
        <ele>444.4</ele>
        <time>2022-08-09T14:36:35Z</time>
      </trkpt>
      <trkpt lat="46.48425" lon="5.39325">
        <ele>442.4</ele>
        <time>2022-08-09T14:36:36Z</time>
      </trkpt>
      <trkpt lat="46.48433" lon="5.39324">
        <ele>441.8</ele>
        <time>2022-08-09T14:36:37Z</time>
      </trkpt>
      <trkpt lat="46.48447" lon="5.3932">
        <ele>441</ele>
        <time>2022-08-09T14:36:38Z</time>
      </trkpt>
      <trkpt lat="46.48458" lon="5.39317">
        <ele>440</ele>
        <time>2022-08-09T14:36:39Z</time>
      </trkpt>
      <trkpt lat="46.4848" lon="5.39312">
        <ele>438.2</ele>
        <time>2022-08-09T14:36:41Z</time>
      </trkpt>
      <trkpt lat="46.48503" lon="5.39307">
        <ele>436.2</ele>
        <time>2022-08-09T14:36:43Z</time>
      </trkpt>
      <trkpt lat="46.48527" lon="5.39301">
        <ele>434.6</ele>
        <time>2022-08-09T14:36:45Z</time>
      </trkpt>
      <trkpt lat="46.48562" lon="5.39293">
        <ele>432.4</ele>
        <time>2022-08-09T14:36:48Z</time>
      </trkpt>
      <trkpt lat="46.48596" lon="5.39288">
        <ele>431.2</ele>
        <time>2022-08-09T14:36:51Z</time>
      </trkpt>
      <trkpt lat="46.4862" lon="5.39283">
        <ele>429.4</ele>
        <time>2022-08-09T14:36:53Z</time>
      </trkpt>
      <trkpt lat="46.48641" lon="5.3928">
        <ele>428</ele>
        <time>2022-08-09T14:36:55Z</time>
      </trkpt>
      <trkpt lat="46.48649" lon="5.39281">
        <ele>426.8</ele>
        <time>2022-08-09T14:36:56Z</time>
      </trkpt>
      <trkpt lat="46.48661" lon="5.39282">
        <ele>425.2</ele>
        <time>2022-08-09T14:36:57Z</time>
      </trkpt>
      <trkpt lat="46.48678" lon="5.39286">
        <ele>423.8</ele>
        <time>2022-08-09T14:36:59Z</time>
      </trkpt>
      <trkpt lat="46.48688" lon="5.39289">
        <ele>422.6</ele>
        <time>2022-08-09T14:37:00Z</time>
      </trkpt>
      <trkpt lat="46.48704" lon="5.39299">
        <ele>421.2</ele>
        <time>2022-08-09T14:37:02Z</time>
      </trkpt>
      <trkpt lat="46.48716" lon="5.39308">
        <ele>420.6</ele>
        <time>2022-08-09T14:37:04Z</time>
      </trkpt>
      <trkpt lat="46.48726" lon="5.39309">
        <ele>419.6</ele>
        <time>2022-08-09T14:37:05Z</time>
      </trkpt>
      <trkpt lat="46.48734" lon="5.39308">
        <ele>418.8</ele>
        <time>2022-08-09T14:37:06Z</time>
      </trkpt>
      <trkpt lat="46.48741" lon="5.39305">
        <ele>417.2</ele>
        <time>2022-08-09T14:37:07Z</time>
      </trkpt>
      <trkpt lat="46.48747" lon="5.39299">
        <ele>416.6</ele>
        <time>2022-08-09T14:37:08Z</time>
      </trkpt>
      <trkpt lat="46.48742" lon="5.39288">
        <ele>415.6</ele>
        <time>2022-08-09T14:37:09Z</time>
      </trkpt>
      <trkpt lat="46.48738" lon="5.39276">
        <ele>415</ele>
        <time>2022-08-09T14:37:10Z</time>
      </trkpt>
      <trkpt lat="46.48733" lon="5.39265">
        <ele>414.2</ele>
        <time>2022-08-09T14:37:11Z</time>
      </trkpt>
      <trkpt lat="46.48714" lon="5.39243">
        <ele>413.4</ele>
        <time>2022-08-09T14:37:13Z</time>
      </trkpt>
      <trkpt lat="46.48704" lon="5.39232">
        <ele>412</ele>
        <time>2022-08-09T14:37:14Z</time>
      </trkpt>
      <trkpt lat="46.48685" lon="5.39209">
        <ele>410.6</ele>
        <time>2022-08-09T14:37:16Z</time>
      </trkpt>
      <trkpt lat="46.48667" lon="5.39184">
        <ele>409.2</ele>
        <time>2022-08-09T14:37:18Z</time>
      </trkpt>
      <trkpt lat="46.4865" lon="5.39158">
        <ele>408</ele>
        <time>2022-08-09T14:37:20Z</time>
      </trkpt>
      <trkpt lat="46.4864" lon="5.39146">
        <ele>407.2</ele>
        <time>2022-08-09T14:37:21Z</time>
      </trkpt>
      <trkpt lat="46.48629" lon="5.39136">
        <ele>406.6</ele>
        <time>2022-08-09T14:37:22Z</time>
      </trkpt>
      <trkpt lat="46.48606" lon="5.39118">
        <ele>405.2</ele>
        <time>2022-08-09T14:37:24Z</time>
      </trkpt>
      <trkpt lat="46.48593" lon="5.39111">
        <ele>403.8</ele>
        <time>2022-08-09T14:37:25Z</time>
      </trkpt>
      <trkpt lat="46.48582" lon="5.39102">
        <ele>402.4</ele>
        <time>2022-08-09T14:37:26Z</time>
      </trkpt>
      <trkpt lat="46.48557" lon="5.39084">
        <ele>401.2</ele>
        <time>2022-08-09T14:37:28Z</time>
      </trkpt>
      <trkpt lat="46.48545" lon="5.39076">
        <ele>400.6</ele>
        <time>2022-08-09T14:37:29Z</time>
      </trkpt>
      <trkpt lat="46.48532" lon="5.39068">
        <ele>399.8</ele>
        <time>2022-08-09T14:37:30Z</time>
      </trkpt>
      <trkpt lat="46.48519" lon="5.39059">
        <ele>399.2</ele>
        <time>2022-08-09T14:37:31Z</time>
      </trkpt>
      <trkpt lat="46.48509" lon="5.39047">
        <ele>398.2</ele>
        <time>2022-08-09T14:37:32Z</time>
      </trkpt>
      <trkpt lat="46.48501" lon="5.39029">
        <ele>395.6</ele>
        <time>2022-08-09T14:37:33Z</time>
      </trkpt>
      <trkpt lat="46.48496" lon="5.39011">
        <ele>394.6</ele>
        <time>2022-08-09T14:37:34Z</time>
      </trkpt>
      <trkpt lat="46.48491" lon="5.38992">
        <ele>393</ele>
        <time>2022-08-09T14:37:35Z</time>
      </trkpt>
      <trkpt lat="46.48485" lon="5.38974">
        <ele>392.2</ele>
        <time>2022-08-09T14:37:36Z</time>
      </trkpt>
      <trkpt lat="46.48479" lon="5.38958">
        <ele>391</ele>
        <time>2022-08-09T14:37:37Z</time>
      </trkpt>
      <trkpt lat="46.48472" lon="5.38944">
        <ele>390.4</ele>
        <time>2022-08-09T14:37:38Z</time>
      </trkpt>
      <trkpt lat="46.48465" lon="5.38932">
        <ele>388.4</ele>
        <time>2022-08-09T14:37:39Z</time>
      </trkpt>
      <trkpt lat="46.48459" lon="5.3892">
        <ele>387</ele>
        <time>2022-08-09T14:37:40Z</time>
      </trkpt>
      <trkpt lat="46.48454" lon="5.38908">
        <ele>386.4</ele>
        <time>2022-08-09T14:37:41Z</time>
      </trkpt>
      <trkpt lat="46.48452" lon="5.38895">
        <ele>385.6</ele>
        <time>2022-08-09T14:37:42Z</time>
      </trkpt>
      <trkpt lat="46.48455" lon="5.38871">
        <ele>384.4</ele>
        <time>2022-08-09T14:37:44Z</time>
      </trkpt>
      <trkpt lat="46.4847" lon="5.38852">
        <ele>383</ele>
        <time>2022-08-09T14:37:46Z</time>
      </trkpt>
      <trkpt lat="46.48479" lon="5.38844">
        <ele>382.2</ele>
        <time>2022-08-09T14:37:47Z</time>
      </trkpt>
      <trkpt lat="46.48488" lon="5.38838">
        <ele>381.8</ele>
        <time>2022-08-09T14:37:48Z</time>
      </trkpt>
      <trkpt lat="46.48508" lon="5.38825">
        <ele>381</ele>
        <time>2022-08-09T14:37:50Z</time>
      </trkpt>
      <trkpt lat="46.48518" lon="5.38819">
        <ele>380.4</ele>
        <time>2022-08-09T14:37:51Z</time>
      </trkpt>
      <trkpt lat="46.48538" lon="5.38806">
        <ele>379.2</ele>
        <time>2022-08-09T14:37:53Z</time>
      </trkpt>
      <trkpt lat="46.48556" lon="5.38793">
        <ele>377.8</ele>
        <time>2022-08-09T14:37:55Z</time>
      </trkpt>
      <trkpt lat="46.48564" lon="5.38788">
        <ele>376.6</ele>
        <time>2022-08-09T14:37:56Z</time>
      </trkpt>
      <trkpt lat="46.48579" lon="5.3878">
        <ele>375.6</ele>
        <time>2022-08-09T14:37:58Z</time>
      </trkpt>
      <trkpt lat="46.48587" lon="5.38779">
        <ele>374.4</ele>
        <time>2022-08-09T14:37:59Z</time>
      </trkpt>
      <trkpt lat="46.48594" lon="5.3878">
        <ele>373.8</ele>
        <time>2022-08-09T14:38:00Z</time>
      </trkpt>
      <trkpt lat="46.48601" lon="5.38783">
        <ele>372.8</ele>
        <time>2022-08-09T14:38:01Z</time>
      </trkpt>
      <trkpt lat="46.48607" lon="5.38782">
        <ele>372.6</ele>
        <time>2022-08-09T14:38:02Z</time>
      </trkpt>
      <trkpt lat="46.48619" lon="5.38771">
        <ele>371.4</ele>
        <time>2022-08-09T14:38:04Z</time>
      </trkpt>
      <trkpt lat="46.48624" lon="5.38762">
        <ele>370.2</ele>
        <time>2022-08-09T14:38:05Z</time>
      </trkpt>
      <trkpt lat="46.48633" lon="5.38741">
        <ele>369</ele>
        <time>2022-08-09T14:38:07Z</time>
      </trkpt>
      <trkpt lat="46.48637" lon="5.38729">
        <ele>368</ele>
        <time>2022-08-09T14:38:08Z</time>
      </trkpt>
      <trkpt lat="46.48639" lon="5.38715">
        <ele>367.6</ele>
        <time>2022-08-09T14:38:09Z</time>
      </trkpt>
      <trkpt lat="46.48641" lon="5.38702">
        <ele>367</ele>
        <time>2022-08-09T14:38:10Z</time>
      </trkpt>
      <trkpt lat="46.48642" lon="5.38687">
        <ele>366.6</ele>
        <time>2022-08-09T14:38:11Z</time>
      </trkpt>
      <trkpt lat="46.4864" lon="5.38658">
        <ele>365.2</ele>
        <time>2022-08-09T14:38:13Z</time>
      </trkpt>
      <trkpt lat="46.48634" lon="5.38628">
        <ele>364.4</ele>
        <time>2022-08-09T14:38:15Z</time>
      </trkpt>
      <trkpt lat="46.48631" lon="5.38615">
        <ele>363.8</ele>
        <time>2022-08-09T14:38:16Z</time>
      </trkpt>
      <trkpt lat="46.48619" lon="5.38571">
        <ele>362.4</ele>
        <time>2022-08-09T14:38:19Z</time>
      </trkpt>
      <trkpt lat="46.4861" lon="5.38541">
        <ele>361.2</ele>
        <time>2022-08-09T14:38:21Z</time>
      </trkpt>
      <trkpt lat="46.48606" lon="5.38526">
        <ele>360.6</ele>
        <time>2022-08-09T14:38:22Z</time>
      </trkpt>
      <trkpt lat="46.48602" lon="5.3851">
        <ele>360</ele>
        <time>2022-08-09T14:38:23Z</time>
      </trkpt>
      <trkpt lat="46.48598" lon="5.38498">
        <ele>359.2</ele>
        <time>2022-08-09T14:38:24Z</time>
      </trkpt>
    </trkseg>
  </trk>
</gpx>